<?xml version="1.0" encoding="UTF-8" standalone="no" ?>
<gpx xmlns="http://www.topografix.com/GPX/1/1" xmlns:xsi="http://www.w3.org/2001/XMLSchema-instance" xsi:schemaLocation="http://www.topografix.com/GPX/1/1 http://www.topografix.com/GPX/1/1/gpx.xsd" version="1.1" creator="VisuGPX - https://www.visugpx.com">
  <metadata>
    <name>Mont Rachais March 6 2021</name>
    <desc><![CDATA[Mont Rachais Trail - March 6 2021]]></desc>
  </metadata>
  <trk>
    <name><![CDATA[ACTIVE LOG054628]]></name>
    <trkseg>
      <trkpt lat="45.19686" lon="5.73949">
        <ele>144.316</ele>
        <time>2021-03-06T04:46:28Z</time>
      </trkpt>
      <trkpt lat="45.19681" lon="5.73967">
        <ele>147.341</ele>
        <time>2021-03-06T04:47:15Z</time>
      </trkpt>
      <trkpt lat="45.19673" lon="5.7395">
        <ele>150.626</ele>
        <time>2021-03-06T04:48:15Z</time>
      </trkpt>
      <trkpt lat="45.19673" lon="5.73955">
        <ele>153.855</ele>
        <time>2021-03-06T04:49:37Z</time>
      </trkpt>
      <trkpt lat="45.19676" lon="5.73963">
        <ele>155.784</ele>
        <time>2021-03-06T04:50:20Z</time>
      </trkpt>
      <trkpt lat="45.19675" lon="5.73961">
        <ele>155.221</ele>
        <time>2021-03-06T04:50:24Z</time>
      </trkpt>
      <trkpt lat="45.19668" lon="5.73961">
        <ele>155.585</ele>
        <time>2021-03-06T04:50:30Z</time>
      </trkpt>
      <trkpt lat="45.19658" lon="5.73957">
        <ele>155.757</ele>
        <time>2021-03-06T04:50:37Z</time>
      </trkpt>
      <trkpt lat="45.19659" lon="5.73948">
        <ele>154.023</ele>
        <time>2021-03-06T04:50:52Z</time>
      </trkpt>
      <trkpt lat="45.19662" lon="5.73942">
        <ele>153.276</ele>
        <time>2021-03-06T04:50:58Z</time>
      </trkpt>
      <trkpt lat="45.19667" lon="5.73936">
        <ele>151.344</ele>
        <time>2021-03-06T04:51:06Z</time>
      </trkpt>
      <trkpt lat="45.19668" lon="5.73933">
        <ele>148.282</ele>
        <time>2021-03-06T04:51:12Z</time>
      </trkpt>
      <trkpt lat="45.19668" lon="5.73929">
        <ele>148.756</ele>
        <time>2021-03-06T04:51:17Z</time>
      </trkpt>
      <trkpt lat="45.19665" lon="5.73939">
        <ele>148.955</ele>
        <time>2021-03-06T04:51:24Z</time>
      </trkpt>
      <trkpt lat="45.1968" lon="5.73919">
        <ele>149.618</ele>
        <time>2021-03-06T04:51:29Z</time>
      </trkpt>
      <trkpt lat="45.19687" lon="5.73901">
        <ele>150.065</ele>
        <time>2021-03-06T04:51:34Z</time>
      </trkpt>
      <trkpt lat="45.19688" lon="5.73905">
        <ele>151.113</ele>
        <time>2021-03-06T04:51:40Z</time>
      </trkpt>
      <trkpt lat="45.19677" lon="5.73931">
        <ele>151.357</ele>
        <time>2021-03-06T04:51:44Z</time>
      </trkpt>
      <trkpt lat="45.1968" lon="5.73947">
        <ele>151.896</ele>
        <time>2021-03-06T04:51:49Z</time>
      </trkpt>
      <trkpt lat="45.1968" lon="5.73959">
        <ele>150.149</ele>
        <time>2021-03-06T04:51:52Z</time>
      </trkpt>
      <trkpt lat="45.19681" lon="5.73965">
        <ele>152.25</ele>
        <time>2021-03-06T04:51:54Z</time>
      </trkpt>
      <trkpt lat="45.1968" lon="5.73974">
        <ele>152.001</ele>
        <time>2021-03-06T04:51:57Z</time>
      </trkpt>
      <trkpt lat="45.19685" lon="5.73983">
        <ele>151.674</ele>
        <time>2021-03-06T04:52:02Z</time>
      </trkpt>
      <trkpt lat="45.19691" lon="5.7401">
        <ele>152.243</ele>
        <time>2021-03-06T04:52:09Z</time>
      </trkpt>
      <trkpt lat="45.19692" lon="5.7403">
        <ele>152.454</ele>
        <time>2021-03-06T04:52:16Z</time>
      </trkpt>
      <trkpt lat="45.19692" lon="5.74034">
        <ele>153.095</ele>
        <time>2021-03-06T04:52:17Z</time>
      </trkpt>
      <trkpt lat="45.19693" lon="5.74053">
        <ele>154.712</ele>
        <time>2021-03-06T04:52:23Z</time>
      </trkpt>
      <trkpt lat="45.19693" lon="5.74057">
        <ele>152.918</ele>
        <time>2021-03-06T04:52:24Z</time>
      </trkpt>
      <trkpt lat="45.19695" lon="5.7407">
        <ele>153.064</ele>
        <time>2021-03-06T04:52:29Z</time>
      </trkpt>
      <trkpt lat="45.19706" lon="5.74094">
        <ele>153.028</ele>
        <time>2021-03-06T04:52:37Z</time>
      </trkpt>
      <trkpt lat="45.19696" lon="5.74129">
        <ele>153.313</ele>
        <time>2021-03-06T04:52:42Z</time>
      </trkpt>
      <trkpt lat="45.19698" lon="5.74155">
        <ele>153.69</ele>
        <time>2021-03-06T04:52:49Z</time>
      </trkpt>
      <trkpt lat="45.19702" lon="5.74177">
        <ele>153.581</ele>
        <time>2021-03-06T04:52:55Z</time>
      </trkpt>
      <trkpt lat="45.19703" lon="5.74212">
        <ele>153.667</ele>
        <time>2021-03-06T04:53:03Z</time>
      </trkpt>
      <trkpt lat="45.19709" lon="5.74232">
        <ele>153.704</ele>
        <time>2021-03-06T04:53:10Z</time>
      </trkpt>
      <trkpt lat="45.19712" lon="5.74246">
        <ele>154.931</ele>
        <time>2021-03-06T04:53:14Z</time>
      </trkpt>
      <trkpt lat="45.19719" lon="5.74265">
        <ele>154.792</ele>
        <time>2021-03-06T04:53:21Z</time>
      </trkpt>
      <trkpt lat="45.19721" lon="5.74266">
        <ele>156.111</ele>
        <time>2021-03-06T04:53:23Z</time>
      </trkpt>
      <trkpt lat="45.19739" lon="5.74248">
        <ele>156.925</ele>
        <time>2021-03-06T04:53:29Z</time>
      </trkpt>
      <trkpt lat="45.19742" lon="5.74245">
        <ele>157.005</ele>
        <time>2021-03-06T04:53:30Z</time>
      </trkpt>
      <trkpt lat="45.1977" lon="5.74228">
        <ele>157.501</ele>
        <time>2021-03-06T04:53:39Z</time>
      </trkpt>
      <trkpt lat="45.19785" lon="5.74225">
        <ele>157.748</ele>
        <time>2021-03-06T04:53:42Z</time>
      </trkpt>
      <trkpt lat="45.19808" lon="5.74211">
        <ele>157.98</ele>
        <time>2021-03-06T04:53:50Z</time>
      </trkpt>
      <trkpt lat="45.19826" lon="5.74209">
        <ele>157.887</ele>
        <time>2021-03-06T04:53:57Z</time>
      </trkpt>
      <trkpt lat="45.19837" lon="5.74221">
        <ele>158.382</ele>
        <time>2021-03-06T04:54:04Z</time>
      </trkpt>
      <trkpt lat="45.19838" lon="5.74229">
        <ele>158.22</ele>
        <time>2021-03-06T04:54:06Z</time>
      </trkpt>
      <trkpt lat="45.19857" lon="5.74205">
        <ele>158.512</ele>
        <time>2021-03-06T04:54:11Z</time>
      </trkpt>
      <trkpt lat="45.19892" lon="5.74162">
        <ele>159.156</ele>
        <time>2021-03-06T04:54:17Z</time>
      </trkpt>
      <trkpt lat="45.19906" lon="5.74155">
        <ele>159.35</ele>
        <time>2021-03-06T04:54:23Z</time>
      </trkpt>
      <trkpt lat="45.19905" lon="5.74175">
        <ele>159.064</ele>
        <time>2021-03-06T04:54:29Z</time>
      </trkpt>
      <trkpt lat="45.19921" lon="5.74168">
        <ele>159.527</ele>
        <time>2021-03-06T04:54:36Z</time>
      </trkpt>
      <trkpt lat="45.19942" lon="5.74156">
        <ele>160.728</ele>
        <time>2021-03-06T04:54:45Z</time>
      </trkpt>
      <trkpt lat="45.1996" lon="5.7414">
        <ele>160.853</ele>
        <time>2021-03-06T04:54:53Z</time>
      </trkpt>
      <trkpt lat="45.19974" lon="5.74128">
        <ele>161.237</ele>
        <time>2021-03-06T04:55:00Z</time>
      </trkpt>
      <trkpt lat="45.19986" lon="5.74118">
        <ele>161.277</ele>
        <time>2021-03-06T04:55:06Z</time>
      </trkpt>
      <trkpt lat="45.20001" lon="5.74101">
        <ele>159.161</ele>
        <time>2021-03-06T04:55:13Z</time>
      </trkpt>
      <trkpt lat="45.2001" lon="5.74092">
        <ele>158.729</ele>
        <time>2021-03-06T04:55:19Z</time>
      </trkpt>
      <trkpt lat="45.20008" lon="5.74093">
        <ele>158.744</ele>
        <time>2021-03-06T04:55:22Z</time>
      </trkpt>
      <trkpt lat="45.2001" lon="5.74077">
        <ele>158.158</ele>
        <time>2021-03-06T04:55:27Z</time>
      </trkpt>
      <trkpt lat="45.20014" lon="5.74075">
        <ele>158.401</ele>
        <time>2021-03-06T04:55:29Z</time>
      </trkpt>
      <trkpt lat="45.20031" lon="5.74052">
        <ele>160.694</ele>
        <time>2021-03-06T04:55:37Z</time>
      </trkpt>
      <trkpt lat="45.20045" lon="5.74028">
        <ele>162.262</ele>
        <time>2021-03-06T04:55:44Z</time>
      </trkpt>
      <trkpt lat="45.20054" lon="5.74019">
        <ele>161.86</ele>
        <time>2021-03-06T04:55:48Z</time>
      </trkpt>
      <trkpt lat="45.20065" lon="5.74002">
        <ele>161.105</ele>
        <time>2021-03-06T04:55:52Z</time>
      </trkpt>
      <trkpt lat="45.20086" lon="5.73978">
        <ele>161.158</ele>
        <time>2021-03-06T04:55:59Z</time>
      </trkpt>
      <trkpt lat="45.20101" lon="5.73952">
        <ele>160.876</ele>
        <time>2021-03-06T04:56:06Z</time>
      </trkpt>
      <trkpt lat="45.20114" lon="5.73937">
        <ele>160.875</ele>
        <time>2021-03-06T04:56:12Z</time>
      </trkpt>
      <trkpt lat="45.20127" lon="5.73921">
        <ele>162.314</ele>
        <time>2021-03-06T04:56:19Z</time>
      </trkpt>
      <trkpt lat="45.20142" lon="5.73902">
        <ele>161.337</ele>
        <time>2021-03-06T04:56:26Z</time>
      </trkpt>
      <trkpt lat="45.20144" lon="5.73899">
        <ele>161.468</ele>
        <time>2021-03-06T04:56:27Z</time>
      </trkpt>
      <trkpt lat="45.20155" lon="5.73878">
        <ele>161.929</ele>
        <time>2021-03-06T04:56:34Z</time>
      </trkpt>
      <trkpt lat="45.20164" lon="5.73859">
        <ele>161.904</ele>
        <time>2021-03-06T04:56:40Z</time>
      </trkpt>
      <trkpt lat="45.20171" lon="5.73835">
        <ele>162.391</ele>
        <time>2021-03-06T04:56:47Z</time>
      </trkpt>
      <trkpt lat="45.20174" lon="5.73809">
        <ele>163.153</ele>
        <time>2021-03-06T04:56:54Z</time>
      </trkpt>
      <trkpt lat="45.20175" lon="5.73782">
        <ele>162.375</ele>
        <time>2021-03-06T04:57:01Z</time>
      </trkpt>
      <trkpt lat="45.20177" lon="5.73759">
        <ele>163.262</ele>
        <time>2021-03-06T04:57:07Z</time>
      </trkpt>
      <trkpt lat="45.20176" lon="5.73739">
        <ele>163.41</ele>
        <time>2021-03-06T04:57:12Z</time>
      </trkpt>
      <trkpt lat="45.20174" lon="5.73718">
        <ele>163.714</ele>
        <time>2021-03-06T04:57:17Z</time>
      </trkpt>
      <trkpt lat="45.20166" lon="5.73698">
        <ele>163.632</ele>
        <time>2021-03-06T04:57:23Z</time>
      </trkpt>
      <trkpt lat="45.20165" lon="5.73696">
        <ele>163.994</ele>
        <time>2021-03-06T04:57:24Z</time>
      </trkpt>
      <trkpt lat="45.2016" lon="5.73673">
        <ele>163.847</ele>
        <time>2021-03-06T04:57:30Z</time>
      </trkpt>
      <trkpt lat="45.20154" lon="5.73651">
        <ele>164.412</ele>
        <time>2021-03-06T04:57:36Z</time>
      </trkpt>
      <trkpt lat="45.20148" lon="5.73632">
        <ele>164.699</ele>
        <time>2021-03-06T04:57:41Z</time>
      </trkpt>
      <trkpt lat="45.2014" lon="5.73613">
        <ele>164.022</ele>
        <time>2021-03-06T04:57:47Z</time>
      </trkpt>
      <trkpt lat="45.20132" lon="5.73594">
        <ele>165.439</ele>
        <time>2021-03-06T04:57:53Z</time>
      </trkpt>
      <trkpt lat="45.20121" lon="5.73572">
        <ele>165.811</ele>
        <time>2021-03-06T04:58:00Z</time>
      </trkpt>
      <trkpt lat="45.20108" lon="5.73558">
        <ele>164.914</ele>
        <time>2021-03-06T04:58:06Z</time>
      </trkpt>
      <trkpt lat="45.20096" lon="5.73541">
        <ele>163.985</ele>
        <time>2021-03-06T04:58:12Z</time>
      </trkpt>
      <trkpt lat="45.20081" lon="5.7352">
        <ele>166.177</ele>
        <time>2021-03-06T04:58:19Z</time>
      </trkpt>
      <trkpt lat="45.20065" lon="5.73511">
        <ele>165.406</ele>
        <time>2021-03-06T04:58:25Z</time>
      </trkpt>
      <trkpt lat="45.2005" lon="5.73504">
        <ele>166.55</ele>
        <time>2021-03-06T04:58:30Z</time>
      </trkpt>
      <trkpt lat="45.20042" lon="5.73499">
        <ele>165.052</ele>
        <time>2021-03-06T04:58:33Z</time>
      </trkpt>
      <trkpt lat="45.2003" lon="5.7349">
        <ele>165.421</ele>
        <time>2021-03-06T04:58:38Z</time>
      </trkpt>
      <trkpt lat="45.20023" lon="5.73478">
        <ele>165.516</ele>
        <time>2021-03-06T04:58:42Z</time>
      </trkpt>
      <trkpt lat="45.20009" lon="5.73469">
        <ele>165.252</ele>
        <time>2021-03-06T04:58:48Z</time>
      </trkpt>
      <trkpt lat="45.19993" lon="5.73454">
        <ele>166.013</ele>
        <time>2021-03-06T04:58:56Z</time>
      </trkpt>
      <trkpt lat="45.19976" lon="5.73442">
        <ele>166.37</ele>
        <time>2021-03-06T04:59:03Z</time>
      </trkpt>
      <trkpt lat="45.19961" lon="5.73434">
        <ele>164.957</ele>
        <time>2021-03-06T04:59:09Z</time>
      </trkpt>
      <trkpt lat="45.19948" lon="5.73429">
        <ele>166.166</ele>
        <time>2021-03-06T04:59:14Z</time>
      </trkpt>
      <trkpt lat="45.19931" lon="5.73423">
        <ele>166.045</ele>
        <time>2021-03-06T04:59:20Z</time>
      </trkpt>
      <trkpt lat="45.19911" lon="5.73415">
        <ele>165.893</ele>
        <time>2021-03-06T04:59:28Z</time>
      </trkpt>
      <trkpt lat="45.19894" lon="5.73413">
        <ele>166.384</ele>
        <time>2021-03-06T04:59:34Z</time>
      </trkpt>
      <trkpt lat="45.19882" lon="5.73408">
        <ele>166.803</ele>
        <time>2021-03-06T04:59:40Z</time>
      </trkpt>
      <trkpt lat="45.19864" lon="5.73402">
        <ele>167.153</ele>
        <time>2021-03-06T04:59:47Z</time>
      </trkpt>
      <trkpt lat="45.19845" lon="5.73395">
        <ele>167.562</ele>
        <time>2021-03-06T04:59:54Z</time>
      </trkpt>
      <trkpt lat="45.19828" lon="5.7339">
        <ele>167.428</ele>
        <time>2021-03-06T05:00:00Z</time>
      </trkpt>
      <trkpt lat="45.19817" lon="5.73389">
        <ele>167.47</ele>
        <time>2021-03-06T05:00:04Z</time>
      </trkpt>
      <trkpt lat="45.19799" lon="5.73385">
        <ele>167.884</ele>
        <time>2021-03-06T05:00:10Z</time>
      </trkpt>
      <trkpt lat="45.19779" lon="5.73383">
        <ele>168.078</ele>
        <time>2021-03-06T05:00:16Z</time>
      </trkpt>
      <trkpt lat="45.19761" lon="5.73376">
        <ele>167.843</ele>
        <time>2021-03-06T05:00:23Z</time>
      </trkpt>
      <trkpt lat="45.19745" lon="5.73371">
        <ele>169.168</ele>
        <time>2021-03-06T05:00:32Z</time>
      </trkpt>
      <trkpt lat="45.19736" lon="5.73367">
        <ele>170.079</ele>
        <time>2021-03-06T05:00:36Z</time>
      </trkpt>
      <trkpt lat="45.19734" lon="5.73354">
        <ele>170.738</ele>
        <time>2021-03-06T05:00:41Z</time>
      </trkpt>
      <trkpt lat="45.19735" lon="5.73351">
        <ele>170.673</ele>
        <time>2021-03-06T05:00:42Z</time>
      </trkpt>
      <trkpt lat="45.19744" lon="5.73325">
        <ele>170.918</ele>
        <time>2021-03-06T05:00:51Z</time>
      </trkpt>
      <trkpt lat="45.1975" lon="5.73299">
        <ele>171.867</ele>
        <time>2021-03-06T05:00:59Z</time>
      </trkpt>
      <trkpt lat="45.19758" lon="5.7327">
        <ele>171.619</ele>
        <time>2021-03-06T05:01:07Z</time>
      </trkpt>
      <trkpt lat="45.19767" lon="5.73246">
        <ele>169.633</ele>
        <time>2021-03-06T05:01:14Z</time>
      </trkpt>
      <trkpt lat="45.1977" lon="5.73231">
        <ele>171.216</ele>
        <time>2021-03-06T05:01:18Z</time>
      </trkpt>
      <trkpt lat="45.19776" lon="5.73208">
        <ele>170.586</ele>
        <time>2021-03-06T05:01:25Z</time>
      </trkpt>
      <trkpt lat="45.19775" lon="5.73183">
        <ele>170.548</ele>
        <time>2021-03-06T05:01:33Z</time>
      </trkpt>
      <trkpt lat="45.19769" lon="5.73183">
        <ele>170.743</ele>
        <time>2021-03-06T05:01:38Z</time>
      </trkpt>
      <trkpt lat="45.19766" lon="5.73185">
        <ele>172.809</ele>
        <time>2021-03-06T05:01:42Z</time>
      </trkpt>
      <trkpt lat="45.19774" lon="5.73168">
        <ele>175.388</ele>
        <time>2021-03-06T05:01:49Z</time>
      </trkpt>
      <trkpt lat="45.19774" lon="5.73165">
        <ele>175.637</ele>
        <time>2021-03-06T05:01:51Z</time>
      </trkpt>
      <trkpt lat="45.19786" lon="5.73144">
        <ele>177.362</ele>
        <time>2021-03-06T05:01:56Z</time>
      </trkpt>
      <trkpt lat="45.19791" lon="5.73143">
        <ele>178.798</ele>
        <time>2021-03-06T05:02:01Z</time>
      </trkpt>
      <trkpt lat="45.19777" lon="5.73155">
        <ele>180.13</ele>
        <time>2021-03-06T05:02:05Z</time>
      </trkpt>
      <trkpt lat="45.19771" lon="5.7316">
        <ele>181.401</ele>
        <time>2021-03-06T05:02:10Z</time>
      </trkpt>
      <trkpt lat="45.19773" lon="5.73155">
        <ele>183.088</ele>
        <time>2021-03-06T05:02:16Z</time>
      </trkpt>
      <trkpt lat="45.19778" lon="5.73137">
        <ele>184.294</ele>
        <time>2021-03-06T05:02:20Z</time>
      </trkpt>
      <trkpt lat="45.19759" lon="5.73101">
        <ele>186.297</ele>
        <time>2021-03-06T05:02:28Z</time>
      </trkpt>
      <trkpt lat="45.1977" lon="5.73092">
        <ele>187.327</ele>
        <time>2021-03-06T05:02:35Z</time>
      </trkpt>
      <trkpt lat="45.19786" lon="5.73092">
        <ele>188.862</ele>
        <time>2021-03-06T05:02:42Z</time>
      </trkpt>
      <trkpt lat="45.19795" lon="5.73096">
        <ele>191.014</ele>
        <time>2021-03-06T05:02:49Z</time>
      </trkpt>
      <trkpt lat="45.198" lon="5.73094">
        <ele>191.296</ele>
        <time>2021-03-06T05:02:54Z</time>
      </trkpt>
      <trkpt lat="45.19787" lon="5.73094">
        <ele>193.124</ele>
        <time>2021-03-06T05:03:02Z</time>
      </trkpt>
      <trkpt lat="45.19773" lon="5.73092">
        <ele>194.31</ele>
        <time>2021-03-06T05:03:10Z</time>
      </trkpt>
      <trkpt lat="45.19773" lon="5.7309">
        <ele>194.261</ele>
        <time>2021-03-06T05:03:11Z</time>
      </trkpt>
      <trkpt lat="45.19766" lon="5.73088">
        <ele>195.554</ele>
        <time>2021-03-06T05:03:15Z</time>
      </trkpt>
      <trkpt lat="45.19754" lon="5.73084">
        <ele>197.367</ele>
        <time>2021-03-06T05:03:21Z</time>
      </trkpt>
      <trkpt lat="45.19748" lon="5.73082">
        <ele>197.802</ele>
        <time>2021-03-06T05:03:24Z</time>
      </trkpt>
      <trkpt lat="45.19747" lon="5.73077">
        <ele>198.784</ele>
        <time>2021-03-06T05:03:26Z</time>
      </trkpt>
      <trkpt lat="45.19745" lon="5.73069">
        <ele>199.162</ele>
        <time>2021-03-06T05:03:30Z</time>
      </trkpt>
      <trkpt lat="45.19755" lon="5.73065">
        <ele>200.541</ele>
        <time>2021-03-06T05:03:34Z</time>
      </trkpt>
      <trkpt lat="45.19773" lon="5.73057">
        <ele>202.507</ele>
        <time>2021-03-06T05:03:41Z</time>
      </trkpt>
      <trkpt lat="45.1978" lon="5.73056">
        <ele>204.095</ele>
        <time>2021-03-06T05:03:46Z</time>
      </trkpt>
      <trkpt lat="45.1979" lon="5.73061">
        <ele>205.554</ele>
        <time>2021-03-06T05:03:53Z</time>
      </trkpt>
      <trkpt lat="45.19792" lon="5.73062">
        <ele>206.169</ele>
        <time>2021-03-06T05:03:55Z</time>
      </trkpt>
      <trkpt lat="45.19793" lon="5.73062">
        <ele>206.431</ele>
        <time>2021-03-06T05:03:57Z</time>
      </trkpt>
      <trkpt lat="45.19782" lon="5.7307">
        <ele>206.308</ele>
        <time>2021-03-06T05:04:01Z</time>
      </trkpt>
      <trkpt lat="45.19767" lon="5.73073">
        <ele>208.573</ele>
        <time>2021-03-06T05:04:08Z</time>
      </trkpt>
      <trkpt lat="45.19762" lon="5.73071">
        <ele>208.831</ele>
        <time>2021-03-06T05:04:11Z</time>
      </trkpt>
      <trkpt lat="45.19753" lon="5.73057">
        <ele>211.103</ele>
        <time>2021-03-06T05:04:20Z</time>
      </trkpt>
      <trkpt lat="45.19748" lon="5.73046">
        <ele>212.183</ele>
        <time>2021-03-06T05:04:26Z</time>
      </trkpt>
      <trkpt lat="45.19759" lon="5.73039">
        <ele>214.248</ele>
        <time>2021-03-06T05:04:33Z</time>
      </trkpt>
      <trkpt lat="45.19773" lon="5.73039">
        <ele>216.115</ele>
        <time>2021-03-06T05:04:40Z</time>
      </trkpt>
      <trkpt lat="45.19777" lon="5.73039">
        <ele>216.751</ele>
        <time>2021-03-06T05:04:43Z</time>
      </trkpt>
      <trkpt lat="45.19783" lon="5.7304">
        <ele>218.178</ele>
        <time>2021-03-06T05:04:46Z</time>
      </trkpt>
      <trkpt lat="45.19797" lon="5.73042">
        <ele>219.91</ele>
        <time>2021-03-06T05:04:52Z</time>
      </trkpt>
      <trkpt lat="45.19801" lon="5.73043">
        <ele>220.063</ele>
        <time>2021-03-06T05:04:55Z</time>
      </trkpt>
      <trkpt lat="45.19801" lon="5.73045">
        <ele>220.976</ele>
        <time>2021-03-06T05:04:59Z</time>
      </trkpt>
      <trkpt lat="45.19785" lon="5.73047">
        <ele>222.217</ele>
        <time>2021-03-06T05:05:06Z</time>
      </trkpt>
      <trkpt lat="45.19773" lon="5.73039">
        <ele>223.664</ele>
        <time>2021-03-06T05:05:13Z</time>
      </trkpt>
      <trkpt lat="45.19768" lon="5.73036">
        <ele>225.348</ele>
        <time>2021-03-06T05:05:16Z</time>
      </trkpt>
      <trkpt lat="45.19759" lon="5.73022">
        <ele>226.733</ele>
        <time>2021-03-06T05:05:24Z</time>
      </trkpt>
      <trkpt lat="45.1976" lon="5.7302">
        <ele>226.856</ele>
        <time>2021-03-06T05:05:25Z</time>
      </trkpt>
      <trkpt lat="45.1977" lon="5.73016">
        <ele>228.121</ele>
        <time>2021-03-06T05:05:31Z</time>
      </trkpt>
      <trkpt lat="45.19782" lon="5.73016">
        <ele>230.051</ele>
        <time>2021-03-06T05:05:36Z</time>
      </trkpt>
      <trkpt lat="45.19792" lon="5.73018">
        <ele>231.079</ele>
        <time>2021-03-06T05:05:43Z</time>
      </trkpt>
      <trkpt lat="45.19804" lon="5.73019">
        <ele>232.299</ele>
        <time>2021-03-06T05:05:49Z</time>
      </trkpt>
      <trkpt lat="45.19807" lon="5.73021">
        <ele>233.583</ele>
        <time>2021-03-06T05:05:52Z</time>
      </trkpt>
      <trkpt lat="45.19788" lon="5.73026">
        <ele>234.693</ele>
        <time>2021-03-06T05:06:00Z</time>
      </trkpt>
      <trkpt lat="45.1978" lon="5.73016">
        <ele>236.277</ele>
        <time>2021-03-06T05:06:07Z</time>
      </trkpt>
      <trkpt lat="45.19773" lon="5.7301">
        <ele>237.475</ele>
        <time>2021-03-06T05:06:12Z</time>
      </trkpt>
      <trkpt lat="45.19762" lon="5.72998">
        <ele>239.223</ele>
        <time>2021-03-06T05:06:20Z</time>
      </trkpt>
      <trkpt lat="45.19757" lon="5.72998">
        <ele>239.62</ele>
        <time>2021-03-06T05:06:22Z</time>
      </trkpt>
      <trkpt lat="45.1975" lon="5.72993">
        <ele>241.482</ele>
        <time>2021-03-06T05:06:26Z</time>
      </trkpt>
      <trkpt lat="45.19737" lon="5.72977">
        <ele>242.571</ele>
        <time>2021-03-06T05:06:35Z</time>
      </trkpt>
      <trkpt lat="45.19737" lon="5.7297">
        <ele>243.43</ele>
        <time>2021-03-06T05:06:37Z</time>
      </trkpt>
      <trkpt lat="45.19732" lon="5.72945">
        <ele>245.837</ele>
        <time>2021-03-06T05:06:46Z</time>
      </trkpt>
      <trkpt lat="45.19727" lon="5.72936">
        <ele>246.108</ele>
        <time>2021-03-06T05:06:51Z</time>
      </trkpt>
      <trkpt lat="45.19716" lon="5.72929">
        <ele>247.483</ele>
        <time>2021-03-06T05:06:57Z</time>
      </trkpt>
      <trkpt lat="45.19706" lon="5.72912">
        <ele>249.565</ele>
        <time>2021-03-06T05:07:05Z</time>
      </trkpt>
      <trkpt lat="45.19697" lon="5.72894">
        <ele>252.59</ele>
        <time>2021-03-06T05:07:14Z</time>
      </trkpt>
      <trkpt lat="45.1969" lon="5.72885">
        <ele>253.247</ele>
        <time>2021-03-06T05:07:19Z</time>
      </trkpt>
      <trkpt lat="45.19688" lon="5.72874">
        <ele>254.743</ele>
        <time>2021-03-06T05:07:23Z</time>
      </trkpt>
      <trkpt lat="45.19687" lon="5.72865">
        <ele>254.998</ele>
        <time>2021-03-06T05:07:26Z</time>
      </trkpt>
      <trkpt lat="45.19698" lon="5.72855">
        <ele>255.234</ele>
        <time>2021-03-06T05:07:31Z</time>
      </trkpt>
      <trkpt lat="45.19704" lon="5.72857">
        <ele>256.487</ele>
        <time>2021-03-06T05:07:35Z</time>
      </trkpt>
      <trkpt lat="45.1971" lon="5.72865">
        <ele>257.863</ele>
        <time>2021-03-06T05:07:41Z</time>
      </trkpt>
      <trkpt lat="45.19715" lon="5.72868">
        <ele>258.85</ele>
        <time>2021-03-06T05:07:45Z</time>
      </trkpt>
      <trkpt lat="45.19727" lon="5.72878">
        <ele>260.68</ele>
        <time>2021-03-06T05:07:53Z</time>
      </trkpt>
      <trkpt lat="45.19734" lon="5.72887">
        <ele>261.615</ele>
        <time>2021-03-06T05:07:59Z</time>
      </trkpt>
      <trkpt lat="45.1974" lon="5.72888">
        <ele>262.876</ele>
        <time>2021-03-06T05:08:02Z</time>
      </trkpt>
      <trkpt lat="45.19742" lon="5.72892">
        <ele>263.425</ele>
        <time>2021-03-06T05:08:04Z</time>
      </trkpt>
      <trkpt lat="45.1975" lon="5.72898">
        <ele>265.324</ele>
        <time>2021-03-06T05:08:09Z</time>
      </trkpt>
      <trkpt lat="45.19765" lon="5.72906">
        <ele>266.986</ele>
        <time>2021-03-06T05:08:17Z</time>
      </trkpt>
      <trkpt lat="45.19769" lon="5.7291">
        <ele>267.463</ele>
        <time>2021-03-06T05:08:20Z</time>
      </trkpt>
      <trkpt lat="45.19776" lon="5.7291">
        <ele>268.117</ele>
        <time>2021-03-06T05:08:24Z</time>
      </trkpt>
      <trkpt lat="45.19786" lon="5.72915">
        <ele>269.203</ele>
        <time>2021-03-06T05:08:30Z</time>
      </trkpt>
      <trkpt lat="45.19791" lon="5.7292">
        <ele>271.23</ele>
        <time>2021-03-06T05:08:35Z</time>
      </trkpt>
      <trkpt lat="45.19789" lon="5.72922">
        <ele>271.151</ele>
        <time>2021-03-06T05:08:36Z</time>
      </trkpt>
      <trkpt lat="45.19779" lon="5.72928">
        <ele>272.886</ele>
        <time>2021-03-06T05:08:42Z</time>
      </trkpt>
      <trkpt lat="45.19776" lon="5.72924">
        <ele>273.523</ele>
        <time>2021-03-06T05:08:45Z</time>
      </trkpt>
      <trkpt lat="45.19778" lon="5.72916">
        <ele>273.82</ele>
        <time>2021-03-06T05:08:47Z</time>
      </trkpt>
      <trkpt lat="45.19777" lon="5.72907">
        <ele>274.921</ele>
        <time>2021-03-06T05:08:51Z</time>
      </trkpt>
      <trkpt lat="45.19766" lon="5.729">
        <ele>275.37</ele>
        <time>2021-03-06T05:08:57Z</time>
      </trkpt>
      <trkpt lat="45.19758" lon="5.72893">
        <ele>277.209</ele>
        <time>2021-03-06T05:09:02Z</time>
      </trkpt>
      <trkpt lat="45.19756" lon="5.72892">
        <ele>276.865</ele>
        <time>2021-03-06T05:09:03Z</time>
      </trkpt>
      <trkpt lat="45.1975" lon="5.72874">
        <ele>279.418</ele>
        <time>2021-03-06T05:09:10Z</time>
      </trkpt>
      <trkpt lat="45.1974" lon="5.72869">
        <ele>280.451</ele>
        <time>2021-03-06T05:09:15Z</time>
      </trkpt>
      <trkpt lat="45.19739" lon="5.72853">
        <ele>281.957</ele>
        <time>2021-03-06T05:09:22Z</time>
      </trkpt>
      <trkpt lat="45.19744" lon="5.72855">
        <ele>282.775</ele>
        <time>2021-03-06T05:09:26Z</time>
      </trkpt>
      <trkpt lat="45.19748" lon="5.72855">
        <ele>283.498</ele>
        <time>2021-03-06T05:09:28Z</time>
      </trkpt>
      <trkpt lat="45.19758" lon="5.72854">
        <ele>284.994</ele>
        <time>2021-03-06T05:09:34Z</time>
      </trkpt>
      <trkpt lat="45.19771" lon="5.72862">
        <ele>285.934</ele>
        <time>2021-03-06T05:09:40Z</time>
      </trkpt>
      <trkpt lat="45.19783" lon="5.72869">
        <ele>287.152</ele>
        <time>2021-03-06T05:09:46Z</time>
      </trkpt>
      <trkpt lat="45.19798" lon="5.72874">
        <ele>289.649</ele>
        <time>2021-03-06T05:09:52Z</time>
      </trkpt>
      <trkpt lat="45.19805" lon="5.72877">
        <ele>291.03</ele>
        <time>2021-03-06T05:09:56Z</time>
      </trkpt>
      <trkpt lat="45.19806" lon="5.72881">
        <ele>290.927</ele>
        <time>2021-03-06T05:10:00Z</time>
      </trkpt>
      <trkpt lat="45.19792" lon="5.72884">
        <ele>293.494</ele>
        <time>2021-03-06T05:10:07Z</time>
      </trkpt>
      <trkpt lat="45.1978" lon="5.72864">
        <ele>296.349</ele>
        <time>2021-03-06T05:10:17Z</time>
      </trkpt>
      <trkpt lat="45.19767" lon="5.72856">
        <ele>298.139</ele>
        <time>2021-03-06T05:10:24Z</time>
      </trkpt>
      <trkpt lat="45.19759" lon="5.72848">
        <ele>299.97</ele>
        <time>2021-03-06T05:10:30Z</time>
      </trkpt>
      <trkpt lat="45.19752" lon="5.72837">
        <ele>301.884</ele>
        <time>2021-03-06T05:10:35Z</time>
      </trkpt>
      <trkpt lat="45.19749" lon="5.72823">
        <ele>302.979</ele>
        <time>2021-03-06T05:10:40Z</time>
      </trkpt>
      <trkpt lat="45.19753" lon="5.72809">
        <ele>302.629</ele>
        <time>2021-03-06T05:10:44Z</time>
      </trkpt>
      <trkpt lat="45.19755" lon="5.72809">
        <ele>303.838</ele>
        <time>2021-03-06T05:10:46Z</time>
      </trkpt>
      <trkpt lat="45.19755" lon="5.72815">
        <ele>304.573</ele>
        <time>2021-03-06T05:10:48Z</time>
      </trkpt>
      <trkpt lat="45.19764" lon="5.72817">
        <ele>305.467</ele>
        <time>2021-03-06T05:10:53Z</time>
      </trkpt>
      <trkpt lat="45.19777" lon="5.72822">
        <ele>307.113</ele>
        <time>2021-03-06T05:11:00Z</time>
      </trkpt>
      <trkpt lat="45.19787" lon="5.72828">
        <ele>308.691</ele>
        <time>2021-03-06T05:11:07Z</time>
      </trkpt>
      <trkpt lat="45.19799" lon="5.72836">
        <ele>310.475</ele>
        <time>2021-03-06T05:11:14Z</time>
      </trkpt>
      <trkpt lat="45.19811" lon="5.7284">
        <ele>312.445</ele>
        <time>2021-03-06T05:11:21Z</time>
      </trkpt>
      <trkpt lat="45.19817" lon="5.72844">
        <ele>313.141</ele>
        <time>2021-03-06T05:11:25Z</time>
      </trkpt>
      <trkpt lat="45.19819" lon="5.72843">
        <ele>312.104</ele>
        <time>2021-03-06T05:11:27Z</time>
      </trkpt>
      <trkpt lat="45.19806" lon="5.72846">
        <ele>313.664</ele>
        <time>2021-03-06T05:11:33Z</time>
      </trkpt>
      <trkpt lat="45.19794" lon="5.7285">
        <ele>315.321</ele>
        <time>2021-03-06T05:11:37Z</time>
      </trkpt>
      <trkpt lat="45.19787" lon="5.7284">
        <ele>315.39</ele>
        <time>2021-03-06T05:11:43Z</time>
      </trkpt>
      <trkpt lat="45.19784" lon="5.72823">
        <ele>316.775</ele>
        <time>2021-03-06T05:11:49Z</time>
      </trkpt>
      <trkpt lat="45.19785" lon="5.7282">
        <ele>316.986</ele>
        <time>2021-03-06T05:11:50Z</time>
      </trkpt>
      <trkpt lat="45.19795" lon="5.72817">
        <ele>317.142</ele>
        <time>2021-03-06T05:11:54Z</time>
      </trkpt>
      <trkpt lat="45.19808" lon="5.72825">
        <ele>319.335</ele>
        <time>2021-03-06T05:12:01Z</time>
      </trkpt>
      <trkpt lat="45.19817" lon="5.72825">
        <ele>320.047</ele>
        <time>2021-03-06T05:12:05Z</time>
      </trkpt>
      <trkpt lat="45.19825" lon="5.7283">
        <ele>320.863</ele>
        <time>2021-03-06T05:12:10Z</time>
      </trkpt>
      <trkpt lat="45.19832" lon="5.72831">
        <ele>324.247</ele>
        <time>2021-03-06T05:12:17Z</time>
      </trkpt>
      <trkpt lat="45.19817" lon="5.7283">
        <ele>325.518</ele>
        <time>2021-03-06T05:12:25Z</time>
      </trkpt>
      <trkpt lat="45.19814" lon="5.72821">
        <ele>326.194</ele>
        <time>2021-03-06T05:12:29Z</time>
      </trkpt>
      <trkpt lat="45.19815" lon="5.72817">
        <ele>325.747</ele>
        <time>2021-03-06T05:12:31Z</time>
      </trkpt>
      <trkpt lat="45.19824" lon="5.72822">
        <ele>327.859</ele>
        <time>2021-03-06T05:12:37Z</time>
      </trkpt>
      <trkpt lat="45.19836" lon="5.72826">
        <ele>327.703</ele>
        <time>2021-03-06T05:12:44Z</time>
      </trkpt>
      <trkpt lat="45.19842" lon="5.7283">
        <ele>330.222</ele>
        <time>2021-03-06T05:12:49Z</time>
      </trkpt>
      <trkpt lat="45.19842" lon="5.72831">
        <ele>330.222</ele>
        <time>2021-03-06T05:12:51Z</time>
      </trkpt>
      <trkpt lat="45.19829" lon="5.72824">
        <ele>332.569</ele>
        <time>2021-03-06T05:12:59Z</time>
      </trkpt>
      <trkpt lat="45.19827" lon="5.72822">
        <ele>332.978</ele>
        <time>2021-03-06T05:13:01Z</time>
      </trkpt>
      <trkpt lat="45.19815" lon="5.72809">
        <ele>334.266</ele>
        <time>2021-03-06T05:13:10Z</time>
      </trkpt>
      <trkpt lat="45.19807" lon="5.728">
        <ele>335.657</ele>
        <time>2021-03-06T05:13:16Z</time>
      </trkpt>
      <trkpt lat="45.19793" lon="5.72798">
        <ele>336.573</ele>
        <time>2021-03-06T05:13:22Z</time>
      </trkpt>
      <trkpt lat="45.19793" lon="5.72796">
        <ele>337.3</ele>
        <time>2021-03-06T05:13:23Z</time>
      </trkpt>
      <trkpt lat="45.198" lon="5.72779">
        <ele>338.282</ele>
        <time>2021-03-06T05:13:28Z</time>
      </trkpt>
      <trkpt lat="45.19804" lon="5.72778">
        <ele>339.845</ele>
        <time>2021-03-06T05:13:30Z</time>
      </trkpt>
      <trkpt lat="45.19805" lon="5.72779">
        <ele>339.196</ele>
        <time>2021-03-06T05:13:31Z</time>
      </trkpt>
      <trkpt lat="45.19813" lon="5.72789">
        <ele>342.16</ele>
        <time>2021-03-06T05:13:38Z</time>
      </trkpt>
      <trkpt lat="45.19817" lon="5.72792">
        <ele>343.547</ele>
        <time>2021-03-06T05:13:40Z</time>
      </trkpt>
      <trkpt lat="45.19827" lon="5.72797">
        <ele>344.311</ele>
        <time>2021-03-06T05:13:47Z</time>
      </trkpt>
      <trkpt lat="45.19838" lon="5.72802">
        <ele>346.091</ele>
        <time>2021-03-06T05:13:53Z</time>
      </trkpt>
      <trkpt lat="45.19839" lon="5.72797">
        <ele>347.06</ele>
        <time>2021-03-06T05:13:58Z</time>
      </trkpt>
      <trkpt lat="45.19837" lon="5.72799">
        <ele>347.616</ele>
        <time>2021-03-06T05:13:59Z</time>
      </trkpt>
      <trkpt lat="45.19822" lon="5.72798">
        <ele>348.351</ele>
        <time>2021-03-06T05:14:06Z</time>
      </trkpt>
      <trkpt lat="45.19815" lon="5.72786">
        <ele>350.477</ele>
        <time>2021-03-06T05:14:13Z</time>
      </trkpt>
      <trkpt lat="45.19808" lon="5.72771">
        <ele>352.149</ele>
        <time>2021-03-06T05:14:20Z</time>
      </trkpt>
      <trkpt lat="45.19799" lon="5.72757">
        <ele>353.41</ele>
        <time>2021-03-06T05:14:28Z</time>
      </trkpt>
      <trkpt lat="45.19799" lon="5.72755">
        <ele>353.922</ele>
        <time>2021-03-06T05:14:29Z</time>
      </trkpt>
      <trkpt lat="45.19787" lon="5.72748">
        <ele>355.342</ele>
        <time>2021-03-06T05:14:36Z</time>
      </trkpt>
      <trkpt lat="45.19785" lon="5.72745">
        <ele>355.819</ele>
        <time>2021-03-06T05:14:39Z</time>
      </trkpt>
      <trkpt lat="45.19794" lon="5.72744">
        <ele>356.756</ele>
        <time>2021-03-06T05:14:45Z</time>
      </trkpt>
      <trkpt lat="45.198" lon="5.72744">
        <ele>357.158</ele>
        <time>2021-03-06T05:14:48Z</time>
      </trkpt>
      <trkpt lat="45.19807" lon="5.72753">
        <ele>358.169</ele>
        <time>2021-03-06T05:14:53Z</time>
      </trkpt>
      <trkpt lat="45.19814" lon="5.72757">
        <ele>358.748</ele>
        <time>2021-03-06T05:14:57Z</time>
      </trkpt>
      <trkpt lat="45.19828" lon="5.72764">
        <ele>360.247</ele>
        <time>2021-03-06T05:15:04Z</time>
      </trkpt>
      <trkpt lat="45.19837" lon="5.72771">
        <ele>361.249</ele>
        <time>2021-03-06T05:15:10Z</time>
      </trkpt>
      <trkpt lat="45.19848" lon="5.72775">
        <ele>363.088</ele>
        <time>2021-03-06T05:15:16Z</time>
      </trkpt>
      <trkpt lat="45.19848" lon="5.72777">
        <ele>363.51</ele>
        <time>2021-03-06T05:15:19Z</time>
      </trkpt>
      <trkpt lat="45.19847" lon="5.72773">
        <ele>364.784</ele>
        <time>2021-03-06T05:15:22Z</time>
      </trkpt>
      <trkpt lat="45.19847" lon="5.72767">
        <ele>365.043</ele>
        <time>2021-03-06T05:15:28Z</time>
      </trkpt>
      <trkpt lat="45.19855" lon="5.72763">
        <ele>367.993</ele>
        <time>2021-03-06T05:15:34Z</time>
      </trkpt>
      <trkpt lat="45.19862" lon="5.72764">
        <ele>369.719</ele>
        <time>2021-03-06T05:15:40Z</time>
      </trkpt>
      <trkpt lat="45.19864" lon="5.72758">
        <ele>371.335</ele>
        <time>2021-03-06T05:15:43Z</time>
      </trkpt>
      <trkpt lat="45.19871" lon="5.72745">
        <ele>374.466</ele>
        <time>2021-03-06T05:15:51Z</time>
      </trkpt>
      <trkpt lat="45.19877" lon="5.72736">
        <ele>377.975</ele>
        <time>2021-03-06T05:15:57Z</time>
      </trkpt>
      <trkpt lat="45.19878" lon="5.72734">
        <ele>378.193</ele>
        <time>2021-03-06T05:15:58Z</time>
      </trkpt>
      <trkpt lat="45.1988" lon="5.72731">
        <ele>379.259</ele>
        <time>2021-03-06T05:16:00Z</time>
      </trkpt>
      <trkpt lat="45.19885" lon="5.72722">
        <ele>382.507</ele>
        <time>2021-03-06T05:16:06Z</time>
      </trkpt>
      <trkpt lat="45.19872" lon="5.72742">
        <ele>384.374</ele>
        <time>2021-03-06T05:16:17Z</time>
      </trkpt>
      <trkpt lat="45.19863" lon="5.72754">
        <ele>387.006</ele>
        <time>2021-03-06T05:16:23Z</time>
      </trkpt>
      <trkpt lat="45.19864" lon="5.72754">
        <ele>389.677</ele>
        <time>2021-03-06T05:16:31Z</time>
      </trkpt>
      <trkpt lat="45.19863" lon="5.72745">
        <ele>389.798</ele>
        <time>2021-03-06T05:16:35Z</time>
      </trkpt>
      <trkpt lat="45.19863" lon="5.72743">
        <ele>390.027</ele>
        <time>2021-03-06T05:16:39Z</time>
      </trkpt>
      <trkpt lat="45.19855" lon="5.72753">
        <ele>392.388</ele>
        <time>2021-03-06T05:16:46Z</time>
      </trkpt>
      <trkpt lat="45.1986" lon="5.72757">
        <ele>395.125</ele>
        <time>2021-03-06T05:16:54Z</time>
      </trkpt>
      <trkpt lat="45.19861" lon="5.72758">
        <ele>395.56</ele>
        <time>2021-03-06T05:16:56Z</time>
      </trkpt>
      <trkpt lat="45.19832" lon="5.72745">
        <ele>395.336</ele>
        <time>2021-03-06T05:17:01Z</time>
      </trkpt>
      <trkpt lat="45.19831" lon="5.7274">
        <ele>395.166</ele>
        <time>2021-03-06T05:17:03Z</time>
      </trkpt>
      <trkpt lat="45.1982" lon="5.72718">
        <ele>395.215</ele>
        <time>2021-03-06T05:17:12Z</time>
      </trkpt>
      <trkpt lat="45.19807" lon="5.72707">
        <ele>395.729</ele>
        <time>2021-03-06T05:17:19Z</time>
      </trkpt>
      <trkpt lat="45.19797" lon="5.72696">
        <ele>394.956</ele>
        <time>2021-03-06T05:17:25Z</time>
      </trkpt>
      <trkpt lat="45.19793" lon="5.72692">
        <ele>395.17</ele>
        <time>2021-03-06T05:17:27Z</time>
      </trkpt>
      <trkpt lat="45.19775" lon="5.72672">
        <ele>395.204</ele>
        <time>2021-03-06T05:17:36Z</time>
      </trkpt>
      <trkpt lat="45.19764" lon="5.72658">
        <ele>394.958</ele>
        <time>2021-03-06T05:17:42Z</time>
      </trkpt>
      <trkpt lat="45.19753" lon="5.72643">
        <ele>395.425</ele>
        <time>2021-03-06T05:17:48Z</time>
      </trkpt>
      <trkpt lat="45.19745" lon="5.72632">
        <ele>395.389</ele>
        <time>2021-03-06T05:17:53Z</time>
      </trkpt>
      <trkpt lat="45.19739" lon="5.72618">
        <ele>395.683</ele>
        <time>2021-03-06T05:17:59Z</time>
      </trkpt>
      <trkpt lat="45.1974" lon="5.72589">
        <ele>395.093</ele>
        <time>2021-03-06T05:18:07Z</time>
      </trkpt>
      <trkpt lat="45.1974" lon="5.72571">
        <ele>395.378</ele>
        <time>2021-03-06T05:18:12Z</time>
      </trkpt>
      <trkpt lat="45.19742" lon="5.72544">
        <ele>395.387</ele>
        <time>2021-03-06T05:18:19Z</time>
      </trkpt>
      <trkpt lat="45.1974" lon="5.72536">
        <ele>395.701</ele>
        <time>2021-03-06T05:18:22Z</time>
      </trkpt>
      <trkpt lat="45.19731" lon="5.7252">
        <ele>395.798</ele>
        <time>2021-03-06T05:18:29Z</time>
      </trkpt>
      <trkpt lat="45.19739" lon="5.72511">
        <ele>395.591</ele>
        <time>2021-03-06T05:18:33Z</time>
      </trkpt>
      <trkpt lat="45.19749" lon="5.72506">
        <ele>396.471</ele>
        <time>2021-03-06T05:18:38Z</time>
      </trkpt>
      <trkpt lat="45.19753" lon="5.72496">
        <ele>395.394</ele>
        <time>2021-03-06T05:18:41Z</time>
      </trkpt>
      <trkpt lat="45.19769" lon="5.72468">
        <ele>396.15</ele>
        <time>2021-03-06T05:18:50Z</time>
      </trkpt>
      <trkpt lat="45.19778" lon="5.72449">
        <ele>396.291</ele>
        <time>2021-03-06T05:18:56Z</time>
      </trkpt>
      <trkpt lat="45.19781" lon="5.72444">
        <ele>396.15</ele>
        <time>2021-03-06T05:18:58Z</time>
      </trkpt>
      <trkpt lat="45.19791" lon="5.72449">
        <ele>395.873</ele>
        <time>2021-03-06T05:19:03Z</time>
      </trkpt>
      <trkpt lat="45.1979" lon="5.72462">
        <ele>396.598</ele>
        <time>2021-03-06T05:19:07Z</time>
      </trkpt>
      <trkpt lat="45.19783" lon="5.72487">
        <ele>397.092</ele>
        <time>2021-03-06T05:19:15Z</time>
      </trkpt>
      <trkpt lat="45.19777" lon="5.72505">
        <ele>398.64</ele>
        <time>2021-03-06T05:19:22Z</time>
      </trkpt>
      <trkpt lat="45.19768" lon="5.72519">
        <ele>399.026</ele>
        <time>2021-03-06T05:19:28Z</time>
      </trkpt>
      <trkpt lat="45.19765" lon="5.72526">
        <ele>399.684</ele>
        <time>2021-03-06T05:19:31Z</time>
      </trkpt>
      <trkpt lat="45.19764" lon="5.72537">
        <ele>400.196</ele>
        <time>2021-03-06T05:19:35Z</time>
      </trkpt>
      <trkpt lat="45.19763" lon="5.72552">
        <ele>401.645</ele>
        <time>2021-03-06T05:19:41Z</time>
      </trkpt>
      <trkpt lat="45.19764" lon="5.72568">
        <ele>403.246</ele>
        <time>2021-03-06T05:19:47Z</time>
      </trkpt>
      <trkpt lat="45.19765" lon="5.72572">
        <ele>404.296</ele>
        <time>2021-03-06T05:19:49Z</time>
      </trkpt>
      <trkpt lat="45.19771" lon="5.72579">
        <ele>405.259</ele>
        <time>2021-03-06T05:19:54Z</time>
      </trkpt>
      <trkpt lat="45.19773" lon="5.72574">
        <ele>407.172</ele>
        <time>2021-03-06T05:19:58Z</time>
      </trkpt>
      <trkpt lat="45.19776" lon="5.72555">
        <ele>407.33</ele>
        <time>2021-03-06T05:20:05Z</time>
      </trkpt>
      <trkpt lat="45.1978" lon="5.72541">
        <ele>408.991</ele>
        <time>2021-03-06T05:20:12Z</time>
      </trkpt>
      <trkpt lat="45.19784" lon="5.72529">
        <ele>410.492</ele>
        <time>2021-03-06T05:20:17Z</time>
      </trkpt>
      <trkpt lat="45.19788" lon="5.72531">
        <ele>411.389</ele>
        <time>2021-03-06T05:20:20Z</time>
      </trkpt>
      <trkpt lat="45.19786" lon="5.72551">
        <ele>412.191</ele>
        <time>2021-03-06T05:20:28Z</time>
      </trkpt>
      <trkpt lat="45.19786" lon="5.72553">
        <ele>412.648</ele>
        <time>2021-03-06T05:20:29Z</time>
      </trkpt>
      <trkpt lat="45.19784" lon="5.72564">
        <ele>414.567</ele>
        <time>2021-03-06T05:20:33Z</time>
      </trkpt>
      <trkpt lat="45.19784" lon="5.72585">
        <ele>415.529</ele>
        <time>2021-03-06T05:20:41Z</time>
      </trkpt>
      <trkpt lat="45.19784" lon="5.72601">
        <ele>416.693</ele>
        <time>2021-03-06T05:20:47Z</time>
      </trkpt>
      <trkpt lat="45.19788" lon="5.72618">
        <ele>418.793</ele>
        <time>2021-03-06T05:20:54Z</time>
      </trkpt>
      <trkpt lat="45.19798" lon="5.7263">
        <ele>419.827</ele>
        <time>2021-03-06T05:21:00Z</time>
      </trkpt>
      <trkpt lat="45.19807" lon="5.72638">
        <ele>420.535</ele>
        <time>2021-03-06T05:21:06Z</time>
      </trkpt>
      <trkpt lat="45.19814" lon="5.72643">
        <ele>421.326</ele>
        <time>2021-03-06T05:21:11Z</time>
      </trkpt>
      <trkpt lat="45.19825" lon="5.72651">
        <ele>422.574</ele>
        <time>2021-03-06T05:21:17Z</time>
      </trkpt>
      <trkpt lat="45.19826" lon="5.72655">
        <ele>422.857</ele>
        <time>2021-03-06T05:21:19Z</time>
      </trkpt>
      <trkpt lat="45.19837" lon="5.72662">
        <ele>423.887</ele>
        <time>2021-03-06T05:21:24Z</time>
      </trkpt>
      <trkpt lat="45.19841" lon="5.72665">
        <ele>424.482</ele>
        <time>2021-03-06T05:21:26Z</time>
      </trkpt>
      <trkpt lat="45.19849" lon="5.72679">
        <ele>426.008</ele>
        <time>2021-03-06T05:21:34Z</time>
      </trkpt>
      <trkpt lat="45.1985" lon="5.7268">
        <ele>426.235</ele>
        <time>2021-03-06T05:21:35Z</time>
      </trkpt>
      <trkpt lat="45.1986" lon="5.72683">
        <ele>428.466</ele>
        <time>2021-03-06T05:21:42Z</time>
      </trkpt>
      <trkpt lat="45.19853" lon="5.72679">
        <ele>429.052</ele>
        <time>2021-03-06T05:21:48Z</time>
      </trkpt>
      <trkpt lat="45.19845" lon="5.72674">
        <ele>430.213</ele>
        <time>2021-03-06T05:21:53Z</time>
      </trkpt>
      <trkpt lat="45.19835" lon="5.72656">
        <ele>431.079</ele>
        <time>2021-03-06T05:22:02Z</time>
      </trkpt>
      <trkpt lat="45.19828" lon="5.72635">
        <ele>432.942</ele>
        <time>2021-03-06T05:22:10Z</time>
      </trkpt>
      <trkpt lat="45.19823" lon="5.72621">
        <ele>433.534</ele>
        <time>2021-03-06T05:22:16Z</time>
      </trkpt>
      <trkpt lat="45.1982" lon="5.72597">
        <ele>435.076</ele>
        <time>2021-03-06T05:22:24Z</time>
      </trkpt>
      <trkpt lat="45.19818" lon="5.72573">
        <ele>436.848</ele>
        <time>2021-03-06T05:22:32Z</time>
      </trkpt>
      <trkpt lat="45.19818" lon="5.72554">
        <ele>437.529</ele>
        <time>2021-03-06T05:22:39Z</time>
      </trkpt>
      <trkpt lat="45.19816" lon="5.72534">
        <ele>439.536</ele>
        <time>2021-03-06T05:22:47Z</time>
      </trkpt>
      <trkpt lat="45.19818" lon="5.72525">
        <ele>440.777</ele>
        <time>2021-03-06T05:22:50Z</time>
      </trkpt>
      <trkpt lat="45.19823" lon="5.72507">
        <ele>441.975</ele>
        <time>2021-03-06T05:22:57Z</time>
      </trkpt>
      <trkpt lat="45.19828" lon="5.72488">
        <ele>443.375</ele>
        <time>2021-03-06T05:23:05Z</time>
      </trkpt>
      <trkpt lat="45.19833" lon="5.72466">
        <ele>446.073</ele>
        <time>2021-03-06T05:23:14Z</time>
      </trkpt>
      <trkpt lat="45.19835" lon="5.72462">
        <ele>446.863</ele>
        <time>2021-03-06T05:23:16Z</time>
      </trkpt>
      <trkpt lat="45.19841" lon="5.72445">
        <ele>449.545</ele>
        <time>2021-03-06T05:23:24Z</time>
      </trkpt>
      <trkpt lat="45.19848" lon="5.72454">
        <ele>449.969</ele>
        <time>2021-03-06T05:23:30Z</time>
      </trkpt>
      <trkpt lat="45.19848" lon="5.72462">
        <ele>450.711</ele>
        <time>2021-03-06T05:23:33Z</time>
      </trkpt>
      <trkpt lat="45.19848" lon="5.72469">
        <ele>451.5</ele>
        <time>2021-03-06T05:23:36Z</time>
      </trkpt>
      <trkpt lat="45.19849" lon="5.72492">
        <ele>453.236</ele>
        <time>2021-03-06T05:23:44Z</time>
      </trkpt>
      <trkpt lat="45.19851" lon="5.72514">
        <ele>454.989</ele>
        <time>2021-03-06T05:23:52Z</time>
      </trkpt>
      <trkpt lat="45.19854" lon="5.72533">
        <ele>456.653</ele>
        <time>2021-03-06T05:24:00Z</time>
      </trkpt>
      <trkpt lat="45.19857" lon="5.72548">
        <ele>457.87</ele>
        <time>2021-03-06T05:24:06Z</time>
      </trkpt>
      <trkpt lat="45.19861" lon="5.72553">
        <ele>458.93</ele>
        <time>2021-03-06T05:24:11Z</time>
      </trkpt>
      <trkpt lat="45.19854" lon="5.72539">
        <ele>460.682</ele>
        <time>2021-03-06T05:24:18Z</time>
      </trkpt>
      <trkpt lat="45.19854" lon="5.72536">
        <ele>460.553</ele>
        <time>2021-03-06T05:24:19Z</time>
      </trkpt>
      <trkpt lat="45.19854" lon="5.72501">
        <ele>462.474</ele>
        <time>2021-03-06T05:24:30Z</time>
      </trkpt>
      <trkpt lat="45.19856" lon="5.72497">
        <ele>462.662</ele>
        <time>2021-03-06T05:24:32Z</time>
      </trkpt>
      <trkpt lat="45.19863" lon="5.72491">
        <ele>463.547</ele>
        <time>2021-03-06T05:24:38Z</time>
      </trkpt>
      <trkpt lat="45.19866" lon="5.72481">
        <ele>467.557</ele>
        <time>2021-03-06T05:24:47Z</time>
      </trkpt>
      <trkpt lat="45.19872" lon="5.72476">
        <ele>469.102</ele>
        <time>2021-03-06T05:24:53Z</time>
      </trkpt>
      <trkpt lat="45.19874" lon="5.72475">
        <ele>470.081</ele>
        <time>2021-03-06T05:24:55Z</time>
      </trkpt>
      <trkpt lat="45.19877" lon="5.72475">
        <ele>473.225</ele>
        <time>2021-03-06T05:25:00Z</time>
      </trkpt>
      <trkpt lat="45.19877" lon="5.72475">
        <ele>473.24</ele>
        <time>2021-03-06T05:25:01Z</time>
      </trkpt>
      <trkpt lat="45.19878" lon="5.72495">
        <ele>473.08</ele>
        <time>2021-03-06T05:25:08Z</time>
      </trkpt>
      <trkpt lat="45.19879" lon="5.72497">
        <ele>473.852</ele>
        <time>2021-03-06T05:25:09Z</time>
      </trkpt>
      <trkpt lat="45.19882" lon="5.72521">
        <ele>473.695</ele>
        <time>2021-03-06T05:25:16Z</time>
      </trkpt>
      <trkpt lat="45.19885" lon="5.72527">
        <ele>473.728</ele>
        <time>2021-03-06T05:25:18Z</time>
      </trkpt>
      <trkpt lat="45.19888" lon="5.72535">
        <ele>475.35</ele>
        <time>2021-03-06T05:25:22Z</time>
      </trkpt>
      <trkpt lat="45.19887" lon="5.72542">
        <ele>477.385</ele>
        <time>2021-03-06T05:25:27Z</time>
      </trkpt>
      <trkpt lat="45.19885" lon="5.72548">
        <ele>478.769</ele>
        <time>2021-03-06T05:25:32Z</time>
      </trkpt>
      <trkpt lat="45.19883" lon="5.7255">
        <ele>479.717</ele>
        <time>2021-03-06T05:25:34Z</time>
      </trkpt>
      <trkpt lat="45.19882" lon="5.72565">
        <ele>480.124</ele>
        <time>2021-03-06T05:25:40Z</time>
      </trkpt>
      <trkpt lat="45.19875" lon="5.72563">
        <ele>480.105</ele>
        <time>2021-03-06T05:25:46Z</time>
      </trkpt>
      <trkpt lat="45.19875" lon="5.7256">
        <ele>480.003</ele>
        <time>2021-03-06T05:25:47Z</time>
      </trkpt>
      <trkpt lat="45.19872" lon="5.72533">
        <ele>480.006</ele>
        <time>2021-03-06T05:25:55Z</time>
      </trkpt>
      <trkpt lat="45.19869" lon="5.72513">
        <ele>480.955</ele>
        <time>2021-03-06T05:26:01Z</time>
      </trkpt>
      <trkpt lat="45.19873" lon="5.72505">
        <ele>480.321</ele>
        <time>2021-03-06T05:26:06Z</time>
      </trkpt>
      <trkpt lat="45.19876" lon="5.72526">
        <ele>480.348</ele>
        <time>2021-03-06T05:26:12Z</time>
      </trkpt>
      <trkpt lat="45.19878" lon="5.72549">
        <ele>480.577</ele>
        <time>2021-03-06T05:26:19Z</time>
      </trkpt>
      <trkpt lat="45.1988" lon="5.72548">
        <ele>479.788</ele>
        <time>2021-03-06T05:26:23Z</time>
      </trkpt>
      <trkpt lat="45.19879" lon="5.72538">
        <ele>477.358</ele>
        <time>2021-03-06T05:26:29Z</time>
      </trkpt>
      <trkpt lat="45.19881" lon="5.72527">
        <ele>475.185</ele>
        <time>2021-03-06T05:26:34Z</time>
      </trkpt>
      <trkpt lat="45.19882" lon="5.725">
        <ele>474.745</ele>
        <time>2021-03-06T05:26:42Z</time>
      </trkpt>
      <trkpt lat="45.1988" lon="5.72488">
        <ele>475.386</ele>
        <time>2021-03-06T05:26:46Z</time>
      </trkpt>
      <trkpt lat="45.19878" lon="5.72488">
        <ele>473.99</ele>
        <time>2021-03-06T05:26:49Z</time>
      </trkpt>
      <trkpt lat="45.19874" lon="5.72491">
        <ele>470.208</ele>
        <time>2021-03-06T05:26:53Z</time>
      </trkpt>
      <trkpt lat="45.19873" lon="5.72491">
        <ele>470.029</ele>
        <time>2021-03-06T05:26:54Z</time>
      </trkpt>
      <trkpt lat="45.19867" lon="5.72493">
        <ele>467.912</ele>
        <time>2021-03-06T05:27:00Z</time>
      </trkpt>
      <trkpt lat="45.19866" lon="5.72493">
        <ele>467.636</ele>
        <time>2021-03-06T05:27:01Z</time>
      </trkpt>
      <trkpt lat="45.19864" lon="5.72493">
        <ele>465.701</ele>
        <time>2021-03-06T05:27:04Z</time>
      </trkpt>
      <trkpt lat="45.19862" lon="5.72492">
        <ele>464.271</ele>
        <time>2021-03-06T05:27:07Z</time>
      </trkpt>
      <trkpt lat="45.19868" lon="5.72479">
        <ele>464.429</ele>
        <time>2021-03-06T05:27:11Z</time>
      </trkpt>
      <trkpt lat="45.1987" lon="5.72478">
        <ele>465.02</ele>
        <time>2021-03-06T05:27:12Z</time>
      </trkpt>
      <trkpt lat="45.19887" lon="5.72477">
        <ele>465.751</ele>
        <time>2021-03-06T05:27:19Z</time>
      </trkpt>
      <trkpt lat="45.19885" lon="5.72476">
        <ele>464.921</ele>
        <time>2021-03-06T05:27:23Z</time>
      </trkpt>
      <trkpt lat="45.19885" lon="5.72469">
        <ele>465.387</ele>
        <time>2021-03-06T05:27:26Z</time>
      </trkpt>
      <trkpt lat="45.19893" lon="5.72444">
        <ele>464.482</ele>
        <time>2021-03-06T05:27:32Z</time>
      </trkpt>
      <trkpt lat="45.19906" lon="5.72433">
        <ele>463.332</ele>
        <time>2021-03-06T05:27:37Z</time>
      </trkpt>
      <trkpt lat="45.19926" lon="5.72429">
        <ele>461.464</ele>
        <time>2021-03-06T05:27:44Z</time>
      </trkpt>
      <trkpt lat="45.19943" lon="5.72424">
        <ele>460.941</ele>
        <time>2021-03-06T05:27:50Z</time>
      </trkpt>
      <trkpt lat="45.19959" lon="5.72423">
        <ele>460.511</ele>
        <time>2021-03-06T05:27:56Z</time>
      </trkpt>
      <trkpt lat="45.19971" lon="5.72422">
        <ele>462.615</ele>
        <time>2021-03-06T05:28:01Z</time>
      </trkpt>
      <trkpt lat="45.19988" lon="5.72423">
        <ele>465.29</ele>
        <time>2021-03-06T05:28:09Z</time>
      </trkpt>
      <trkpt lat="45.19994" lon="5.72424">
        <ele>465.422</ele>
        <time>2021-03-06T05:28:12Z</time>
      </trkpt>
      <trkpt lat="45.20003" lon="5.72425">
        <ele>466.463</ele>
        <time>2021-03-06T05:28:16Z</time>
      </trkpt>
      <trkpt lat="45.20019" lon="5.72425">
        <ele>468.46</ele>
        <time>2021-03-06T05:28:24Z</time>
      </trkpt>
      <trkpt lat="45.20034" lon="5.72426">
        <ele>469.965</ele>
        <time>2021-03-06T05:28:32Z</time>
      </trkpt>
      <trkpt lat="45.20044" lon="5.72426">
        <ele>471.077</ele>
        <time>2021-03-06T05:28:38Z</time>
      </trkpt>
      <trkpt lat="45.20052" lon="5.72427">
        <ele>472.263</ele>
        <time>2021-03-06T05:28:43Z</time>
      </trkpt>
      <trkpt lat="45.2006" lon="5.72428">
        <ele>473.398</ele>
        <time>2021-03-06T05:28:48Z</time>
      </trkpt>
      <trkpt lat="45.20064" lon="5.72434">
        <ele>473.384</ele>
        <time>2021-03-06T05:28:51Z</time>
      </trkpt>
      <trkpt lat="45.20069" lon="5.72448">
        <ele>474.859</ele>
        <time>2021-03-06T05:28:58Z</time>
      </trkpt>
      <trkpt lat="45.20073" lon="5.72469">
        <ele>477.35</ele>
        <time>2021-03-06T05:29:06Z</time>
      </trkpt>
      <trkpt lat="45.20074" lon="5.72471">
        <ele>477.699</ele>
        <time>2021-03-06T05:29:07Z</time>
      </trkpt>
      <trkpt lat="45.2007" lon="5.72498">
        <ele>479.652</ele>
        <time>2021-03-06T05:29:15Z</time>
      </trkpt>
      <trkpt lat="45.20065" lon="5.72521">
        <ele>480.164</ele>
        <time>2021-03-06T05:29:23Z</time>
      </trkpt>
      <trkpt lat="45.20071" lon="5.72537">
        <ele>480.882</ele>
        <time>2021-03-06T05:29:29Z</time>
      </trkpt>
      <trkpt lat="45.20082" lon="5.72543">
        <ele>480.982</ele>
        <time>2021-03-06T05:29:34Z</time>
      </trkpt>
      <trkpt lat="45.20098" lon="5.72541">
        <ele>485.114</ele>
        <time>2021-03-06T05:29:43Z</time>
      </trkpt>
      <trkpt lat="45.20099" lon="5.7254">
        <ele>485.192</ele>
        <time>2021-03-06T05:29:44Z</time>
      </trkpt>
      <trkpt lat="45.20111" lon="5.72538">
        <ele>487.738</ele>
        <time>2021-03-06T05:29:53Z</time>
      </trkpt>
      <trkpt lat="45.20114" lon="5.7254">
        <ele>487.821</ele>
        <time>2021-03-06T05:29:55Z</time>
      </trkpt>
      <trkpt lat="45.20128" lon="5.72546">
        <ele>490.52</ele>
        <time>2021-03-06T05:30:05Z</time>
      </trkpt>
      <trkpt lat="45.20139" lon="5.72552">
        <ele>492.735</ele>
        <time>2021-03-06T05:30:12Z</time>
      </trkpt>
      <trkpt lat="45.20148" lon="5.72554">
        <ele>494.699</ele>
        <time>2021-03-06T05:30:19Z</time>
      </trkpt>
      <trkpt lat="45.20158" lon="5.72557">
        <ele>495.707</ele>
        <time>2021-03-06T05:30:26Z</time>
      </trkpt>
      <trkpt lat="45.20169" lon="5.72563">
        <ele>497.887</ele>
        <time>2021-03-06T05:30:34Z</time>
      </trkpt>
      <trkpt lat="45.20181" lon="5.72571">
        <ele>499.68</ele>
        <time>2021-03-06T05:30:43Z</time>
      </trkpt>
      <trkpt lat="45.20191" lon="5.72576">
        <ele>500.311</ele>
        <time>2021-03-06T05:30:49Z</time>
      </trkpt>
      <trkpt lat="45.20199" lon="5.72583">
        <ele>501.803</ele>
        <time>2021-03-06T05:30:55Z</time>
      </trkpt>
      <trkpt lat="45.20209" lon="5.72589">
        <ele>502.538</ele>
        <time>2021-03-06T05:31:02Z</time>
      </trkpt>
      <trkpt lat="45.20217" lon="5.72592">
        <ele>503.414</ele>
        <time>2021-03-06T05:31:07Z</time>
      </trkpt>
      <trkpt lat="45.20225" lon="5.72596">
        <ele>505.37</ele>
        <time>2021-03-06T05:31:12Z</time>
      </trkpt>
      <trkpt lat="45.20234" lon="5.72607">
        <ele>506.87</ele>
        <time>2021-03-06T05:31:20Z</time>
      </trkpt>
      <trkpt lat="45.20239" lon="5.72608">
        <ele>507.868</ele>
        <time>2021-03-06T05:31:24Z</time>
      </trkpt>
      <trkpt lat="45.20252" lon="5.72607">
        <ele>510.05</ele>
        <time>2021-03-06T05:31:32Z</time>
      </trkpt>
      <trkpt lat="45.20257" lon="5.72607">
        <ele>511.147</ele>
        <time>2021-03-06T05:31:35Z</time>
      </trkpt>
      <trkpt lat="45.20264" lon="5.72604">
        <ele>512.24</ele>
        <time>2021-03-06T05:31:40Z</time>
      </trkpt>
      <trkpt lat="45.20279" lon="5.72605">
        <ele>514.753</ele>
        <time>2021-03-06T05:31:49Z</time>
      </trkpt>
      <trkpt lat="45.20288" lon="5.72604">
        <ele>515.986</ele>
        <time>2021-03-06T05:31:56Z</time>
      </trkpt>
      <trkpt lat="45.20299" lon="5.72605">
        <ele>517.794</ele>
        <time>2021-03-06T05:32:01Z</time>
      </trkpt>
      <trkpt lat="45.20301" lon="5.72606">
        <ele>517.995</ele>
        <time>2021-03-06T05:32:02Z</time>
      </trkpt>
      <trkpt lat="45.20307" lon="5.72609">
        <ele>519.875</ele>
        <time>2021-03-06T05:32:07Z</time>
      </trkpt>
      <trkpt lat="45.20309" lon="5.72608">
        <ele>519.752</ele>
        <time>2021-03-06T05:32:09Z</time>
      </trkpt>
      <trkpt lat="45.20312" lon="5.72611">
        <ele>520.457</ele>
        <time>2021-03-06T05:32:13Z</time>
      </trkpt>
      <trkpt lat="45.2032" lon="5.72616">
        <ele>522.1</ele>
        <time>2021-03-06T05:32:20Z</time>
      </trkpt>
      <trkpt lat="45.20321" lon="5.72617">
        <ele>522.111</ele>
        <time>2021-03-06T05:32:21Z</time>
      </trkpt>
      <trkpt lat="45.20324" lon="5.72618">
        <ele>521.834</ele>
        <time>2021-03-06T05:32:23Z</time>
      </trkpt>
      <trkpt lat="45.20326" lon="5.72626">
        <ele>524.221</ele>
        <time>2021-03-06T05:32:28Z</time>
      </trkpt>
      <trkpt lat="45.20334" lon="5.72635">
        <ele>525.813</ele>
        <time>2021-03-06T05:32:35Z</time>
      </trkpt>
      <trkpt lat="45.20339" lon="5.72643">
        <ele>526.875</ele>
        <time>2021-03-06T05:32:42Z</time>
      </trkpt>
      <trkpt lat="45.20341" lon="5.72644">
        <ele>527.251</ele>
        <time>2021-03-06T05:32:43Z</time>
      </trkpt>
      <trkpt lat="45.20347" lon="5.72651">
        <ele>528.91</ele>
        <time>2021-03-06T05:32:50Z</time>
      </trkpt>
      <trkpt lat="45.20355" lon="5.72654">
        <ele>529.624</ele>
        <time>2021-03-06T05:32:55Z</time>
      </trkpt>
      <trkpt lat="45.20368" lon="5.72661">
        <ele>530.585</ele>
        <time>2021-03-06T05:33:03Z</time>
      </trkpt>
      <trkpt lat="45.20377" lon="5.72668">
        <ele>532.438</ele>
        <time>2021-03-06T05:33:09Z</time>
      </trkpt>
      <trkpt lat="45.20381" lon="5.72668">
        <ele>532.884</ele>
        <time>2021-03-06T05:33:11Z</time>
      </trkpt>
      <trkpt lat="45.20388" lon="5.72676">
        <ele>534.1</ele>
        <time>2021-03-06T05:33:16Z</time>
      </trkpt>
      <trkpt lat="45.20391" lon="5.72685">
        <ele>535.216</ele>
        <time>2021-03-06T05:33:20Z</time>
      </trkpt>
      <trkpt lat="45.204" lon="5.72695">
        <ele>536.725</ele>
        <time>2021-03-06T05:33:27Z</time>
      </trkpt>
      <trkpt lat="45.20412" lon="5.72702">
        <ele>538.469</ele>
        <time>2021-03-06T05:33:35Z</time>
      </trkpt>
      <trkpt lat="45.20415" lon="5.72705">
        <ele>539.436</ele>
        <time>2021-03-06T05:33:37Z</time>
      </trkpt>
      <trkpt lat="45.20423" lon="5.72711">
        <ele>541.358</ele>
        <time>2021-03-06T05:33:44Z</time>
      </trkpt>
      <trkpt lat="45.20432" lon="5.72715">
        <ele>541.922</ele>
        <time>2021-03-06T05:33:50Z</time>
      </trkpt>
      <trkpt lat="45.20448" lon="5.72714">
        <ele>544.587</ele>
        <time>2021-03-06T05:33:58Z</time>
      </trkpt>
      <trkpt lat="45.20452" lon="5.72714">
        <ele>545.749</ele>
        <time>2021-03-06T05:34:01Z</time>
      </trkpt>
      <trkpt lat="45.20466" lon="5.72717">
        <ele>546.326</ele>
        <time>2021-03-06T05:34:09Z</time>
      </trkpt>
      <trkpt lat="45.20477" lon="5.72722">
        <ele>547.523</ele>
        <time>2021-03-06T05:34:16Z</time>
      </trkpt>
      <trkpt lat="45.20492" lon="5.72729">
        <ele>549.919</ele>
        <time>2021-03-06T05:34:24Z</time>
      </trkpt>
      <trkpt lat="45.20501" lon="5.72735">
        <ele>550.273</ele>
        <time>2021-03-06T05:34:30Z</time>
      </trkpt>
      <trkpt lat="45.20515" lon="5.72742">
        <ele>551.844</ele>
        <time>2021-03-06T05:34:37Z</time>
      </trkpt>
      <trkpt lat="45.20517" lon="5.72742">
        <ele>551.218</ele>
        <time>2021-03-06T05:34:38Z</time>
      </trkpt>
      <trkpt lat="45.20519" lon="5.72741">
        <ele>553.05</ele>
        <time>2021-03-06T05:34:40Z</time>
      </trkpt>
      <trkpt lat="45.2051" lon="5.72735">
        <ele>554.037</ele>
        <time>2021-03-06T05:34:46Z</time>
      </trkpt>
      <trkpt lat="45.20502" lon="5.72734">
        <ele>554.862</ele>
        <time>2021-03-06T05:34:50Z</time>
      </trkpt>
      <trkpt lat="45.2049" lon="5.72726">
        <ele>556.482</ele>
        <time>2021-03-06T05:34:58Z</time>
      </trkpt>
      <trkpt lat="45.20479" lon="5.72719">
        <ele>557.602</ele>
        <time>2021-03-06T05:35:04Z</time>
      </trkpt>
      <trkpt lat="45.20476" lon="5.72717">
        <ele>558.018</ele>
        <time>2021-03-06T05:35:06Z</time>
      </trkpt>
      <trkpt lat="45.2047" lon="5.72714">
        <ele>558.42</ele>
        <time>2021-03-06T05:35:10Z</time>
      </trkpt>
      <trkpt lat="45.20459" lon="5.72699">
        <ele>560.822</ele>
        <time>2021-03-06T05:35:18Z</time>
      </trkpt>
      <trkpt lat="45.20452" lon="5.72692">
        <ele>562.151</ele>
        <time>2021-03-06T05:35:24Z</time>
      </trkpt>
      <trkpt lat="45.20444" lon="5.72688">
        <ele>563.251</ele>
        <time>2021-03-06T05:35:29Z</time>
      </trkpt>
      <trkpt lat="45.20436" lon="5.72674">
        <ele>564.331</ele>
        <time>2021-03-06T05:35:38Z</time>
      </trkpt>
      <trkpt lat="45.20431" lon="5.72667">
        <ele>565.315</ele>
        <time>2021-03-06T05:35:42Z</time>
      </trkpt>
      <trkpt lat="45.20417" lon="5.72649">
        <ele>567.33</ele>
        <time>2021-03-06T05:35:52Z</time>
      </trkpt>
      <trkpt lat="45.20416" lon="5.72647">
        <ele>567.463</ele>
        <time>2021-03-06T05:35:53Z</time>
      </trkpt>
      <trkpt lat="45.20411" lon="5.72639">
        <ele>568.596</ele>
        <time>2021-03-06T05:35:57Z</time>
      </trkpt>
      <trkpt lat="45.20408" lon="5.72627">
        <ele>570.301</ele>
        <time>2021-03-06T05:36:02Z</time>
      </trkpt>
      <trkpt lat="45.20417" lon="5.72631">
        <ele>571.37</ele>
        <time>2021-03-06T05:36:06Z</time>
      </trkpt>
      <trkpt lat="45.20433" lon="5.72641">
        <ele>572.494</ele>
        <time>2021-03-06T05:36:14Z</time>
      </trkpt>
      <trkpt lat="45.20442" lon="5.72644">
        <ele>573.511</ele>
        <time>2021-03-06T05:36:19Z</time>
      </trkpt>
      <trkpt lat="45.20447" lon="5.72645">
        <ele>574.226</ele>
        <time>2021-03-06T05:36:23Z</time>
      </trkpt>
      <trkpt lat="45.20456" lon="5.7265">
        <ele>575.414</ele>
        <time>2021-03-06T05:36:29Z</time>
      </trkpt>
      <trkpt lat="45.20471" lon="5.72652">
        <ele>576.927</ele>
        <time>2021-03-06T05:36:38Z</time>
      </trkpt>
      <trkpt lat="45.20481" lon="5.72656">
        <ele>579.431</ele>
        <time>2021-03-06T05:36:44Z</time>
      </trkpt>
      <trkpt lat="45.20494" lon="5.72661">
        <ele>580.448</ele>
        <time>2021-03-06T05:36:51Z</time>
      </trkpt>
      <trkpt lat="45.20504" lon="5.72666">
        <ele>580.948</ele>
        <time>2021-03-06T05:36:57Z</time>
      </trkpt>
      <trkpt lat="45.20515" lon="5.72672">
        <ele>583.621</ele>
        <time>2021-03-06T05:37:04Z</time>
      </trkpt>
      <trkpt lat="45.2052" lon="5.72674">
        <ele>584.475</ele>
        <time>2021-03-06T05:37:08Z</time>
      </trkpt>
      <trkpt lat="45.20534" lon="5.72683">
        <ele>585.87</ele>
        <time>2021-03-06T05:37:16Z</time>
      </trkpt>
      <trkpt lat="45.20548" lon="5.72693">
        <ele>587.233</ele>
        <time>2021-03-06T05:37:23Z</time>
      </trkpt>
      <trkpt lat="45.20557" lon="5.727">
        <ele>588.63</ele>
        <time>2021-03-06T05:37:28Z</time>
      </trkpt>
      <trkpt lat="45.20565" lon="5.72707">
        <ele>590.288</ele>
        <time>2021-03-06T05:37:35Z</time>
      </trkpt>
      <trkpt lat="45.20575" lon="5.72712">
        <ele>591.216</ele>
        <time>2021-03-06T05:37:41Z</time>
      </trkpt>
      <trkpt lat="45.20579" lon="5.72711">
        <ele>592.431</ele>
        <time>2021-03-06T05:37:43Z</time>
      </trkpt>
      <trkpt lat="45.2058" lon="5.72706">
        <ele>593.076</ele>
        <time>2021-03-06T05:37:47Z</time>
      </trkpt>
      <trkpt lat="45.20577" lon="5.72704">
        <ele>593.973</ele>
        <time>2021-03-06T05:37:49Z</time>
      </trkpt>
      <trkpt lat="45.2056" lon="5.72699">
        <ele>594.633</ele>
        <time>2021-03-06T05:37:56Z</time>
      </trkpt>
      <trkpt lat="45.20553" lon="5.72696">
        <ele>594.309</ele>
        <time>2021-03-06T05:37:59Z</time>
      </trkpt>
      <trkpt lat="45.2055" lon="5.72688">
        <ele>594.971</ele>
        <time>2021-03-06T05:38:03Z</time>
      </trkpt>
      <trkpt lat="45.20546" lon="5.72682">
        <ele>595.431</ele>
        <time>2021-03-06T05:38:06Z</time>
      </trkpt>
      <trkpt lat="45.20541" lon="5.72675">
        <ele>596.879</ele>
        <time>2021-03-06T05:38:10Z</time>
      </trkpt>
      <trkpt lat="45.20527" lon="5.7266">
        <ele>597.45</ele>
        <time>2021-03-06T05:38:19Z</time>
      </trkpt>
      <trkpt lat="45.20526" lon="5.72659">
        <ele>597.782</ele>
        <time>2021-03-06T05:38:20Z</time>
      </trkpt>
      <trkpt lat="45.20516" lon="5.72647">
        <ele>599.202</ele>
        <time>2021-03-06T05:38:27Z</time>
      </trkpt>
      <trkpt lat="45.20516" lon="5.72644">
        <ele>599.65</ele>
        <time>2021-03-06T05:38:28Z</time>
      </trkpt>
      <trkpt lat="45.20509" lon="5.72637">
        <ele>600.676</ele>
        <time>2021-03-06T05:38:34Z</time>
      </trkpt>
      <trkpt lat="45.20506" lon="5.72635">
        <ele>601.636</ele>
        <time>2021-03-06T05:38:36Z</time>
      </trkpt>
      <trkpt lat="45.20491" lon="5.72633">
        <ele>603.034</ele>
        <time>2021-03-06T05:38:44Z</time>
      </trkpt>
      <trkpt lat="45.20481" lon="5.72627">
        <ele>604.934</ele>
        <time>2021-03-06T05:38:50Z</time>
      </trkpt>
      <trkpt lat="45.20479" lon="5.72626">
        <ele>604.803</ele>
        <time>2021-03-06T05:38:51Z</time>
      </trkpt>
      <trkpt lat="45.20467" lon="5.72607">
        <ele>607.094</ele>
        <time>2021-03-06T05:39:00Z</time>
      </trkpt>
      <trkpt lat="45.20461" lon="5.72594">
        <ele>608.778</ele>
        <time>2021-03-06T05:39:06Z</time>
      </trkpt>
      <trkpt lat="45.20454" lon="5.72578">
        <ele>610.286</ele>
        <time>2021-03-06T05:39:13Z</time>
      </trkpt>
      <trkpt lat="45.20447" lon="5.72561">
        <ele>611.314</ele>
        <time>2021-03-06T05:39:21Z</time>
      </trkpt>
      <trkpt lat="45.2044" lon="5.72543">
        <ele>612.498</ele>
        <time>2021-03-06T05:39:29Z</time>
      </trkpt>
      <trkpt lat="45.20438" lon="5.72533">
        <ele>613.059</ele>
        <time>2021-03-06T05:39:34Z</time>
      </trkpt>
      <trkpt lat="45.20446" lon="5.72523">
        <ele>615.26</ele>
        <time>2021-03-06T05:39:40Z</time>
      </trkpt>
      <trkpt lat="45.20453" lon="5.72531">
        <ele>614.97</ele>
        <time>2021-03-06T05:39:45Z</time>
      </trkpt>
      <trkpt lat="45.20458" lon="5.72539">
        <ele>616.832</ele>
        <time>2021-03-06T05:39:50Z</time>
      </trkpt>
      <trkpt lat="45.20464" lon="5.72545">
        <ele>617.709</ele>
        <time>2021-03-06T05:39:54Z</time>
      </trkpt>
      <trkpt lat="45.20468" lon="5.72549">
        <ele>619.11</ele>
        <time>2021-03-06T05:39:57Z</time>
      </trkpt>
      <trkpt lat="45.20479" lon="5.72561">
        <ele>620.07</ele>
        <time>2021-03-06T05:40:05Z</time>
      </trkpt>
      <trkpt lat="45.20484" lon="5.72565">
        <ele>620.398</ele>
        <time>2021-03-06T05:40:08Z</time>
      </trkpt>
      <trkpt lat="45.20491" lon="5.72556">
        <ele>621.921</ele>
        <time>2021-03-06T05:40:14Z</time>
      </trkpt>
      <trkpt lat="45.20491" lon="5.72555">
        <ele>622.11</ele>
        <time>2021-03-06T05:40:15Z</time>
      </trkpt>
      <trkpt lat="45.20488" lon="5.72546">
        <ele>625.249</ele>
        <time>2021-03-06T05:40:20Z</time>
      </trkpt>
      <trkpt lat="45.20486" lon="5.72536">
        <ele>626.084</ele>
        <time>2021-03-06T05:40:25Z</time>
      </trkpt>
      <trkpt lat="45.20486" lon="5.72532">
        <ele>627.574</ele>
        <time>2021-03-06T05:40:27Z</time>
      </trkpt>
      <trkpt lat="45.20488" lon="5.72519">
        <ele>627.805</ele>
        <time>2021-03-06T05:40:33Z</time>
      </trkpt>
      <trkpt lat="45.20488" lon="5.72503">
        <ele>627.554</ele>
        <time>2021-03-06T05:40:38Z</time>
      </trkpt>
      <trkpt lat="45.20487" lon="5.725">
        <ele>627.58</ele>
        <time>2021-03-06T05:40:39Z</time>
      </trkpt>
      <trkpt lat="45.20481" lon="5.72479">
        <ele>627.64</ele>
        <time>2021-03-06T05:40:46Z</time>
      </trkpt>
      <trkpt lat="45.20481" lon="5.72477">
        <ele>628.081</ele>
        <time>2021-03-06T05:40:47Z</time>
      </trkpt>
      <trkpt lat="45.20481" lon="5.72467">
        <ele>628.715</ele>
        <time>2021-03-06T05:40:52Z</time>
      </trkpt>
      <trkpt lat="45.20476" lon="5.72454">
        <ele>630.442</ele>
        <time>2021-03-06T05:40:58Z</time>
      </trkpt>
      <trkpt lat="45.20475" lon="5.72447">
        <ele>632.153</ele>
        <time>2021-03-06T05:41:01Z</time>
      </trkpt>
      <trkpt lat="45.20477" lon="5.72432">
        <ele>632.725</ele>
        <time>2021-03-06T05:41:08Z</time>
      </trkpt>
      <trkpt lat="45.20473" lon="5.72439">
        <ele>632.07</ele>
        <time>2021-03-06T05:41:13Z</time>
      </trkpt>
      <trkpt lat="45.20474" lon="5.72445">
        <ele>631.954</ele>
        <time>2021-03-06T05:41:15Z</time>
      </trkpt>
      <trkpt lat="45.20475" lon="5.7245">
        <ele>631.917</ele>
        <time>2021-03-06T05:41:17Z</time>
      </trkpt>
      <trkpt lat="45.20477" lon="5.72466">
        <ele>629.243</ele>
        <time>2021-03-06T05:41:24Z</time>
      </trkpt>
      <trkpt lat="45.20481" lon="5.72485">
        <ele>628.021</ele>
        <time>2021-03-06T05:41:30Z</time>
      </trkpt>
      <trkpt lat="45.20488" lon="5.72501">
        <ele>627.625</ele>
        <time>2021-03-06T05:41:35Z</time>
      </trkpt>
      <trkpt lat="45.20495" lon="5.72522">
        <ele>628.44</ele>
        <time>2021-03-06T05:41:42Z</time>
      </trkpt>
      <trkpt lat="45.205" lon="5.72533">
        <ele>628.952</ele>
        <time>2021-03-06T05:41:47Z</time>
      </trkpt>
      <trkpt lat="45.20508" lon="5.72548">
        <ele>629.354</ele>
        <time>2021-03-06T05:41:53Z</time>
      </trkpt>
      <trkpt lat="45.2051" lon="5.72553">
        <ele>629.358</ele>
        <time>2021-03-06T05:41:55Z</time>
      </trkpt>
      <trkpt lat="45.20522" lon="5.72562">
        <ele>628.723</ele>
        <time>2021-03-06T05:42:02Z</time>
      </trkpt>
      <trkpt lat="45.20534" lon="5.72561">
        <ele>627.412</ele>
        <time>2021-03-06T05:42:09Z</time>
      </trkpt>
      <trkpt lat="45.20536" lon="5.7256">
        <ele>626.543</ele>
        <time>2021-03-06T05:42:10Z</time>
      </trkpt>
      <trkpt lat="45.20543" lon="5.72558">
        <ele>627.814</ele>
        <time>2021-03-06T05:42:14Z</time>
      </trkpt>
      <trkpt lat="45.20551" lon="5.7256">
        <ele>627.825</ele>
        <time>2021-03-06T05:42:18Z</time>
      </trkpt>
      <trkpt lat="45.20555" lon="5.72561">
        <ele>628.184</ele>
        <time>2021-03-06T05:42:20Z</time>
      </trkpt>
      <trkpt lat="45.20568" lon="5.72565">
        <ele>629.618</ele>
        <time>2021-03-06T05:42:27Z</time>
      </trkpt>
      <trkpt lat="45.20578" lon="5.72567">
        <ele>629.687</ele>
        <time>2021-03-06T05:42:33Z</time>
      </trkpt>
      <trkpt lat="45.20592" lon="5.72578">
        <ele>630.218</ele>
        <time>2021-03-06T05:42:40Z</time>
      </trkpt>
      <trkpt lat="45.20611" lon="5.72592">
        <ele>632.404</ele>
        <time>2021-03-06T05:42:49Z</time>
      </trkpt>
      <trkpt lat="45.20618" lon="5.72598">
        <ele>634.024</ele>
        <time>2021-03-06T05:42:55Z</time>
      </trkpt>
      <trkpt lat="45.20627" lon="5.72603">
        <ele>635.154</ele>
        <time>2021-03-06T05:43:00Z</time>
      </trkpt>
      <trkpt lat="45.20632" lon="5.72605">
        <ele>635.494</ele>
        <time>2021-03-06T05:43:04Z</time>
      </trkpt>
      <trkpt lat="45.2065" lon="5.72603">
        <ele>637.34</ele>
        <time>2021-03-06T05:43:13Z</time>
      </trkpt>
      <trkpt lat="45.20663" lon="5.72594">
        <ele>638.481</ele>
        <time>2021-03-06T05:43:21Z</time>
      </trkpt>
      <trkpt lat="45.20664" lon="5.72593">
        <ele>638.713</ele>
        <time>2021-03-06T05:43:22Z</time>
      </trkpt>
      <trkpt lat="45.20673" lon="5.72582">
        <ele>640.761</ele>
        <time>2021-03-06T05:43:29Z</time>
      </trkpt>
      <trkpt lat="45.20687" lon="5.72576">
        <ele>642.072</ele>
        <time>2021-03-06T05:43:38Z</time>
      </trkpt>
      <trkpt lat="45.20696" lon="5.72573">
        <ele>644.847</ele>
        <time>2021-03-06T05:43:46Z</time>
      </trkpt>
      <trkpt lat="45.20703" lon="5.72577">
        <ele>646.042</ele>
        <time>2021-03-06T05:43:52Z</time>
      </trkpt>
      <trkpt lat="45.20708" lon="5.7258">
        <ele>647.932</ele>
        <time>2021-03-06T05:43:58Z</time>
      </trkpt>
      <trkpt lat="45.20713" lon="5.72581">
        <ele>649.638</ele>
        <time>2021-03-06T05:44:02Z</time>
      </trkpt>
      <trkpt lat="45.20722" lon="5.72583">
        <ele>651.329</ele>
        <time>2021-03-06T05:44:09Z</time>
      </trkpt>
      <trkpt lat="45.20729" lon="5.72587">
        <ele>653.109</ele>
        <time>2021-03-06T05:44:15Z</time>
      </trkpt>
      <trkpt lat="45.20736" lon="5.72589">
        <ele>654.085</ele>
        <time>2021-03-06T05:44:21Z</time>
      </trkpt>
      <trkpt lat="45.20738" lon="5.72591">
        <ele>654.826</ele>
        <time>2021-03-06T05:44:23Z</time>
      </trkpt>
      <trkpt lat="45.20741" lon="5.726">
        <ele>656.314</ele>
        <time>2021-03-06T05:44:29Z</time>
      </trkpt>
      <trkpt lat="45.20743" lon="5.72608">
        <ele>658.149</ele>
        <time>2021-03-06T05:44:35Z</time>
      </trkpt>
      <trkpt lat="45.20747" lon="5.72615">
        <ele>660.114</ele>
        <time>2021-03-06T05:44:42Z</time>
      </trkpt>
      <trkpt lat="45.20754" lon="5.72613">
        <ele>662.164</ele>
        <time>2021-03-06T05:44:49Z</time>
      </trkpt>
      <trkpt lat="45.20762" lon="5.72609">
        <ele>664.556</ele>
        <time>2021-03-06T05:44:58Z</time>
      </trkpt>
      <trkpt lat="45.20771" lon="5.7261">
        <ele>666.359</ele>
        <time>2021-03-06T05:45:06Z</time>
      </trkpt>
      <trkpt lat="45.20774" lon="5.72618">
        <ele>669.022</ele>
        <time>2021-03-06T05:45:11Z</time>
      </trkpt>
      <trkpt lat="45.20775" lon="5.72628">
        <ele>670.913</ele>
        <time>2021-03-06T05:45:18Z</time>
      </trkpt>
      <trkpt lat="45.20775" lon="5.72636">
        <ele>672.051</ele>
        <time>2021-03-06T05:45:23Z</time>
      </trkpt>
      <trkpt lat="45.20777" lon="5.72643">
        <ele>673.281</ele>
        <time>2021-03-06T05:45:30Z</time>
      </trkpt>
      <trkpt lat="45.20779" lon="5.72642">
        <ele>675.351</ele>
        <time>2021-03-06T05:45:33Z</time>
      </trkpt>
      <trkpt lat="45.20784" lon="5.72642">
        <ele>676.65</ele>
        <time>2021-03-06T05:45:39Z</time>
      </trkpt>
      <trkpt lat="45.20788" lon="5.7264">
        <ele>678.279</ele>
        <time>2021-03-06T05:45:45Z</time>
      </trkpt>
      <trkpt lat="45.20793" lon="5.72638">
        <ele>679.72</ele>
        <time>2021-03-06T05:45:51Z</time>
      </trkpt>
      <trkpt lat="45.20794" lon="5.72637">
        <ele>679.985</ele>
        <time>2021-03-06T05:45:52Z</time>
      </trkpt>
      <trkpt lat="45.20797" lon="5.72624">
        <ele>682.776</ele>
        <time>2021-03-06T05:46:01Z</time>
      </trkpt>
      <trkpt lat="45.208" lon="5.72628">
        <ele>684.478</ele>
        <time>2021-03-06T05:46:04Z</time>
      </trkpt>
      <trkpt lat="45.20803" lon="5.72637">
        <ele>686.229</ele>
        <time>2021-03-06T05:46:10Z</time>
      </trkpt>
      <trkpt lat="45.20806" lon="5.72645">
        <ele>688.171</ele>
        <time>2021-03-06T05:46:17Z</time>
      </trkpt>
      <trkpt lat="45.20809" lon="5.72654">
        <ele>689.333</ele>
        <time>2021-03-06T05:46:23Z</time>
      </trkpt>
      <trkpt lat="45.20811" lon="5.72662">
        <ele>690.747</ele>
        <time>2021-03-06T05:46:29Z</time>
      </trkpt>
      <trkpt lat="45.20812" lon="5.72669">
        <ele>692.671</ele>
        <time>2021-03-06T05:46:35Z</time>
      </trkpt>
      <trkpt lat="45.20812" lon="5.72668">
        <ele>692.844</ele>
        <time>2021-03-06T05:46:36Z</time>
      </trkpt>
      <trkpt lat="45.20813" lon="5.72668">
        <ele>692.588</ele>
        <time>2021-03-06T05:46:37Z</time>
      </trkpt>
      <trkpt lat="45.20818" lon="5.72665">
        <ele>695.256</ele>
        <time>2021-03-06T05:46:43Z</time>
      </trkpt>
      <trkpt lat="45.2082" lon="5.72662">
        <ele>696.451</ele>
        <time>2021-03-06T05:46:45Z</time>
      </trkpt>
      <trkpt lat="45.20827" lon="5.72652">
        <ele>698.635</ele>
        <time>2021-03-06T05:46:54Z</time>
      </trkpt>
      <trkpt lat="45.20831" lon="5.72658">
        <ele>699.204</ele>
        <time>2021-03-06T05:46:59Z</time>
      </trkpt>
      <trkpt lat="45.20834" lon="5.72662">
        <ele>700.426</ele>
        <time>2021-03-06T05:47:02Z</time>
      </trkpt>
      <trkpt lat="45.20838" lon="5.72674">
        <ele>701.658</ele>
        <time>2021-03-06T05:47:09Z</time>
      </trkpt>
      <trkpt lat="45.20839" lon="5.72683">
        <ele>703.592</ele>
        <time>2021-03-06T05:47:16Z</time>
      </trkpt>
      <trkpt lat="45.20839" lon="5.72689">
        <ele>704.568</ele>
        <time>2021-03-06T05:47:21Z</time>
      </trkpt>
      <trkpt lat="45.20842" lon="5.72695">
        <ele>707.301</ele>
        <time>2021-03-06T05:47:28Z</time>
      </trkpt>
      <trkpt lat="45.20846" lon="5.7269">
        <ele>709.987</ele>
        <time>2021-03-06T05:47:35Z</time>
      </trkpt>
      <trkpt lat="45.20847" lon="5.7269">
        <ele>710.252</ele>
        <time>2021-03-06T05:47:36Z</time>
      </trkpt>
      <trkpt lat="45.20852" lon="5.72689">
        <ele>711.847</ele>
        <time>2021-03-06T05:47:42Z</time>
      </trkpt>
      <trkpt lat="45.20856" lon="5.72687">
        <ele>713.036</ele>
        <time>2021-03-06T05:47:47Z</time>
      </trkpt>
      <trkpt lat="45.20864" lon="5.72686">
        <ele>713.854</ele>
        <time>2021-03-06T05:47:54Z</time>
      </trkpt>
      <trkpt lat="45.20869" lon="5.72685">
        <ele>715.505</ele>
        <time>2021-03-06T05:47:58Z</time>
      </trkpt>
      <trkpt lat="45.20879" lon="5.72682">
        <ele>716.286</ele>
        <time>2021-03-06T05:48:06Z</time>
      </trkpt>
      <trkpt lat="45.20886" lon="5.72677">
        <ele>719.366</ele>
        <time>2021-03-06T05:48:13Z</time>
      </trkpt>
      <trkpt lat="45.20892" lon="5.72677">
        <ele>720.324</ele>
        <time>2021-03-06T05:48:18Z</time>
      </trkpt>
      <trkpt lat="45.20902" lon="5.72676">
        <ele>723.517</ele>
        <time>2021-03-06T05:48:27Z</time>
      </trkpt>
      <trkpt lat="45.20908" lon="5.72672">
        <ele>724.823</ele>
        <time>2021-03-06T05:48:33Z</time>
      </trkpt>
      <trkpt lat="45.20917" lon="5.72674">
        <ele>726.777</ele>
        <time>2021-03-06T05:48:42Z</time>
      </trkpt>
      <trkpt lat="45.20923" lon="5.72679">
        <ele>728.688</ele>
        <time>2021-03-06T05:48:49Z</time>
      </trkpt>
      <trkpt lat="45.20929" lon="5.72682">
        <ele>729.573</ele>
        <time>2021-03-06T05:48:53Z</time>
      </trkpt>
      <trkpt lat="45.20932" lon="5.72683">
        <ele>730.204</ele>
        <time>2021-03-06T05:48:55Z</time>
      </trkpt>
      <trkpt lat="45.20935" lon="5.72686">
        <ele>730.343</ele>
        <time>2021-03-06T05:48:57Z</time>
      </trkpt>
      <trkpt lat="45.20945" lon="5.72698">
        <ele>732.829</ele>
        <time>2021-03-06T05:49:05Z</time>
      </trkpt>
      <trkpt lat="45.20951" lon="5.72705">
        <ele>735.024</ele>
        <time>2021-03-06T05:49:13Z</time>
      </trkpt>
      <trkpt lat="45.20956" lon="5.72711">
        <ele>737.646</ele>
        <time>2021-03-06T05:49:20Z</time>
      </trkpt>
      <trkpt lat="45.20963" lon="5.72718">
        <ele>740.027</ele>
        <time>2021-03-06T05:49:28Z</time>
      </trkpt>
      <trkpt lat="45.20968" lon="5.72722">
        <ele>741.37</ele>
        <time>2021-03-06T05:49:34Z</time>
      </trkpt>
      <trkpt lat="45.20974" lon="5.72727">
        <ele>743.959</ele>
        <time>2021-03-06T05:49:40Z</time>
      </trkpt>
      <trkpt lat="45.2098" lon="5.72739">
        <ele>747.017</ele>
        <time>2021-03-06T05:49:49Z</time>
      </trkpt>
      <trkpt lat="45.20982" lon="5.72745">
        <ele>747.899</ele>
        <time>2021-03-06T05:49:55Z</time>
      </trkpt>
      <trkpt lat="45.20986" lon="5.72753">
        <ele>749.794</ele>
        <time>2021-03-06T05:50:03Z</time>
      </trkpt>
      <trkpt lat="45.20991" lon="5.72757">
        <ele>753.411</ele>
        <time>2021-03-06T05:50:09Z</time>
      </trkpt>
      <trkpt lat="45.20993" lon="5.72755">
        <ele>755.326</ele>
        <time>2021-03-06T05:50:15Z</time>
      </trkpt>
      <trkpt lat="45.20997" lon="5.72754">
        <ele>757.636</ele>
        <time>2021-03-06T05:50:23Z</time>
      </trkpt>
      <trkpt lat="45.20999" lon="5.7275">
        <ele>760.006</ele>
        <time>2021-03-06T05:50:29Z</time>
      </trkpt>
      <trkpt lat="45.21003" lon="5.72746">
        <ele>761.517</ele>
        <time>2021-03-06T05:50:35Z</time>
      </trkpt>
      <trkpt lat="45.21009" lon="5.72743">
        <ele>763.451</ele>
        <time>2021-03-06T05:50:42Z</time>
      </trkpt>
      <trkpt lat="45.21012" lon="5.7274">
        <ele>764.921</ele>
        <time>2021-03-06T05:50:46Z</time>
      </trkpt>
      <trkpt lat="45.21013" lon="5.7274">
        <ele>765.975</ele>
        <time>2021-03-06T05:50:48Z</time>
      </trkpt>
      <trkpt lat="45.21015" lon="5.7274">
        <ele>766.281</ele>
        <time>2021-03-06T05:50:50Z</time>
      </trkpt>
      <trkpt lat="45.21023" lon="5.72738">
        <ele>768.434</ele>
        <time>2021-03-06T05:50:58Z</time>
      </trkpt>
      <trkpt lat="45.21028" lon="5.72739">
        <ele>770.9</ele>
        <time>2021-03-06T05:51:06Z</time>
      </trkpt>
      <trkpt lat="45.21034" lon="5.72739">
        <ele>772.407</ele>
        <time>2021-03-06T05:51:13Z</time>
      </trkpt>
      <trkpt lat="45.2104" lon="5.72739">
        <ele>774.708</ele>
        <time>2021-03-06T05:51:21Z</time>
      </trkpt>
      <trkpt lat="45.21042" lon="5.7274">
        <ele>776.024</ele>
        <time>2021-03-06T05:51:23Z</time>
      </trkpt>
      <trkpt lat="45.21053" lon="5.72766">
        <ele>776.795</ele>
        <time>2021-03-06T05:51:37Z</time>
      </trkpt>
      <trkpt lat="45.21055" lon="5.72776">
        <ele>779.807</ele>
        <time>2021-03-06T05:51:42Z</time>
      </trkpt>
      <trkpt lat="45.21058" lon="5.72782">
        <ele>779.684</ele>
        <time>2021-03-06T05:51:46Z</time>
      </trkpt>
      <trkpt lat="45.21062" lon="5.72792">
        <ele>779.907</ele>
        <time>2021-03-06T05:51:50Z</time>
      </trkpt>
      <trkpt lat="45.21064" lon="5.728">
        <ele>780.35</ele>
        <time>2021-03-06T05:51:54Z</time>
      </trkpt>
      <trkpt lat="45.21069" lon="5.72819">
        <ele>781.208</ele>
        <time>2021-03-06T05:52:01Z</time>
      </trkpt>
      <trkpt lat="45.21076" lon="5.72831">
        <ele>780.939</ele>
        <time>2021-03-06T05:52:06Z</time>
      </trkpt>
      <trkpt lat="45.21079" lon="5.72836">
        <ele>781.831</ele>
        <time>2021-03-06T05:52:09Z</time>
      </trkpt>
      <trkpt lat="45.21088" lon="5.72847">
        <ele>782.195</ele>
        <time>2021-03-06T05:52:17Z</time>
      </trkpt>
      <trkpt lat="45.21091" lon="5.72849">
        <ele>782.484</ele>
        <time>2021-03-06T05:52:19Z</time>
      </trkpt>
      <trkpt lat="45.21103" lon="5.72858">
        <ele>785.31</ele>
        <time>2021-03-06T05:52:28Z</time>
      </trkpt>
      <trkpt lat="45.2111" lon="5.72866">
        <ele>786.412</ele>
        <time>2021-03-06T05:52:34Z</time>
      </trkpt>
      <trkpt lat="45.21113" lon="5.72869">
        <ele>787.808</ele>
        <time>2021-03-06T05:52:37Z</time>
      </trkpt>
      <trkpt lat="45.21114" lon="5.72871">
        <ele>788.32</ele>
        <time>2021-03-06T05:52:39Z</time>
      </trkpt>
      <trkpt lat="45.21126" lon="5.72879">
        <ele>790.728</ele>
        <time>2021-03-06T05:52:47Z</time>
      </trkpt>
      <trkpt lat="45.21132" lon="5.72885">
        <ele>791.85</ele>
        <time>2021-03-06T05:52:53Z</time>
      </trkpt>
      <trkpt lat="45.21143" lon="5.72887">
        <ele>795.07</ele>
        <time>2021-03-06T05:53:00Z</time>
      </trkpt>
      <trkpt lat="45.21145" lon="5.72887">
        <ele>794.996</ele>
        <time>2021-03-06T05:53:01Z</time>
      </trkpt>
      <trkpt lat="45.21156" lon="5.72891">
        <ele>797.379</ele>
        <time>2021-03-06T05:53:10Z</time>
      </trkpt>
      <trkpt lat="45.21166" lon="5.72894">
        <ele>798.789</ele>
        <time>2021-03-06T05:53:16Z</time>
      </trkpt>
      <trkpt lat="45.21175" lon="5.72899">
        <ele>800.368</ele>
        <time>2021-03-06T05:53:22Z</time>
      </trkpt>
      <trkpt lat="45.21186" lon="5.72909">
        <ele>802.082</ele>
        <time>2021-03-06T05:53:30Z</time>
      </trkpt>
      <trkpt lat="45.21192" lon="5.72915">
        <ele>803.405</ele>
        <time>2021-03-06T05:53:35Z</time>
      </trkpt>
      <trkpt lat="45.21195" lon="5.72918">
        <ele>803.859</ele>
        <time>2021-03-06T05:53:37Z</time>
      </trkpt>
      <trkpt lat="45.21199" lon="5.72925">
        <ele>805.054</ele>
        <time>2021-03-06T05:53:43Z</time>
      </trkpt>
      <trkpt lat="45.21207" lon="5.72936">
        <ele>806.03</ele>
        <time>2021-03-06T05:53:50Z</time>
      </trkpt>
      <trkpt lat="45.21214" lon="5.72941">
        <ele>808.285</ele>
        <time>2021-03-06T05:53:58Z</time>
      </trkpt>
      <trkpt lat="45.21213" lon="5.7294">
        <ele>809.333</ele>
        <time>2021-03-06T05:54:03Z</time>
      </trkpt>
      <trkpt lat="45.2121" lon="5.72932">
        <ele>810.4</ele>
        <time>2021-03-06T05:54:10Z</time>
      </trkpt>
      <trkpt lat="45.2121" lon="5.72929">
        <ele>811.794</ele>
        <time>2021-03-06T05:54:13Z</time>
      </trkpt>
      <trkpt lat="45.2121" lon="5.72919">
        <ele>813.829</ele>
        <time>2021-03-06T05:54:19Z</time>
      </trkpt>
      <trkpt lat="45.21216" lon="5.72919">
        <ele>816.507</ele>
        <time>2021-03-06T05:54:27Z</time>
      </trkpt>
      <trkpt lat="45.21224" lon="5.72922">
        <ele>818.458</ele>
        <time>2021-03-06T05:54:35Z</time>
      </trkpt>
      <trkpt lat="45.21224" lon="5.72925">
        <ele>818.777</ele>
        <time>2021-03-06T05:54:37Z</time>
      </trkpt>
      <trkpt lat="45.2123" lon="5.72932">
        <ele>820.843</ele>
        <time>2021-03-06T05:54:44Z</time>
      </trkpt>
      <trkpt lat="45.21242" lon="5.72936">
        <ele>822.43</ele>
        <time>2021-03-06T05:54:52Z</time>
      </trkpt>
      <trkpt lat="45.21248" lon="5.72937">
        <ele>823.028</ele>
        <time>2021-03-06T05:54:59Z</time>
      </trkpt>
      <trkpt lat="45.21255" lon="5.7294">
        <ele>825.156</ele>
        <time>2021-03-06T05:55:04Z</time>
      </trkpt>
      <trkpt lat="45.21261" lon="5.72945">
        <ele>826.721</ele>
        <time>2021-03-06T05:55:11Z</time>
      </trkpt>
      <trkpt lat="45.21267" lon="5.72948">
        <ele>828.737</ele>
        <time>2021-03-06T05:55:19Z</time>
      </trkpt>
      <trkpt lat="45.21271" lon="5.72948">
        <ele>829.879</ele>
        <time>2021-03-06T05:55:24Z</time>
      </trkpt>
      <trkpt lat="45.21278" lon="5.72951">
        <ele>831.704</ele>
        <time>2021-03-06T05:55:30Z</time>
      </trkpt>
      <trkpt lat="45.21282" lon="5.72958">
        <ele>831.933</ele>
        <time>2021-03-06T05:55:37Z</time>
      </trkpt>
      <trkpt lat="45.2129" lon="5.72965">
        <ele>832.5</ele>
        <time>2021-03-06T05:55:46Z</time>
      </trkpt>
      <trkpt lat="45.21293" lon="5.72971">
        <ele>834.541</ele>
        <time>2021-03-06T05:55:53Z</time>
      </trkpt>
      <trkpt lat="45.21296" lon="5.72976">
        <ele>836.344</ele>
        <time>2021-03-06T05:55:58Z</time>
      </trkpt>
      <trkpt lat="45.21305" lon="5.72979">
        <ele>837.772</ele>
        <time>2021-03-06T05:56:03Z</time>
      </trkpt>
      <trkpt lat="45.21312" lon="5.72984">
        <ele>839.274</ele>
        <time>2021-03-06T05:56:09Z</time>
      </trkpt>
      <trkpt lat="45.21321" lon="5.73">
        <ele>841.447</ele>
        <time>2021-03-06T05:56:18Z</time>
      </trkpt>
      <trkpt lat="45.21322" lon="5.73004">
        <ele>842.134</ele>
        <time>2021-03-06T05:56:21Z</time>
      </trkpt>
      <trkpt lat="45.21329" lon="5.73011">
        <ele>845.857</ele>
        <time>2021-03-06T05:56:29Z</time>
      </trkpt>
      <trkpt lat="45.21335" lon="5.73018">
        <ele>846.5</ele>
        <time>2021-03-06T05:56:37Z</time>
      </trkpt>
      <trkpt lat="45.21342" lon="5.73029">
        <ele>848.82</ele>
        <time>2021-03-06T05:56:45Z</time>
      </trkpt>
      <trkpt lat="45.21347" lon="5.73033">
        <ele>850.449</ele>
        <time>2021-03-06T05:56:51Z</time>
      </trkpt>
      <trkpt lat="45.21348" lon="5.73043">
        <ele>852.431</ele>
        <time>2021-03-06T05:56:58Z</time>
      </trkpt>
      <trkpt lat="45.21352" lon="5.73047">
        <ele>853.362</ele>
        <time>2021-03-06T05:57:02Z</time>
      </trkpt>
      <trkpt lat="45.21354" lon="5.73051">
        <ele>854.859</ele>
        <time>2021-03-06T05:57:05Z</time>
      </trkpt>
      <trkpt lat="45.2136" lon="5.73057">
        <ele>857.002</ele>
        <time>2021-03-06T05:57:12Z</time>
      </trkpt>
      <trkpt lat="45.21365" lon="5.73064">
        <ele>858.484</ele>
        <time>2021-03-06T05:57:20Z</time>
      </trkpt>
      <trkpt lat="45.21367" lon="5.73066">
        <ele>858.833</ele>
        <time>2021-03-06T05:57:22Z</time>
      </trkpt>
      <trkpt lat="45.21376" lon="5.73077">
        <ele>858.86</ele>
        <time>2021-03-06T05:57:28Z</time>
      </trkpt>
      <trkpt lat="45.21385" lon="5.7309">
        <ele>859.351</ele>
        <time>2021-03-06T05:57:35Z</time>
      </trkpt>
      <trkpt lat="45.21398" lon="5.73105">
        <ele>859.804</ele>
        <time>2021-03-06T05:57:43Z</time>
      </trkpt>
      <trkpt lat="45.21405" lon="5.73118">
        <ele>860.562</ele>
        <time>2021-03-06T05:57:51Z</time>
      </trkpt>
      <trkpt lat="45.21413" lon="5.73129">
        <ele>861.198</ele>
        <time>2021-03-06T05:57:57Z</time>
      </trkpt>
      <trkpt lat="45.21414" lon="5.73135">
        <ele>861.492</ele>
        <time>2021-03-06T05:58:00Z</time>
      </trkpt>
      <trkpt lat="45.21418" lon="5.7314">
        <ele>862.304</ele>
        <time>2021-03-06T05:58:03Z</time>
      </trkpt>
      <trkpt lat="45.21422" lon="5.73143">
        <ele>863.538</ele>
        <time>2021-03-06T05:58:06Z</time>
      </trkpt>
      <trkpt lat="45.21431" lon="5.73148">
        <ele>865.634</ele>
        <time>2021-03-06T05:58:13Z</time>
      </trkpt>
      <trkpt lat="45.21433" lon="5.73148">
        <ele>865.641</ele>
        <time>2021-03-06T05:58:14Z</time>
      </trkpt>
      <trkpt lat="45.2144" lon="5.7315">
        <ele>866.541</ele>
        <time>2021-03-06T05:58:19Z</time>
      </trkpt>
      <trkpt lat="45.21446" lon="5.73158">
        <ele>869.333</ele>
        <time>2021-03-06T05:58:29Z</time>
      </trkpt>
      <trkpt lat="45.2145" lon="5.73163">
        <ele>869.865</ele>
        <time>2021-03-06T05:58:33Z</time>
      </trkpt>
      <trkpt lat="45.21457" lon="5.73172">
        <ele>872.017</ele>
        <time>2021-03-06T05:58:40Z</time>
      </trkpt>
      <trkpt lat="45.21461" lon="5.7318">
        <ele>873.454</ele>
        <time>2021-03-06T05:58:45Z</time>
      </trkpt>
      <trkpt lat="45.21466" lon="5.73183">
        <ele>875.119</ele>
        <time>2021-03-06T05:58:50Z</time>
      </trkpt>
      <trkpt lat="45.21471" lon="5.73187">
        <ele>877.041</ele>
        <time>2021-03-06T05:58:56Z</time>
      </trkpt>
      <trkpt lat="45.21473" lon="5.73193">
        <ele>877.86</ele>
        <time>2021-03-06T05:59:01Z</time>
      </trkpt>
      <trkpt lat="45.21475" lon="5.73203">
        <ele>878.671</ele>
        <time>2021-03-06T05:59:06Z</time>
      </trkpt>
      <trkpt lat="45.21474" lon="5.73208">
        <ele>878.427</ele>
        <time>2021-03-06T05:59:08Z</time>
      </trkpt>
      <trkpt lat="45.21476" lon="5.73217">
        <ele>878.65</ele>
        <time>2021-03-06T05:59:12Z</time>
      </trkpt>
      <trkpt lat="45.21485" lon="5.7323">
        <ele>879.854</ele>
        <time>2021-03-06T05:59:19Z</time>
      </trkpt>
      <trkpt lat="45.21494" lon="5.73239">
        <ele>881.817</ele>
        <time>2021-03-06T05:59:27Z</time>
      </trkpt>
      <trkpt lat="45.21503" lon="5.73247">
        <ele>884.993</ele>
        <time>2021-03-06T05:59:34Z</time>
      </trkpt>
      <trkpt lat="45.21503" lon="5.73248">
        <ele>884.967</ele>
        <time>2021-03-06T05:59:35Z</time>
      </trkpt>
      <trkpt lat="45.21511" lon="5.7326">
        <ele>887.213</ele>
        <time>2021-03-06T05:59:42Z</time>
      </trkpt>
      <trkpt lat="45.21513" lon="5.73265">
        <ele>887.864</ele>
        <time>2021-03-06T05:59:44Z</time>
      </trkpt>
      <trkpt lat="45.21514" lon="5.73287">
        <ele>887.109</ele>
        <time>2021-03-06T05:59:52Z</time>
      </trkpt>
      <trkpt lat="45.21516" lon="5.73299">
        <ele>887.739</ele>
        <time>2021-03-06T05:59:57Z</time>
      </trkpt>
      <trkpt lat="45.21517" lon="5.73308">
        <ele>888.65</ele>
        <time>2021-03-06T06:00:01Z</time>
      </trkpt>
      <trkpt lat="45.21525" lon="5.73316">
        <ele>889.468</ele>
        <time>2021-03-06T06:00:09Z</time>
      </trkpt>
      <trkpt lat="45.21528" lon="5.73317">
        <ele>889.671</ele>
        <time>2021-03-06T06:00:11Z</time>
      </trkpt>
      <trkpt lat="45.21536" lon="5.73318">
        <ele>890.71</ele>
        <time>2021-03-06T06:00:17Z</time>
      </trkpt>
      <trkpt lat="45.21543" lon="5.73319">
        <ele>891.666</ele>
        <time>2021-03-06T06:00:22Z</time>
      </trkpt>
      <trkpt lat="45.21552" lon="5.73321">
        <ele>892.634</ele>
        <time>2021-03-06T06:00:27Z</time>
      </trkpt>
      <trkpt lat="45.2156" lon="5.73326">
        <ele>894.094</ele>
        <time>2021-03-06T06:00:33Z</time>
      </trkpt>
      <trkpt lat="45.2157" lon="5.73332">
        <ele>895.679</ele>
        <time>2021-03-06T06:00:39Z</time>
      </trkpt>
      <trkpt lat="45.21578" lon="5.73338">
        <ele>896.701</ele>
        <time>2021-03-06T06:00:46Z</time>
      </trkpt>
      <trkpt lat="45.21584" lon="5.73343">
        <ele>897.781</ele>
        <time>2021-03-06T06:00:51Z</time>
      </trkpt>
      <trkpt lat="45.21589" lon="5.73344">
        <ele>898.937</ele>
        <time>2021-03-06T06:00:57Z</time>
      </trkpt>
      <trkpt lat="45.21593" lon="5.73347">
        <ele>900.286</ele>
        <time>2021-03-06T06:01:01Z</time>
      </trkpt>
      <trkpt lat="45.216" lon="5.73355">
        <ele>902.352</ele>
        <time>2021-03-06T06:01:08Z</time>
      </trkpt>
      <trkpt lat="45.21609" lon="5.73367">
        <ele>903.583</ele>
        <time>2021-03-06T06:01:15Z</time>
      </trkpt>
      <trkpt lat="45.21615" lon="5.73376">
        <ele>905.956</ele>
        <time>2021-03-06T06:01:21Z</time>
      </trkpt>
      <trkpt lat="45.21617" lon="5.73377">
        <ele>906.044</ele>
        <time>2021-03-06T06:01:23Z</time>
      </trkpt>
      <trkpt lat="45.21629" lon="5.73384">
        <ele>909.61</ele>
        <time>2021-03-06T06:01:33Z</time>
      </trkpt>
      <trkpt lat="45.21636" lon="5.73391">
        <ele>910.642</ele>
        <time>2021-03-06T06:01:40Z</time>
      </trkpt>
      <trkpt lat="45.21646" lon="5.73399">
        <ele>911.18</ele>
        <time>2021-03-06T06:01:47Z</time>
      </trkpt>
      <trkpt lat="45.21658" lon="5.73413">
        <ele>911.729</ele>
        <time>2021-03-06T06:01:55Z</time>
      </trkpt>
      <trkpt lat="45.21661" lon="5.73419">
        <ele>912.096</ele>
        <time>2021-03-06T06:01:58Z</time>
      </trkpt>
      <trkpt lat="45.21667" lon="5.7344">
        <ele>913.565</ele>
        <time>2021-03-06T06:02:06Z</time>
      </trkpt>
      <trkpt lat="45.2167" lon="5.73458">
        <ele>914.932</ele>
        <time>2021-03-06T06:02:13Z</time>
      </trkpt>
      <trkpt lat="45.21671" lon="5.73468">
        <ele>916.047</ele>
        <time>2021-03-06T06:02:17Z</time>
      </trkpt>
      <trkpt lat="45.21675" lon="5.73481">
        <ele>916.681</ele>
        <time>2021-03-06T06:02:23Z</time>
      </trkpt>
      <trkpt lat="45.21677" lon="5.7348">
        <ele>918.013</ele>
        <time>2021-03-06T06:02:26Z</time>
      </trkpt>
      <trkpt lat="45.21677" lon="5.73478">
        <ele>918.024</ele>
        <time>2021-03-06T06:02:28Z</time>
      </trkpt>
      <trkpt lat="45.21675" lon="5.73469">
        <ele>919.756</ele>
        <time>2021-03-06T06:02:34Z</time>
      </trkpt>
      <trkpt lat="45.21674" lon="5.73448">
        <ele>921.371</ele>
        <time>2021-03-06T06:02:45Z</time>
      </trkpt>
      <trkpt lat="45.21675" lon="5.73434">
        <ele>924.474</ele>
        <time>2021-03-06T06:02:53Z</time>
      </trkpt>
      <trkpt lat="45.21672" lon="5.73427">
        <ele>925.577</ele>
        <time>2021-03-06T06:02:59Z</time>
      </trkpt>
      <trkpt lat="45.21668" lon="5.73419">
        <ele>927.31</ele>
        <time>2021-03-06T06:03:04Z</time>
      </trkpt>
      <trkpt lat="45.21665" lon="5.73412">
        <ele>929.189</ele>
        <time>2021-03-06T06:03:10Z</time>
      </trkpt>
      <trkpt lat="45.2166" lon="5.73409">
        <ele>930.178</ele>
        <time>2021-03-06T06:03:16Z</time>
      </trkpt>
      <trkpt lat="45.21665" lon="5.73384">
        <ele>933.633</ele>
        <time>2021-03-06T06:03:28Z</time>
      </trkpt>
      <trkpt lat="45.21665" lon="5.7337">
        <ele>935.153</ele>
        <time>2021-03-06T06:03:36Z</time>
      </trkpt>
      <trkpt lat="45.21657" lon="5.73368">
        <ele>935.914</ele>
        <time>2021-03-06T06:03:39Z</time>
      </trkpt>
      <trkpt lat="45.21638" lon="5.73362">
        <ele>938.716</ele>
        <time>2021-03-06T06:03:49Z</time>
      </trkpt>
      <trkpt lat="45.21636" lon="5.73361">
        <ele>940.26</ele>
        <time>2021-03-06T06:03:51Z</time>
      </trkpt>
      <trkpt lat="45.21635" lon="5.73359">
        <ele>941.179</ele>
        <time>2021-03-06T06:03:54Z</time>
      </trkpt>
      <trkpt lat="45.21637" lon="5.73346">
        <ele>942.469</ele>
        <time>2021-03-06T06:04:02Z</time>
      </trkpt>
      <trkpt lat="45.21642" lon="5.73332">
        <ele>944.57</ele>
        <time>2021-03-06T06:04:09Z</time>
      </trkpt>
      <trkpt lat="45.21642" lon="5.73318">
        <ele>947.113</ele>
        <time>2021-03-06T06:04:17Z</time>
      </trkpt>
      <trkpt lat="45.21641" lon="5.73301">
        <ele>947.98</ele>
        <time>2021-03-06T06:04:26Z</time>
      </trkpt>
      <trkpt lat="45.21636" lon="5.73285">
        <ele>950.633</ele>
        <time>2021-03-06T06:04:36Z</time>
      </trkpt>
      <trkpt lat="45.21631" lon="5.73273">
        <ele>951.837</ele>
        <time>2021-03-06T06:04:44Z</time>
      </trkpt>
      <trkpt lat="45.21625" lon="5.73257">
        <ele>954.233</ele>
        <time>2021-03-06T06:04:54Z</time>
      </trkpt>
      <trkpt lat="45.21617" lon="5.73243">
        <ele>955.594</ele>
        <time>2021-03-06T06:05:04Z</time>
      </trkpt>
      <trkpt lat="45.21612" lon="5.73237">
        <ele>958.955</ele>
        <time>2021-03-06T06:05:11Z</time>
      </trkpt>
      <trkpt lat="45.21609" lon="5.73231">
        <ele>961.357</ele>
        <time>2021-03-06T06:05:17Z</time>
      </trkpt>
      <trkpt lat="45.21605" lon="5.73224">
        <ele>963.365</ele>
        <time>2021-03-06T06:05:24Z</time>
      </trkpt>
      <trkpt lat="45.21599" lon="5.73215">
        <ele>963.716</ele>
        <time>2021-03-06T06:05:32Z</time>
      </trkpt>
      <trkpt lat="45.21593" lon="5.73206">
        <ele>965.461</ele>
        <time>2021-03-06T06:05:40Z</time>
      </trkpt>
      <trkpt lat="45.21586" lon="5.73199">
        <ele>967.519</ele>
        <time>2021-03-06T06:05:47Z</time>
      </trkpt>
      <trkpt lat="45.21578" lon="5.73193">
        <ele>968.775</ele>
        <time>2021-03-06T06:05:54Z</time>
      </trkpt>
      <trkpt lat="45.2157" lon="5.7318">
        <ele>971.171</ele>
        <time>2021-03-06T06:06:03Z</time>
      </trkpt>
      <trkpt lat="45.21569" lon="5.73176">
        <ele>973.542</ele>
        <time>2021-03-06T06:06:08Z</time>
      </trkpt>
      <trkpt lat="45.21568" lon="5.73166">
        <ele>975.541</ele>
        <time>2021-03-06T06:06:15Z</time>
      </trkpt>
      <trkpt lat="45.21569" lon="5.7316">
        <ele>977.574</ele>
        <time>2021-03-06T06:06:22Z</time>
      </trkpt>
      <trkpt lat="45.21571" lon="5.73152">
        <ele>979.284</ele>
        <time>2021-03-06T06:06:30Z</time>
      </trkpt>
      <trkpt lat="45.21571" lon="5.73147">
        <ele>981.061</ele>
        <time>2021-03-06T06:06:36Z</time>
      </trkpt>
      <trkpt lat="45.21573" lon="5.7314">
        <ele>983.751</ele>
        <time>2021-03-06T06:06:42Z</time>
      </trkpt>
      <trkpt lat="45.21577" lon="5.73137">
        <ele>987.669</ele>
        <time>2021-03-06T06:06:48Z</time>
      </trkpt>
      <trkpt lat="45.21578" lon="5.73137">
        <ele>987.742</ele>
        <time>2021-03-06T06:06:49Z</time>
      </trkpt>
      <trkpt lat="45.21579" lon="5.73129">
        <ele>989.152</ele>
        <time>2021-03-06T06:06:57Z</time>
      </trkpt>
      <trkpt lat="45.21583" lon="5.73122">
        <ele>992.081</ele>
        <time>2021-03-06T06:07:07Z</time>
      </trkpt>
      <trkpt lat="45.21583" lon="5.7312">
        <ele>992.053</ele>
        <time>2021-03-06T06:07:09Z</time>
      </trkpt>
      <trkpt lat="45.2159" lon="5.73117">
        <ele>994.24</ele>
        <time>2021-03-06T06:07:16Z</time>
      </trkpt>
      <trkpt lat="45.21602" lon="5.73124">
        <ele>996.431</ele>
        <time>2021-03-06T06:07:26Z</time>
      </trkpt>
      <trkpt lat="45.21608" lon="5.73127">
        <ele>998.577</ele>
        <time>2021-03-06T06:07:32Z</time>
      </trkpt>
      <trkpt lat="45.21616" lon="5.73131">
        <ele>1000.457</ele>
        <time>2021-03-06T06:07:39Z</time>
      </trkpt>
      <trkpt lat="45.21623" lon="5.73136">
        <ele>1002.176</ele>
        <time>2021-03-06T06:07:46Z</time>
      </trkpt>
      <trkpt lat="45.21628" lon="5.73137">
        <ele>1003.229</ele>
        <time>2021-03-06T06:07:52Z</time>
      </trkpt>
      <trkpt lat="45.21634" lon="5.73132">
        <ele>1005.299</ele>
        <time>2021-03-06T06:07:59Z</time>
      </trkpt>
      <trkpt lat="45.21638" lon="5.73131">
        <ele>1007.195</ele>
        <time>2021-03-06T06:08:03Z</time>
      </trkpt>
      <trkpt lat="45.21645" lon="5.73131">
        <ele>1008.64</ele>
        <time>2021-03-06T06:08:10Z</time>
      </trkpt>
      <trkpt lat="45.21652" lon="5.73132">
        <ele>1011.233</ele>
        <time>2021-03-06T06:08:17Z</time>
      </trkpt>
      <trkpt lat="45.21661" lon="5.73136">
        <ele>1013.261</ele>
        <time>2021-03-06T06:08:26Z</time>
      </trkpt>
      <trkpt lat="45.21667" lon="5.73139">
        <ele>1016.745</ele>
        <time>2021-03-06T06:08:34Z</time>
      </trkpt>
      <trkpt lat="45.21668" lon="5.7314">
        <ele>1016.368</ele>
        <time>2021-03-06T06:08:35Z</time>
      </trkpt>
      <trkpt lat="45.21673" lon="5.73146">
        <ele>1018.109</ele>
        <time>2021-03-06T06:08:42Z</time>
      </trkpt>
      <trkpt lat="45.21677" lon="5.73152">
        <ele>1019.394</ele>
        <time>2021-03-06T06:08:49Z</time>
      </trkpt>
      <trkpt lat="45.21679" lon="5.73157">
        <ele>1021.251</ele>
        <time>2021-03-06T06:08:54Z</time>
      </trkpt>
      <trkpt lat="45.21683" lon="5.73163">
        <ele>1023.724</ele>
        <time>2021-03-06T06:09:00Z</time>
      </trkpt>
      <trkpt lat="45.21686" lon="5.73169">
        <ele>1025.068</ele>
        <time>2021-03-06T06:09:06Z</time>
      </trkpt>
      <trkpt lat="45.21692" lon="5.73181">
        <ele>1026.669</ele>
        <time>2021-03-06T06:09:15Z</time>
      </trkpt>
      <trkpt lat="45.21697" lon="5.7319">
        <ele>1027.294</ele>
        <time>2021-03-06T06:09:22Z</time>
      </trkpt>
      <trkpt lat="45.21699" lon="5.73193">
        <ele>1027.42</ele>
        <time>2021-03-06T06:09:24Z</time>
      </trkpt>
      <trkpt lat="45.21705" lon="5.73201">
        <ele>1028.386</ele>
        <time>2021-03-06T06:09:30Z</time>
      </trkpt>
      <trkpt lat="45.21712" lon="5.7321">
        <ele>1029.774</ele>
        <time>2021-03-06T06:09:37Z</time>
      </trkpt>
      <trkpt lat="45.21714" lon="5.73213">
        <ele>1029.135</ele>
        <time>2021-03-06T06:09:39Z</time>
      </trkpt>
      <trkpt lat="45.21721" lon="5.73218">
        <ele>1030.511</ele>
        <time>2021-03-06T06:09:46Z</time>
      </trkpt>
      <trkpt lat="45.21726" lon="5.73214">
        <ele>1032.079</ele>
        <time>2021-03-06T06:09:52Z</time>
      </trkpt>
      <trkpt lat="45.21729" lon="5.7321">
        <ele>1033.748</ele>
        <time>2021-03-06T06:09:57Z</time>
      </trkpt>
      <trkpt lat="45.21733" lon="5.73204">
        <ele>1034.12</ele>
        <time>2021-03-06T06:10:02Z</time>
      </trkpt>
      <trkpt lat="45.21738" lon="5.73202">
        <ele>1033.943</ele>
        <time>2021-03-06T06:10:08Z</time>
      </trkpt>
      <trkpt lat="45.21741" lon="5.732">
        <ele>1033.609</ele>
        <time>2021-03-06T06:10:12Z</time>
      </trkpt>
      <trkpt lat="45.21744" lon="5.73202">
        <ele>1032.782</ele>
        <time>2021-03-06T06:10:14Z</time>
      </trkpt>
      <trkpt lat="45.21751" lon="5.7321">
        <ele>1033.764</ele>
        <time>2021-03-06T06:10:20Z</time>
      </trkpt>
      <trkpt lat="45.21756" lon="5.73215">
        <ele>1035.2</ele>
        <time>2021-03-06T06:10:26Z</time>
      </trkpt>
      <trkpt lat="45.21757" lon="5.73217">
        <ele>1036.057</ele>
        <time>2021-03-06T06:10:28Z</time>
      </trkpt>
      <trkpt lat="45.21762" lon="5.73221">
        <ele>1037.547</ele>
        <time>2021-03-06T06:10:34Z</time>
      </trkpt>
      <trkpt lat="45.21768" lon="5.73231">
        <ele>1037.861</ele>
        <time>2021-03-06T06:10:41Z</time>
      </trkpt>
      <trkpt lat="45.2177" lon="5.73232">
        <ele>1037.396</ele>
        <time>2021-03-06T06:10:44Z</time>
      </trkpt>
      <trkpt lat="45.21776" lon="5.73242">
        <ele>1037.789</ele>
        <time>2021-03-06T06:10:51Z</time>
      </trkpt>
      <trkpt lat="45.21777" lon="5.73244">
        <ele>1038.236</ele>
        <time>2021-03-06T06:10:53Z</time>
      </trkpt>
      <trkpt lat="45.21781" lon="5.73253">
        <ele>1040.138</ele>
        <time>2021-03-06T06:10:59Z</time>
      </trkpt>
      <trkpt lat="45.21781" lon="5.73254">
        <ele>1040.282</ele>
        <time>2021-03-06T06:11:00Z</time>
      </trkpt>
      <trkpt lat="45.21783" lon="5.7326">
        <ele>1042.212</ele>
        <time>2021-03-06T06:11:06Z</time>
      </trkpt>
      <trkpt lat="45.21782" lon="5.73261">
        <ele>1043.483</ele>
        <time>2021-03-06T06:11:08Z</time>
      </trkpt>
      <trkpt lat="45.21779" lon="5.73267">
        <ele>1043.008</ele>
        <time>2021-03-06T06:11:13Z</time>
      </trkpt>
      <trkpt lat="45.21784" lon="5.73277">
        <ele>1043.399</ele>
        <time>2021-03-06T06:11:20Z</time>
      </trkpt>
      <trkpt lat="45.2179" lon="5.73283">
        <ele>1044.888</ele>
        <time>2021-03-06T06:11:28Z</time>
      </trkpt>
      <trkpt lat="45.21796" lon="5.73288">
        <ele>1046.314</ele>
        <time>2021-03-06T06:11:34Z</time>
      </trkpt>
      <trkpt lat="45.21801" lon="5.73294">
        <ele>1046.476</ele>
        <time>2021-03-06T06:11:40Z</time>
      </trkpt>
      <trkpt lat="45.21805" lon="5.73298">
        <ele>1047.477</ele>
        <time>2021-03-06T06:11:44Z</time>
      </trkpt>
      <trkpt lat="45.21809" lon="5.73308">
        <ele>1049.258</ele>
        <time>2021-03-06T06:11:49Z</time>
      </trkpt>
      <trkpt lat="45.21818" lon="5.73313">
        <ele>1050.18</ele>
        <time>2021-03-06T06:11:55Z</time>
      </trkpt>
      <trkpt lat="45.21822" lon="5.73317">
        <ele>1051.564</ele>
        <time>2021-03-06T06:12:00Z</time>
      </trkpt>
      <trkpt lat="45.21823" lon="5.73319">
        <ele>1051.715</ele>
        <time>2021-03-06T06:12:01Z</time>
      </trkpt>
      <trkpt lat="45.21824" lon="5.7332">
        <ele>1052.336</ele>
        <time>2021-03-06T06:12:02Z</time>
      </trkpt>
      <trkpt lat="45.21826" lon="5.73322">
        <ele>1053.017</ele>
        <time>2021-03-06T06:12:04Z</time>
      </trkpt>
      <trkpt lat="45.21834" lon="5.7333">
        <ele>1054.3</ele>
        <time>2021-03-06T06:12:11Z</time>
      </trkpt>
      <trkpt lat="45.21837" lon="5.73334">
        <ele>1055.158</ele>
        <time>2021-03-06T06:12:14Z</time>
      </trkpt>
      <trkpt lat="45.21848" lon="5.73345">
        <ele>1056.638</ele>
        <time>2021-03-06T06:12:22Z</time>
      </trkpt>
      <trkpt lat="45.21854" lon="5.73351">
        <ele>1054.687</ele>
        <time>2021-03-06T06:12:31Z</time>
      </trkpt>
      <trkpt lat="45.2186" lon="5.73354">
        <ele>1051.755</ele>
        <time>2021-03-06T06:12:38Z</time>
      </trkpt>
      <trkpt lat="45.21862" lon="5.73356">
        <ele>1049.453</ele>
        <time>2021-03-06T06:12:43Z</time>
      </trkpt>
      <trkpt lat="45.21863" lon="5.73358">
        <ele>1049.658</ele>
        <time>2021-03-06T06:12:44Z</time>
      </trkpt>
      <trkpt lat="45.2187" lon="5.73363">
        <ele>1047.565</ele>
        <time>2021-03-06T06:12:48Z</time>
      </trkpt>
      <trkpt lat="45.21875" lon="5.73366">
        <ele>1046.206</ele>
        <time>2021-03-06T06:12:53Z</time>
      </trkpt>
      <trkpt lat="45.21878" lon="5.73369">
        <ele>1045.434</ele>
        <time>2021-03-06T06:12:55Z</time>
      </trkpt>
      <trkpt lat="45.21884" lon="5.73375">
        <ele>1045.981</ele>
        <time>2021-03-06T06:12:59Z</time>
      </trkpt>
      <trkpt lat="45.21891" lon="5.7338">
        <ele>1046.613</ele>
        <time>2021-03-06T06:13:04Z</time>
      </trkpt>
      <trkpt lat="45.21905" lon="5.73385">
        <ele>1047.447</ele>
        <time>2021-03-06T06:13:13Z</time>
      </trkpt>
      <trkpt lat="45.2191" lon="5.7339">
        <ele>1046.339</ele>
        <time>2021-03-06T06:13:18Z</time>
      </trkpt>
      <trkpt lat="45.21918" lon="5.73396">
        <ele>1045.759</ele>
        <time>2021-03-06T06:13:23Z</time>
      </trkpt>
      <trkpt lat="45.21933" lon="5.73412">
        <ele>1046.387</ele>
        <time>2021-03-06T06:13:31Z</time>
      </trkpt>
      <trkpt lat="45.21938" lon="5.73422">
        <ele>1047.767</ele>
        <time>2021-03-06T06:13:37Z</time>
      </trkpt>
      <trkpt lat="45.21941" lon="5.73427">
        <ele>1049.495</ele>
        <time>2021-03-06T06:13:40Z</time>
      </trkpt>
      <trkpt lat="45.21951" lon="5.73427">
        <ele>1050.748</ele>
        <time>2021-03-06T06:13:47Z</time>
      </trkpt>
      <trkpt lat="45.21959" lon="5.73425">
        <ele>1050.91</ele>
        <time>2021-03-06T06:13:52Z</time>
      </trkpt>
      <trkpt lat="45.21972" lon="5.73432">
        <ele>1052.372</ele>
        <time>2021-03-06T06:13:59Z</time>
      </trkpt>
      <trkpt lat="45.2198" lon="5.73435">
        <ele>1053.139</ele>
        <time>2021-03-06T06:14:04Z</time>
      </trkpt>
      <trkpt lat="45.21986" lon="5.73439">
        <ele>1054.443</ele>
        <time>2021-03-06T06:14:08Z</time>
      </trkpt>
      <trkpt lat="45.22001" lon="5.73439">
        <ele>1055.757</ele>
        <time>2021-03-06T06:14:15Z</time>
      </trkpt>
      <trkpt lat="45.22016" lon="5.73451">
        <ele>1053.74</ele>
        <time>2021-03-06T06:14:23Z</time>
      </trkpt>
      <trkpt lat="45.22025" lon="5.73459">
        <ele>1052.814</ele>
        <time>2021-03-06T06:14:28Z</time>
      </trkpt>
      <trkpt lat="45.2203" lon="5.73462">
        <ele>1050.467</ele>
        <time>2021-03-06T06:14:33Z</time>
      </trkpt>
      <trkpt lat="45.22032" lon="5.73463">
        <ele>1048.863</ele>
        <time>2021-03-06T06:14:35Z</time>
      </trkpt>
      <trkpt lat="45.2204" lon="5.73467">
        <ele>1047.919</ele>
        <time>2021-03-06T06:14:42Z</time>
      </trkpt>
      <trkpt lat="45.22042" lon="5.73469">
        <ele>1047.485</ele>
        <time>2021-03-06T06:14:43Z</time>
      </trkpt>
      <trkpt lat="45.22051" lon="5.73477">
        <ele>1045.797</ele>
        <time>2021-03-06T06:14:49Z</time>
      </trkpt>
      <trkpt lat="45.2206" lon="5.73484">
        <ele>1043.856</ele>
        <time>2021-03-06T06:14:54Z</time>
      </trkpt>
      <trkpt lat="45.22075" lon="5.73495">
        <ele>1042.72</ele>
        <time>2021-03-06T06:15:02Z</time>
      </trkpt>
      <trkpt lat="45.22079" lon="5.73499">
        <ele>1041.083</ele>
        <time>2021-03-06T06:15:05Z</time>
      </trkpt>
      <trkpt lat="45.22086" lon="5.73502">
        <ele>1039.38</ele>
        <time>2021-03-06T06:15:09Z</time>
      </trkpt>
      <trkpt lat="45.22099" lon="5.73507">
        <ele>1036.659</ele>
        <time>2021-03-06T06:15:16Z</time>
      </trkpt>
      <trkpt lat="45.22111" lon="5.73513">
        <ele>1034.984</ele>
        <time>2021-03-06T06:15:23Z</time>
      </trkpt>
      <trkpt lat="45.22117" lon="5.73515">
        <ele>1033.314</ele>
        <time>2021-03-06T06:15:26Z</time>
      </trkpt>
      <trkpt lat="45.2212" lon="5.73529">
        <ele>1030.583</ele>
        <time>2021-03-06T06:15:32Z</time>
      </trkpt>
      <trkpt lat="45.22119" lon="5.73531">
        <ele>1030.398</ele>
        <time>2021-03-06T06:15:33Z</time>
      </trkpt>
      <trkpt lat="45.22127" lon="5.73539">
        <ele>1029.494</ele>
        <time>2021-03-06T06:15:38Z</time>
      </trkpt>
      <trkpt lat="45.2213" lon="5.7354">
        <ele>1026.367</ele>
        <time>2021-03-06T06:15:40Z</time>
      </trkpt>
      <trkpt lat="45.22133" lon="5.73541">
        <ele>1025.749</ele>
        <time>2021-03-06T06:15:42Z</time>
      </trkpt>
      <trkpt lat="45.22142" lon="5.73547">
        <ele>1023.63</ele>
        <time>2021-03-06T06:15:49Z</time>
      </trkpt>
      <trkpt lat="45.22149" lon="5.73549">
        <ele>1022.777</ele>
        <time>2021-03-06T06:15:52Z</time>
      </trkpt>
      <trkpt lat="45.22154" lon="5.7355">
        <ele>1021.482</ele>
        <time>2021-03-06T06:15:55Z</time>
      </trkpt>
      <trkpt lat="45.22163" lon="5.73557">
        <ele>1019.554</ele>
        <time>2021-03-06T06:16:01Z</time>
      </trkpt>
      <trkpt lat="45.22174" lon="5.73571">
        <ele>1017.735</ele>
        <time>2021-03-06T06:16:09Z</time>
      </trkpt>
      <trkpt lat="45.22182" lon="5.73575">
        <ele>1015.495</ele>
        <time>2021-03-06T06:16:14Z</time>
      </trkpt>
      <trkpt lat="45.22191" lon="5.73588">
        <ele>1012.203</ele>
        <time>2021-03-06T06:16:20Z</time>
      </trkpt>
      <trkpt lat="45.22194" lon="5.73592">
        <ele>1012.552</ele>
        <time>2021-03-06T06:16:22Z</time>
      </trkpt>
      <trkpt lat="45.2221" lon="5.73609">
        <ele>1010.834</ele>
        <time>2021-03-06T06:16:31Z</time>
      </trkpt>
      <trkpt lat="45.22215" lon="5.73615">
        <ele>1010.045</ele>
        <time>2021-03-06T06:16:34Z</time>
      </trkpt>
      <trkpt lat="45.22225" lon="5.73626">
        <ele>1008.972</ele>
        <time>2021-03-06T06:16:41Z</time>
      </trkpt>
      <trkpt lat="45.2224" lon="5.7364">
        <ele>1007.991</ele>
        <time>2021-03-06T06:16:49Z</time>
      </trkpt>
      <trkpt lat="45.22243" lon="5.73641">
        <ele>1007.602</ele>
        <time>2021-03-06T06:16:50Z</time>
      </trkpt>
      <trkpt lat="45.22255" lon="5.7365">
        <ele>1003.462</ele>
        <time>2021-03-06T06:16:57Z</time>
      </trkpt>
      <trkpt lat="45.22267" lon="5.73656">
        <ele>1002.448</ele>
        <time>2021-03-06T06:17:04Z</time>
      </trkpt>
      <trkpt lat="45.22268" lon="5.73656">
        <ele>1002.59</ele>
        <time>2021-03-06T06:17:05Z</time>
      </trkpt>
      <trkpt lat="45.22278" lon="5.73659">
        <ele>1000.533</ele>
        <time>2021-03-06T06:17:12Z</time>
      </trkpt>
      <trkpt lat="45.22286" lon="5.73659">
        <ele>997.786</ele>
        <time>2021-03-06T06:17:18Z</time>
      </trkpt>
      <trkpt lat="45.2229" lon="5.7366">
        <ele>996.894</ele>
        <time>2021-03-06T06:17:20Z</time>
      </trkpt>
      <trkpt lat="45.22297" lon="5.73661">
        <ele>993.881</ele>
        <time>2021-03-06T06:17:24Z</time>
      </trkpt>
      <trkpt lat="45.22298" lon="5.73661">
        <ele>993.822</ele>
        <time>2021-03-06T06:17:25Z</time>
      </trkpt>
      <trkpt lat="45.22305" lon="5.73661">
        <ele>991.726</ele>
        <time>2021-03-06T06:17:29Z</time>
      </trkpt>
      <trkpt lat="45.22317" lon="5.73668">
        <ele>989.838</ele>
        <time>2021-03-06T06:17:36Z</time>
      </trkpt>
      <trkpt lat="45.22332" lon="5.73669">
        <ele>987.107</ele>
        <time>2021-03-06T06:17:45Z</time>
      </trkpt>
      <trkpt lat="45.22344" lon="5.73676">
        <ele>987.11</ele>
        <time>2021-03-06T06:17:51Z</time>
      </trkpt>
      <trkpt lat="45.22355" lon="5.7368">
        <ele>985.578</ele>
        <time>2021-03-06T06:17:57Z</time>
      </trkpt>
      <trkpt lat="45.22359" lon="5.73683">
        <ele>984.633</ele>
        <time>2021-03-06T06:17:59Z</time>
      </trkpt>
      <trkpt lat="45.22374" lon="5.73687">
        <ele>984.896</ele>
        <time>2021-03-06T06:18:05Z</time>
      </trkpt>
      <trkpt lat="45.22378" lon="5.73689">
        <ele>986.309</ele>
        <time>2021-03-06T06:18:07Z</time>
      </trkpt>
      <trkpt lat="45.2239" lon="5.73695">
        <ele>987.83</ele>
        <time>2021-03-06T06:18:14Z</time>
      </trkpt>
      <trkpt lat="45.22402" lon="5.73696">
        <ele>990.621</ele>
        <time>2021-03-06T06:18:23Z</time>
      </trkpt>
      <trkpt lat="45.2241" lon="5.73698">
        <ele>992.606</ele>
        <time>2021-03-06T06:18:29Z</time>
      </trkpt>
      <trkpt lat="45.22417" lon="5.73699">
        <ele>995.1</ele>
        <time>2021-03-06T06:18:36Z</time>
      </trkpt>
      <trkpt lat="45.22426" lon="5.73698">
        <ele>997.646</ele>
        <time>2021-03-06T06:18:42Z</time>
      </trkpt>
      <trkpt lat="45.22427" lon="5.73698">
        <ele>997.618</ele>
        <time>2021-03-06T06:18:43Z</time>
      </trkpt>
      <trkpt lat="45.22436" lon="5.737">
        <ele>999.271</ele>
        <time>2021-03-06T06:18:49Z</time>
      </trkpt>
      <trkpt lat="45.22446" lon="5.73702">
        <ele>999.492</ele>
        <time>2021-03-06T06:18:56Z</time>
      </trkpt>
      <trkpt lat="45.22452" lon="5.73702">
        <ele>997.785</ele>
        <time>2021-03-06T06:19:00Z</time>
      </trkpt>
      <trkpt lat="45.22455" lon="5.737">
        <ele>999.162</ele>
        <time>2021-03-06T06:19:02Z</time>
      </trkpt>
      <trkpt lat="45.22462" lon="5.737">
        <ele>1001.015</ele>
        <time>2021-03-06T06:19:07Z</time>
      </trkpt>
      <trkpt lat="45.22466" lon="5.737">
        <ele>1002.789</ele>
        <time>2021-03-06T06:19:10Z</time>
      </trkpt>
      <trkpt lat="45.22474" lon="5.737">
        <ele>1004.951</ele>
        <time>2021-03-06T06:19:18Z</time>
      </trkpt>
      <trkpt lat="45.22483" lon="5.73696">
        <ele>1006.555</ele>
        <time>2021-03-06T06:19:25Z</time>
      </trkpt>
      <trkpt lat="45.22493" lon="5.7369">
        <ele>1007.639</ele>
        <time>2021-03-06T06:19:32Z</time>
      </trkpt>
      <trkpt lat="45.22501" lon="5.73688">
        <ele>1009.334</ele>
        <time>2021-03-06T06:19:37Z</time>
      </trkpt>
      <trkpt lat="45.22505" lon="5.7369">
        <ele>1011.737</ele>
        <time>2021-03-06T06:19:40Z</time>
      </trkpt>
      <trkpt lat="45.22518" lon="5.73693">
        <ele>1014.473</ele>
        <time>2021-03-06T06:19:49Z</time>
      </trkpt>
      <trkpt lat="45.22524" lon="5.73695">
        <ele>1016.525</ele>
        <time>2021-03-06T06:19:55Z</time>
      </trkpt>
      <trkpt lat="45.22528" lon="5.73696">
        <ele>1017.478</ele>
        <time>2021-03-06T06:19:59Z</time>
      </trkpt>
      <trkpt lat="45.22537" lon="5.737">
        <ele>1019.203</ele>
        <time>2021-03-06T06:20:06Z</time>
      </trkpt>
      <trkpt lat="45.22542" lon="5.737">
        <ele>1019.542</ele>
        <time>2021-03-06T06:20:09Z</time>
      </trkpt>
      <trkpt lat="45.22545" lon="5.73701">
        <ele>1021.06</ele>
        <time>2021-03-06T06:20:12Z</time>
      </trkpt>
      <trkpt lat="45.22552" lon="5.73706">
        <ele>1023.272</ele>
        <time>2021-03-06T06:20:19Z</time>
      </trkpt>
      <trkpt lat="45.22553" lon="5.73707">
        <ele>1023.824</ele>
        <time>2021-03-06T06:20:20Z</time>
      </trkpt>
      <trkpt lat="45.2256" lon="5.7371">
        <ele>1024.729</ele>
        <time>2021-03-06T06:20:23Z</time>
      </trkpt>
      <trkpt lat="45.22571" lon="5.73717">
        <ele>1025.187</ele>
        <time>2021-03-06T06:20:31Z</time>
      </trkpt>
      <trkpt lat="45.2258" lon="5.73722">
        <ele>1026.464</ele>
        <time>2021-03-06T06:20:37Z</time>
      </trkpt>
      <trkpt lat="45.22586" lon="5.73724">
        <ele>1026.851</ele>
        <time>2021-03-06T06:20:41Z</time>
      </trkpt>
      <trkpt lat="45.22599" lon="5.73731">
        <ele>1029.744</ele>
        <time>2021-03-06T06:20:49Z</time>
      </trkpt>
      <trkpt lat="45.22603" lon="5.73734">
        <ele>1031.489</ele>
        <time>2021-03-06T06:20:54Z</time>
      </trkpt>
      <trkpt lat="45.22614" lon="5.73739">
        <ele>1031.96</ele>
        <time>2021-03-06T06:21:00Z</time>
      </trkpt>
      <trkpt lat="45.22616" lon="5.7374">
        <ele>1032.413</ele>
        <time>2021-03-06T06:21:01Z</time>
      </trkpt>
      <trkpt lat="45.2262" lon="5.73742">
        <ele>1032.557</ele>
        <time>2021-03-06T06:21:04Z</time>
      </trkpt>
      <trkpt lat="45.22633" lon="5.73759">
        <ele>1032.283</ele>
        <time>2021-03-06T06:21:13Z</time>
      </trkpt>
      <trkpt lat="45.22638" lon="5.73764">
        <ele>1032.233</ele>
        <time>2021-03-06T06:21:18Z</time>
      </trkpt>
      <trkpt lat="45.22651" lon="5.73775">
        <ele>1032.073</ele>
        <time>2021-03-06T06:21:25Z</time>
      </trkpt>
      <trkpt lat="45.22657" lon="5.73776">
        <ele>1033.945</ele>
        <time>2021-03-06T06:21:30Z</time>
      </trkpt>
      <trkpt lat="45.22668" lon="5.73785">
        <ele>1035.953</ele>
        <time>2021-03-06T06:21:37Z</time>
      </trkpt>
      <trkpt lat="45.22679" lon="5.73794">
        <ele>1036.887</ele>
        <time>2021-03-06T06:21:44Z</time>
      </trkpt>
      <trkpt lat="45.22686" lon="5.73801">
        <ele>1038.459</ele>
        <time>2021-03-06T06:21:49Z</time>
      </trkpt>
      <trkpt lat="45.22697" lon="5.73808">
        <ele>1039.977</ele>
        <time>2021-03-06T06:21:57Z</time>
      </trkpt>
      <trkpt lat="45.22703" lon="5.73812">
        <ele>1040.352</ele>
        <time>2021-03-06T06:22:01Z</time>
      </trkpt>
      <trkpt lat="45.22722" lon="5.73822">
        <ele>1039.531</ele>
        <time>2021-03-06T06:22:10Z</time>
      </trkpt>
      <trkpt lat="45.22723" lon="5.73823">
        <ele>1038.68</ele>
        <time>2021-03-06T06:22:11Z</time>
      </trkpt>
      <trkpt lat="45.22734" lon="5.7383">
        <ele>1037.647</ele>
        <time>2021-03-06T06:22:17Z</time>
      </trkpt>
      <trkpt lat="45.22749" lon="5.73839">
        <ele>1037.458</ele>
        <time>2021-03-06T06:22:24Z</time>
      </trkpt>
      <trkpt lat="45.22766" lon="5.73847">
        <ele>1037.465</ele>
        <time>2021-03-06T06:22:30Z</time>
      </trkpt>
      <trkpt lat="45.22776" lon="5.73853">
        <ele>1036.469</ele>
        <time>2021-03-06T06:22:36Z</time>
      </trkpt>
      <trkpt lat="45.22791" lon="5.73859">
        <ele>1035.417</ele>
        <time>2021-03-06T06:22:43Z</time>
      </trkpt>
      <trkpt lat="45.22809" lon="5.73872">
        <ele>1033.033</ele>
        <time>2021-03-06T06:22:52Z</time>
      </trkpt>
      <trkpt lat="45.22811" lon="5.73873">
        <ele>1032.781</ele>
        <time>2021-03-06T06:22:53Z</time>
      </trkpt>
      <trkpt lat="45.22826" lon="5.73878">
        <ele>1030.954</ele>
        <time>2021-03-06T06:22:59Z</time>
      </trkpt>
      <trkpt lat="45.22855" lon="5.73882">
        <ele>1029.188</ele>
        <time>2021-03-06T06:23:09Z</time>
      </trkpt>
      <trkpt lat="45.22867" lon="5.73879">
        <ele>1029.261</ele>
        <time>2021-03-06T06:23:13Z</time>
      </trkpt>
      <trkpt lat="45.22883" lon="5.73871">
        <ele>1029.081</ele>
        <time>2021-03-06T06:23:18Z</time>
      </trkpt>
      <trkpt lat="45.22895" lon="5.73869">
        <ele>1028.733</ele>
        <time>2021-03-06T06:23:23Z</time>
      </trkpt>
      <trkpt lat="45.22904" lon="5.73868">
        <ele>1028.513</ele>
        <time>2021-03-06T06:23:28Z</time>
      </trkpt>
      <trkpt lat="45.22916" lon="5.7387">
        <ele>1027.686</ele>
        <time>2021-03-06T06:23:35Z</time>
      </trkpt>
      <trkpt lat="45.22919" lon="5.7387">
        <ele>1027.062</ele>
        <time>2021-03-06T06:23:37Z</time>
      </trkpt>
      <trkpt lat="45.22925" lon="5.73871">
        <ele>1026.252</ele>
        <time>2021-03-06T06:23:41Z</time>
      </trkpt>
      <trkpt lat="45.22927" lon="5.73871">
        <ele>1025.742</ele>
        <time>2021-03-06T06:23:42Z</time>
      </trkpt>
      <trkpt lat="45.22936" lon="5.73883">
        <ele>1024.107</ele>
        <time>2021-03-06T06:23:48Z</time>
      </trkpt>
      <trkpt lat="45.2294" lon="5.73895">
        <ele>1020.343</ele>
        <time>2021-03-06T06:23:53Z</time>
      </trkpt>
      <trkpt lat="45.2294" lon="5.73897">
        <ele>1020.29</ele>
        <time>2021-03-06T06:23:54Z</time>
      </trkpt>
      <trkpt lat="45.22944" lon="5.7392">
        <ele>1018.734</ele>
        <time>2021-03-06T06:24:00Z</time>
      </trkpt>
      <trkpt lat="45.22953" lon="5.73945">
        <ele>1018.991</ele>
        <time>2021-03-06T06:24:07Z</time>
      </trkpt>
      <trkpt lat="45.22964" lon="5.73963">
        <ele>1019.1</ele>
        <time>2021-03-06T06:24:13Z</time>
      </trkpt>
      <trkpt lat="45.22979" lon="5.73971">
        <ele>1020.327</ele>
        <time>2021-03-06T06:24:19Z</time>
      </trkpt>
      <trkpt lat="45.22981" lon="5.73972">
        <ele>1020.581</ele>
        <time>2021-03-06T06:24:20Z</time>
      </trkpt>
      <trkpt lat="45.23004" lon="5.73976">
        <ele>1021.398</ele>
        <time>2021-03-06T06:24:29Z</time>
      </trkpt>
      <trkpt lat="45.23024" lon="5.7398">
        <ele>1020.481</ele>
        <time>2021-03-06T06:24:35Z</time>
      </trkpt>
      <trkpt lat="45.23039" lon="5.73977">
        <ele>1020.756</ele>
        <time>2021-03-06T06:24:41Z</time>
      </trkpt>
      <trkpt lat="45.23056" lon="5.73962">
        <ele>1021.577</ele>
        <time>2021-03-06T06:24:49Z</time>
      </trkpt>
      <trkpt lat="45.23059" lon="5.73958">
        <ele>1021.982</ele>
        <time>2021-03-06T06:24:51Z</time>
      </trkpt>
      <trkpt lat="45.23078" lon="5.73968">
        <ele>1025.174</ele>
        <time>2021-03-06T06:24:59Z</time>
      </trkpt>
      <trkpt lat="45.23085" lon="5.73975">
        <ele>1026.393</ele>
        <time>2021-03-06T06:25:03Z</time>
      </trkpt>
      <trkpt lat="45.23087" lon="5.73979">
        <ele>1028.555</ele>
        <time>2021-03-06T06:25:06Z</time>
      </trkpt>
      <trkpt lat="45.23094" lon="5.73982">
        <ele>1028.112</ele>
        <time>2021-03-06T06:25:12Z</time>
      </trkpt>
      <trkpt lat="45.231" lon="5.73982">
        <ele>1028.883</ele>
        <time>2021-03-06T06:25:16Z</time>
      </trkpt>
      <trkpt lat="45.23119" lon="5.73981">
        <ele>1028.928</ele>
        <time>2021-03-06T06:25:23Z</time>
      </trkpt>
      <trkpt lat="45.23136" lon="5.73986">
        <ele>1029.967</ele>
        <time>2021-03-06T06:25:31Z</time>
      </trkpt>
      <trkpt lat="45.23143" lon="5.73989">
        <ele>1029.762</ele>
        <time>2021-03-06T06:25:35Z</time>
      </trkpt>
      <trkpt lat="45.2315" lon="5.73993">
        <ele>1029.773</ele>
        <time>2021-03-06T06:25:39Z</time>
      </trkpt>
      <trkpt lat="45.23157" lon="5.73999">
        <ele>1027.604</ele>
        <time>2021-03-06T06:25:44Z</time>
      </trkpt>
      <trkpt lat="45.23166" lon="5.74002">
        <ele>1026.078</ele>
        <time>2021-03-06T06:25:49Z</time>
      </trkpt>
      <trkpt lat="45.23175" lon="5.74006">
        <ele>1025.042</ele>
        <time>2021-03-06T06:25:53Z</time>
      </trkpt>
      <trkpt lat="45.2319" lon="5.74014">
        <ele>1024.47</ele>
        <time>2021-03-06T06:25:59Z</time>
      </trkpt>
      <trkpt lat="45.23201" lon="5.74021">
        <ele>1023.709</ele>
        <time>2021-03-06T06:26:03Z</time>
      </trkpt>
      <trkpt lat="45.23219" lon="5.74033">
        <ele>1024.179</ele>
        <time>2021-03-06T06:26:10Z</time>
      </trkpt>
      <trkpt lat="45.23224" lon="5.74043">
        <ele>1025.058</ele>
        <time>2021-03-06T06:26:14Z</time>
      </trkpt>
      <trkpt lat="45.23223" lon="5.74052">
        <ele>1026.496</ele>
        <time>2021-03-06T06:26:20Z</time>
      </trkpt>
      <trkpt lat="45.23222" lon="5.74061">
        <ele>1027.257</ele>
        <time>2021-03-06T06:26:24Z</time>
      </trkpt>
      <trkpt lat="45.23223" lon="5.74075">
        <ele>1027.242</ele>
        <time>2021-03-06T06:26:31Z</time>
      </trkpt>
      <trkpt lat="45.23223" lon="5.74076">
        <ele>1027.308</ele>
        <time>2021-03-06T06:26:32Z</time>
      </trkpt>
      <trkpt lat="45.23221" lon="5.74092">
        <ele>1026.774</ele>
        <time>2021-03-06T06:26:38Z</time>
      </trkpt>
      <trkpt lat="45.23226" lon="5.74108">
        <ele>1026.902</ele>
        <time>2021-03-06T06:26:44Z</time>
      </trkpt>
      <trkpt lat="45.23228" lon="5.74118">
        <ele>1026.662</ele>
        <time>2021-03-06T06:26:47Z</time>
      </trkpt>
      <trkpt lat="45.2323" lon="5.74136">
        <ele>1027.373</ele>
        <time>2021-03-06T06:26:54Z</time>
      </trkpt>
      <trkpt lat="45.23235" lon="5.74136">
        <ele>1026.126</ele>
        <time>2021-03-06T06:27:02Z</time>
      </trkpt>
      <trkpt lat="45.23238" lon="5.74139">
        <ele>1026.337</ele>
        <time>2021-03-06T06:27:04Z</time>
      </trkpt>
      <trkpt lat="45.23248" lon="5.74145">
        <ele>1026.91</ele>
        <time>2021-03-06T06:27:08Z</time>
      </trkpt>
      <trkpt lat="45.23251" lon="5.74147">
        <ele>1027.428</ele>
        <time>2021-03-06T06:27:10Z</time>
      </trkpt>
      <trkpt lat="45.2326" lon="5.7415">
        <ele>1027.64</ele>
        <time>2021-03-06T06:27:13Z</time>
      </trkpt>
      <trkpt lat="45.23265" lon="5.74158">
        <ele>1027.167</ele>
        <time>2021-03-06T06:27:17Z</time>
      </trkpt>
      <trkpt lat="45.2327" lon="5.74165">
        <ele>1027.215</ele>
        <time>2021-03-06T06:27:21Z</time>
      </trkpt>
      <trkpt lat="45.23279" lon="5.7418">
        <ele>1026.694</ele>
        <time>2021-03-06T06:27:27Z</time>
      </trkpt>
      <trkpt lat="45.23281" lon="5.74183">
        <ele>1025.83</ele>
        <time>2021-03-06T06:27:29Z</time>
      </trkpt>
      <trkpt lat="45.23283" lon="5.74184">
        <ele>1026.794</ele>
        <time>2021-03-06T06:27:30Z</time>
      </trkpt>
      <trkpt lat="45.23295" lon="5.74194">
        <ele>1023.975</ele>
        <time>2021-03-06T06:27:37Z</time>
      </trkpt>
      <trkpt lat="45.23303" lon="5.74202">
        <ele>1023.338</ele>
        <time>2021-03-06T06:27:43Z</time>
      </trkpt>
      <trkpt lat="45.23318" lon="5.74212">
        <ele>1023.6</ele>
        <time>2021-03-06T06:27:50Z</time>
      </trkpt>
      <trkpt lat="45.23322" lon="5.74215">
        <ele>1024.01</ele>
        <time>2021-03-06T06:27:52Z</time>
      </trkpt>
      <trkpt lat="45.23337" lon="5.74223">
        <ele>1023.675</ele>
        <time>2021-03-06T06:27:59Z</time>
      </trkpt>
      <trkpt lat="45.23338" lon="5.74224">
        <ele>1023.689</ele>
        <time>2021-03-06T06:28:00Z</time>
      </trkpt>
      <trkpt lat="45.23351" lon="5.74231">
        <ele>1023.739</ele>
        <time>2021-03-06T06:28:06Z</time>
      </trkpt>
      <trkpt lat="45.23355" lon="5.74236">
        <ele>1023.511</ele>
        <time>2021-03-06T06:28:09Z</time>
      </trkpt>
      <trkpt lat="45.23369" lon="5.74242">
        <ele>1023.434</ele>
        <time>2021-03-06T06:28:14Z</time>
      </trkpt>
      <trkpt lat="45.23381" lon="5.74258">
        <ele>1022.719</ele>
        <time>2021-03-06T06:28:20Z</time>
      </trkpt>
      <trkpt lat="45.23382" lon="5.74271">
        <ele>1021.32</ele>
        <time>2021-03-06T06:28:26Z</time>
      </trkpt>
      <trkpt lat="45.23382" lon="5.74275">
        <ele>1020.069</ele>
        <time>2021-03-06T06:28:28Z</time>
      </trkpt>
      <trkpt lat="45.2338" lon="5.74287">
        <ele>1017.461</ele>
        <time>2021-03-06T06:28:33Z</time>
      </trkpt>
      <trkpt lat="45.23374" lon="5.74301">
        <ele>1016.096</ele>
        <time>2021-03-06T06:28:37Z</time>
      </trkpt>
      <trkpt lat="45.2337" lon="5.74326">
        <ele>1014.762</ele>
        <time>2021-03-06T06:28:44Z</time>
      </trkpt>
      <trkpt lat="45.23372" lon="5.74347">
        <ele>1013.326</ele>
        <time>2021-03-06T06:28:50Z</time>
      </trkpt>
      <trkpt lat="45.2338" lon="5.74363">
        <ele>1011.916</ele>
        <time>2021-03-06T06:28:56Z</time>
      </trkpt>
      <trkpt lat="45.23384" lon="5.74378">
        <ele>1011.428</ele>
        <time>2021-03-06T06:29:02Z</time>
      </trkpt>
      <trkpt lat="45.23389" lon="5.74375">
        <ele>1012.118</ele>
        <time>2021-03-06T06:29:13Z</time>
      </trkpt>
      <trkpt lat="45.2339" lon="5.74375">
        <ele>1012.922</ele>
        <time>2021-03-06T06:29:14Z</time>
      </trkpt>
      <trkpt lat="45.23408" lon="5.74382">
        <ele>1013.829</ele>
        <time>2021-03-06T06:29:22Z</time>
      </trkpt>
      <trkpt lat="45.23431" lon="5.74391">
        <ele>1014.767</ele>
        <time>2021-03-06T06:29:28Z</time>
      </trkpt>
      <trkpt lat="45.23448" lon="5.74403">
        <ele>1015.098</ele>
        <time>2021-03-06T06:29:35Z</time>
      </trkpt>
      <trkpt lat="45.2346" lon="5.74418">
        <ele>1016.324</ele>
        <time>2021-03-06T06:29:43Z</time>
      </trkpt>
      <trkpt lat="45.23472" lon="5.74426">
        <ele>1016.699</ele>
        <time>2021-03-06T06:29:49Z</time>
      </trkpt>
      <trkpt lat="45.23482" lon="5.74438">
        <ele>1016.609</ele>
        <time>2021-03-06T06:29:55Z</time>
      </trkpt>
      <trkpt lat="45.23493" lon="5.74448">
        <ele>1016.014</ele>
        <time>2021-03-06T06:30:00Z</time>
      </trkpt>
      <trkpt lat="45.23496" lon="5.74453">
        <ele>1015.586</ele>
        <time>2021-03-06T06:30:02Z</time>
      </trkpt>
      <trkpt lat="45.23507" lon="5.7447">
        <ele>1013.887</ele>
        <time>2021-03-06T06:30:10Z</time>
      </trkpt>
      <trkpt lat="45.23517" lon="5.74483">
        <ele>1012.826</ele>
        <time>2021-03-06T06:30:16Z</time>
      </trkpt>
      <trkpt lat="45.23527" lon="5.74495">
        <ele>1011.466</ele>
        <time>2021-03-06T06:30:24Z</time>
      </trkpt>
      <trkpt lat="45.23508" lon="5.74472">
        <ele>1013.559</ele>
        <time>2021-03-06T06:30:37Z</time>
      </trkpt>
      <trkpt lat="45.23494" lon="5.74458">
        <ele>1014.972</ele>
        <time>2021-03-06T06:30:45Z</time>
      </trkpt>
      <trkpt lat="45.23481" lon="5.74445">
        <ele>1016.02</ele>
        <time>2021-03-06T06:30:51Z</time>
      </trkpt>
      <trkpt lat="45.2347" lon="5.7443">
        <ele>1016.932</ele>
        <time>2021-03-06T06:30:58Z</time>
      </trkpt>
      <trkpt lat="45.23454" lon="5.74416">
        <ele>1016.826</ele>
        <time>2021-03-06T06:31:06Z</time>
      </trkpt>
      <trkpt lat="45.23437" lon="5.744">
        <ele>1016.33</ele>
        <time>2021-03-06T06:31:14Z</time>
      </trkpt>
      <trkpt lat="45.23423" lon="5.74386">
        <ele>1014.756</ele>
        <time>2021-03-06T06:31:21Z</time>
      </trkpt>
      <trkpt lat="45.23408" lon="5.74375">
        <ele>1013.781</ele>
        <time>2021-03-06T06:31:29Z</time>
      </trkpt>
      <trkpt lat="45.23406" lon="5.74374">
        <ele>1013.046</ele>
        <time>2021-03-06T06:31:30Z</time>
      </trkpt>
      <trkpt lat="45.23387" lon="5.74375">
        <ele>1011.488</ele>
        <time>2021-03-06T06:31:38Z</time>
      </trkpt>
      <trkpt lat="45.2337" lon="5.74378">
        <ele>1010.714</ele>
        <time>2021-03-06T06:31:45Z</time>
      </trkpt>
      <trkpt lat="45.23359" lon="5.74381">
        <ele>1008.009</ele>
        <time>2021-03-06T06:31:50Z</time>
      </trkpt>
      <trkpt lat="45.23341" lon="5.74382">
        <ele>1007.368</ele>
        <time>2021-03-06T06:31:57Z</time>
      </trkpt>
      <trkpt lat="45.23328" lon="5.74381">
        <ele>1005.465</ele>
        <time>2021-03-06T06:32:02Z</time>
      </trkpt>
      <trkpt lat="45.23317" lon="5.74375">
        <ele>1004.697</ele>
        <time>2021-03-06T06:32:06Z</time>
      </trkpt>
      <trkpt lat="45.23311" lon="5.7437">
        <ele>1002.916</ele>
        <time>2021-03-06T06:32:09Z</time>
      </trkpt>
      <trkpt lat="45.23296" lon="5.74355">
        <ele>1000.055</ele>
        <time>2021-03-06T06:32:17Z</time>
      </trkpt>
      <trkpt lat="45.23275" lon="5.74343">
        <ele>999.529</ele>
        <time>2021-03-06T06:32:26Z</time>
      </trkpt>
      <trkpt lat="45.23272" lon="5.74337">
        <ele>998.958</ele>
        <time>2021-03-06T06:32:28Z</time>
      </trkpt>
      <trkpt lat="45.23256" lon="5.74325">
        <ele>997.282</ele>
        <time>2021-03-06T06:32:36Z</time>
      </trkpt>
      <trkpt lat="45.2324" lon="5.74315">
        <ele>994.815</ele>
        <time>2021-03-06T06:32:43Z</time>
      </trkpt>
      <trkpt lat="45.23223" lon="5.74307">
        <ele>993.394</ele>
        <time>2021-03-06T06:32:50Z</time>
      </trkpt>
      <trkpt lat="45.23209" lon="5.743">
        <ele>991.118</ele>
        <time>2021-03-06T06:32:57Z</time>
      </trkpt>
      <trkpt lat="45.23204" lon="5.743">
        <ele>989.835</ele>
        <time>2021-03-06T06:32:59Z</time>
      </trkpt>
      <trkpt lat="45.23191" lon="5.743">
        <ele>988.821</ele>
        <time>2021-03-06T06:33:04Z</time>
      </trkpt>
      <trkpt lat="45.23186" lon="5.74298">
        <ele>987.84</ele>
        <time>2021-03-06T06:33:06Z</time>
      </trkpt>
      <trkpt lat="45.23167" lon="5.74292">
        <ele>985.604</ele>
        <time>2021-03-06T06:33:13Z</time>
      </trkpt>
      <trkpt lat="45.23154" lon="5.74284">
        <ele>984.366</ele>
        <time>2021-03-06T06:33:19Z</time>
      </trkpt>
      <trkpt lat="45.23138" lon="5.74279">
        <ele>983.036</ele>
        <time>2021-03-06T06:33:26Z</time>
      </trkpt>
      <trkpt lat="45.23132" lon="5.74278">
        <ele>981.568</ele>
        <time>2021-03-06T06:33:29Z</time>
      </trkpt>
      <trkpt lat="45.23115" lon="5.74273">
        <ele>979.968</ele>
        <time>2021-03-06T06:33:36Z</time>
      </trkpt>
      <trkpt lat="45.23107" lon="5.74272">
        <ele>978.776</ele>
        <time>2021-03-06T06:33:38Z</time>
      </trkpt>
      <trkpt lat="45.23104" lon="5.74271">
        <ele>978.044</ele>
        <time>2021-03-06T06:33:39Z</time>
      </trkpt>
      <trkpt lat="45.23094" lon="5.74267">
        <ele>977.592</ele>
        <time>2021-03-06T06:33:43Z</time>
      </trkpt>
      <trkpt lat="45.23075" lon="5.74254">
        <ele>975.555</ele>
        <time>2021-03-06T06:33:50Z</time>
      </trkpt>
      <trkpt lat="45.23064" lon="5.74248">
        <ele>974.094</ele>
        <time>2021-03-06T06:33:55Z</time>
      </trkpt>
      <trkpt lat="45.23051" lon="5.74243">
        <ele>972.316</ele>
        <time>2021-03-06T06:34:01Z</time>
      </trkpt>
      <trkpt lat="45.23049" lon="5.74242">
        <ele>972.078</ele>
        <time>2021-03-06T06:34:02Z</time>
      </trkpt>
      <trkpt lat="45.23032" lon="5.74234">
        <ele>970.705</ele>
        <time>2021-03-06T06:34:10Z</time>
      </trkpt>
      <trkpt lat="45.2302" lon="5.74229">
        <ele>968.698</ele>
        <time>2021-03-06T06:34:15Z</time>
      </trkpt>
      <trkpt lat="45.23005" lon="5.74224">
        <ele>967.26</ele>
        <time>2021-03-06T06:34:22Z</time>
      </trkpt>
      <trkpt lat="45.22989" lon="5.74218">
        <ele>965.632</ele>
        <time>2021-03-06T06:34:28Z</time>
      </trkpt>
      <trkpt lat="45.22977" lon="5.74213">
        <ele>963.262</ele>
        <time>2021-03-06T06:34:33Z</time>
      </trkpt>
      <trkpt lat="45.22974" lon="5.74213">
        <ele>963.269</ele>
        <time>2021-03-06T06:34:34Z</time>
      </trkpt>
      <trkpt lat="45.22967" lon="5.74211">
        <ele>961.418</ele>
        <time>2021-03-06T06:34:37Z</time>
      </trkpt>
      <trkpt lat="45.22951" lon="5.74208">
        <ele>959.546</ele>
        <time>2021-03-06T06:34:44Z</time>
      </trkpt>
      <trkpt lat="45.22932" lon="5.74201">
        <ele>958.258</ele>
        <time>2021-03-06T06:34:51Z</time>
      </trkpt>
      <trkpt lat="45.22919" lon="5.74197">
        <ele>957.074</ele>
        <time>2021-03-06T06:34:57Z</time>
      </trkpt>
      <trkpt lat="45.22909" lon="5.74193">
        <ele>956.452</ele>
        <time>2021-03-06T06:35:01Z</time>
      </trkpt>
      <trkpt lat="45.22888" lon="5.74183">
        <ele>953.678</ele>
        <time>2021-03-06T06:35:10Z</time>
      </trkpt>
      <trkpt lat="45.22872" lon="5.74179">
        <ele>951.864</ele>
        <time>2021-03-06T06:35:17Z</time>
      </trkpt>
      <trkpt lat="45.22856" lon="5.74166">
        <ele>950.505</ele>
        <time>2021-03-06T06:35:24Z</time>
      </trkpt>
      <trkpt lat="45.22836" lon="5.74153">
        <ele>948.177</ele>
        <time>2021-03-06T06:35:30Z</time>
      </trkpt>
      <trkpt lat="45.22823" lon="5.74153">
        <ele>946.625</ele>
        <time>2021-03-06T06:35:36Z</time>
      </trkpt>
      <trkpt lat="45.22812" lon="5.74156">
        <ele>944.663</ele>
        <time>2021-03-06T06:35:42Z</time>
      </trkpt>
      <trkpt lat="45.22806" lon="5.74156">
        <ele>943.971</ele>
        <time>2021-03-06T06:35:45Z</time>
      </trkpt>
      <trkpt lat="45.22784" lon="5.74142">
        <ele>942.79</ele>
        <time>2021-03-06T06:35:54Z</time>
      </trkpt>
      <trkpt lat="45.22767" lon="5.74132">
        <ele>940.736</ele>
        <time>2021-03-06T06:36:02Z</time>
      </trkpt>
      <trkpt lat="45.22753" lon="5.74122">
        <ele>937.595</ele>
        <time>2021-03-06T06:36:08Z</time>
      </trkpt>
      <trkpt lat="45.22734" lon="5.74109">
        <ele>936.174</ele>
        <time>2021-03-06T06:36:15Z</time>
      </trkpt>
      <trkpt lat="45.2272" lon="5.74106">
        <ele>934.093</ele>
        <time>2021-03-06T06:36:21Z</time>
      </trkpt>
      <trkpt lat="45.22703" lon="5.74101">
        <ele>931.834</ele>
        <time>2021-03-06T06:36:27Z</time>
      </trkpt>
      <trkpt lat="45.22696" lon="5.74103">
        <ele>931.007</ele>
        <time>2021-03-06T06:36:30Z</time>
      </trkpt>
      <trkpt lat="45.22685" lon="5.741">
        <ele>930.146</ele>
        <time>2021-03-06T06:36:35Z</time>
      </trkpt>
      <trkpt lat="45.22668" lon="5.74093">
        <ele>929.038</ele>
        <time>2021-03-06T06:36:42Z</time>
      </trkpt>
      <trkpt lat="45.22647" lon="5.74089">
        <ele>926.591</ele>
        <time>2021-03-06T06:36:50Z</time>
      </trkpt>
      <trkpt lat="45.22632" lon="5.74086">
        <ele>925.29</ele>
        <time>2021-03-06T06:36:56Z</time>
      </trkpt>
      <trkpt lat="45.22615" lon="5.74086">
        <ele>922.918</ele>
        <time>2021-03-06T06:37:02Z</time>
      </trkpt>
      <trkpt lat="45.22613" lon="5.74085">
        <ele>922.804</ele>
        <time>2021-03-06T06:37:03Z</time>
      </trkpt>
      <trkpt lat="45.22602" lon="5.74083">
        <ele>921.566</ele>
        <time>2021-03-06T06:37:08Z</time>
      </trkpt>
      <trkpt lat="45.22593" lon="5.74084">
        <ele>920.954</ele>
        <time>2021-03-06T06:37:12Z</time>
      </trkpt>
      <trkpt lat="45.22576" lon="5.74085">
        <ele>918.879</ele>
        <time>2021-03-06T06:37:19Z</time>
      </trkpt>
      <trkpt lat="45.2256" lon="5.74089">
        <ele>917.039</ele>
        <time>2021-03-06T06:37:26Z</time>
      </trkpt>
      <trkpt lat="45.22544" lon="5.74098">
        <ele>914.614</ele>
        <time>2021-03-06T06:37:32Z</time>
      </trkpt>
      <trkpt lat="45.22528" lon="5.74109">
        <ele>913.446</ele>
        <time>2021-03-06T06:37:38Z</time>
      </trkpt>
      <trkpt lat="45.22507" lon="5.7411">
        <ele>910.242</ele>
        <time>2021-03-06T06:37:46Z</time>
      </trkpt>
      <trkpt lat="45.22493" lon="5.7411">
        <ele>908.97</ele>
        <time>2021-03-06T06:37:51Z</time>
      </trkpt>
      <trkpt lat="45.22488" lon="5.74112">
        <ele>908.013</ele>
        <time>2021-03-06T06:37:53Z</time>
      </trkpt>
      <trkpt lat="45.2247" lon="5.74103">
        <ele>906.223</ele>
        <time>2021-03-06T06:38:00Z</time>
      </trkpt>
      <trkpt lat="45.22451" lon="5.74092">
        <ele>905.604</ele>
        <time>2021-03-06T06:38:08Z</time>
      </trkpt>
      <trkpt lat="45.22438" lon="5.74084">
        <ele>903.823</ele>
        <time>2021-03-06T06:38:14Z</time>
      </trkpt>
      <trkpt lat="45.22433" lon="5.74082">
        <ele>903.167</ele>
        <time>2021-03-06T06:38:16Z</time>
      </trkpt>
      <trkpt lat="45.22421" lon="5.74073">
        <ele>901.636</ele>
        <time>2021-03-06T06:38:22Z</time>
      </trkpt>
      <trkpt lat="45.22408" lon="5.74064">
        <ele>899.694</ele>
        <time>2021-03-06T06:38:28Z</time>
      </trkpt>
      <trkpt lat="45.22394" lon="5.74059">
        <ele>898.86</ele>
        <time>2021-03-06T06:38:33Z</time>
      </trkpt>
      <trkpt lat="45.22391" lon="5.74056">
        <ele>899.328</ele>
        <time>2021-03-06T06:38:39Z</time>
      </trkpt>
      <trkpt lat="45.22391" lon="5.74059">
        <ele>899.328</ele>
        <time>2021-03-06T06:38:40Z</time>
      </trkpt>
      <trkpt lat="45.22396" lon="5.74078">
        <ele>898.169</ele>
        <time>2021-03-06T06:38:47Z</time>
      </trkpt>
      <trkpt lat="45.22404" lon="5.74085">
        <ele>897.489</ele>
        <time>2021-03-06T06:38:51Z</time>
      </trkpt>
      <trkpt lat="45.2241" lon="5.74095">
        <ele>895.394</ele>
        <time>2021-03-06T06:38:54Z</time>
      </trkpt>
      <trkpt lat="45.22415" lon="5.74102">
        <ele>895.154</ele>
        <time>2021-03-06T06:38:57Z</time>
      </trkpt>
      <trkpt lat="45.22429" lon="5.7412">
        <ele>892.79</ele>
        <time>2021-03-06T06:39:05Z</time>
      </trkpt>
      <trkpt lat="45.22439" lon="5.74134">
        <ele>890.391</ele>
        <time>2021-03-06T06:39:11Z</time>
      </trkpt>
      <trkpt lat="45.22449" lon="5.74148">
        <ele>888.422</ele>
        <time>2021-03-06T06:39:18Z</time>
      </trkpt>
      <trkpt lat="45.22447" lon="5.74145">
        <ele>889.333</ele>
        <time>2021-03-06T06:39:20Z</time>
      </trkpt>
      <trkpt lat="45.22441" lon="5.74138">
        <ele>889.317</ele>
        <time>2021-03-06T06:39:24Z</time>
      </trkpt>
      <trkpt lat="45.22432" lon="5.74124">
        <ele>891.622</ele>
        <time>2021-03-06T06:39:31Z</time>
      </trkpt>
      <trkpt lat="45.22423" lon="5.74111">
        <ele>893.112</ele>
        <time>2021-03-06T06:39:37Z</time>
      </trkpt>
      <trkpt lat="45.22415" lon="5.74098">
        <ele>894.869</ele>
        <time>2021-03-06T06:39:44Z</time>
      </trkpt>
      <trkpt lat="45.22404" lon="5.74088">
        <ele>896.426</ele>
        <time>2021-03-06T06:39:50Z</time>
      </trkpt>
      <trkpt lat="45.22395" lon="5.74077">
        <ele>898.341</ele>
        <time>2021-03-06T06:39:56Z</time>
      </trkpt>
      <trkpt lat="45.22385" lon="5.74066">
        <ele>899.659</ele>
        <time>2021-03-06T06:40:03Z</time>
      </trkpt>
      <trkpt lat="45.22373" lon="5.74055">
        <ele>900.336</ele>
        <time>2021-03-06T06:40:10Z</time>
      </trkpt>
      <trkpt lat="45.22362" lon="5.7404">
        <ele>899.159</ele>
        <time>2021-03-06T06:40:16Z</time>
      </trkpt>
      <trkpt lat="45.22347" lon="5.74027">
        <ele>897.983</ele>
        <time>2021-03-06T06:40:22Z</time>
      </trkpt>
      <trkpt lat="45.22342" lon="5.74025">
        <ele>897.727</ele>
        <time>2021-03-06T06:40:24Z</time>
      </trkpt>
      <trkpt lat="45.22328" lon="5.74019">
        <ele>896.22</ele>
        <time>2021-03-06T06:40:30Z</time>
      </trkpt>
      <trkpt lat="45.22316" lon="5.74014">
        <ele>894.382</ele>
        <time>2021-03-06T06:40:38Z</time>
      </trkpt>
      <trkpt lat="45.22297" lon="5.74007">
        <ele>892.755</ele>
        <time>2021-03-06T06:40:45Z</time>
      </trkpt>
      <trkpt lat="45.22284" lon="5.73997">
        <ele>891.144</ele>
        <time>2021-03-06T06:40:52Z</time>
      </trkpt>
      <trkpt lat="45.22273" lon="5.73989">
        <ele>889.899</ele>
        <time>2021-03-06T06:40:57Z</time>
      </trkpt>
      <trkpt lat="45.22256" lon="5.73981">
        <ele>888.647</ele>
        <time>2021-03-06T06:41:05Z</time>
      </trkpt>
      <trkpt lat="45.22242" lon="5.73973">
        <ele>887.083</ele>
        <time>2021-03-06T06:41:11Z</time>
      </trkpt>
      <trkpt lat="45.22239" lon="5.73972">
        <ele>886.748</ele>
        <time>2021-03-06T06:41:12Z</time>
      </trkpt>
      <trkpt lat="45.22225" lon="5.73956">
        <ele>885.87</ele>
        <time>2021-03-06T06:41:20Z</time>
      </trkpt>
      <trkpt lat="45.22223" lon="5.73953">
        <ele>885.484</ele>
        <time>2021-03-06T06:41:21Z</time>
      </trkpt>
      <trkpt lat="45.2221" lon="5.73937">
        <ele>884.035</ele>
        <time>2021-03-06T06:41:27Z</time>
      </trkpt>
      <trkpt lat="45.22197" lon="5.73926">
        <ele>881.955</ele>
        <time>2021-03-06T06:41:33Z</time>
      </trkpt>
      <trkpt lat="45.22195" lon="5.73924">
        <ele>882.62</ele>
        <time>2021-03-06T06:41:34Z</time>
      </trkpt>
      <trkpt lat="45.2218" lon="5.73912">
        <ele>881.606</ele>
        <time>2021-03-06T06:41:41Z</time>
      </trkpt>
      <trkpt lat="45.22162" lon="5.739">
        <ele>878.983</ele>
        <time>2021-03-06T06:41:47Z</time>
      </trkpt>
      <trkpt lat="45.22153" lon="5.73898">
        <ele>877.663</ele>
        <time>2021-03-06T06:41:51Z</time>
      </trkpt>
      <trkpt lat="45.22135" lon="5.73894">
        <ele>874.963</ele>
        <time>2021-03-06T06:41:59Z</time>
      </trkpt>
      <trkpt lat="45.22131" lon="5.73895">
        <ele>874.677</ele>
        <time>2021-03-06T06:42:01Z</time>
      </trkpt>
      <trkpt lat="45.22121" lon="5.73892">
        <ele>873.558</ele>
        <time>2021-03-06T06:42:05Z</time>
      </trkpt>
      <trkpt lat="45.22104" lon="5.73884">
        <ele>871.829</ele>
        <time>2021-03-06T06:42:13Z</time>
      </trkpt>
      <trkpt lat="45.22096" lon="5.73879">
        <ele>871.278</ele>
        <time>2021-03-06T06:42:17Z</time>
      </trkpt>
      <trkpt lat="45.22081" lon="5.7387">
        <ele>870.003</ele>
        <time>2021-03-06T06:42:22Z</time>
      </trkpt>
      <trkpt lat="45.22065" lon="5.73862">
        <ele>870.417</ele>
        <time>2021-03-06T06:42:28Z</time>
      </trkpt>
      <trkpt lat="45.22058" lon="5.73859">
        <ele>871.22</ele>
        <time>2021-03-06T06:42:31Z</time>
      </trkpt>
      <trkpt lat="45.22042" lon="5.73846">
        <ele>872.243</ele>
        <time>2021-03-06T06:42:39Z</time>
      </trkpt>
      <trkpt lat="45.22032" lon="5.73838">
        <ele>873.564</ele>
        <time>2021-03-06T06:42:44Z</time>
      </trkpt>
      <trkpt lat="45.22017" lon="5.7383">
        <ele>873.554</ele>
        <time>2021-03-06T06:42:51Z</time>
      </trkpt>
      <trkpt lat="45.2201" lon="5.73827">
        <ele>874.756</ele>
        <time>2021-03-06T06:42:54Z</time>
      </trkpt>
      <trkpt lat="45.21995" lon="5.73819">
        <ele>877.175</ele>
        <time>2021-03-06T06:43:02Z</time>
      </trkpt>
      <trkpt lat="45.21989" lon="5.73815">
        <ele>878.615</ele>
        <time>2021-03-06T06:43:05Z</time>
      </trkpt>
      <trkpt lat="45.21987" lon="5.73814">
        <ele>879.989</ele>
        <time>2021-03-06T06:43:07Z</time>
      </trkpt>
      <trkpt lat="45.21978" lon="5.73803">
        <ele>882.331</ele>
        <time>2021-03-06T06:43:14Z</time>
      </trkpt>
      <trkpt lat="45.21975" lon="5.73796">
        <ele>882.875</ele>
        <time>2021-03-06T06:43:18Z</time>
      </trkpt>
      <trkpt lat="45.21965" lon="5.73779">
        <ele>883.97</ele>
        <time>2021-03-06T06:43:26Z</time>
      </trkpt>
      <trkpt lat="45.21963" lon="5.73771">
        <ele>884.633</ele>
        <time>2021-03-06T06:43:30Z</time>
      </trkpt>
      <trkpt lat="45.2196" lon="5.73764">
        <ele>885.502</ele>
        <time>2021-03-06T06:43:34Z</time>
      </trkpt>
      <trkpt lat="45.21953" lon="5.73751">
        <ele>885.816</ele>
        <time>2021-03-06T06:43:40Z</time>
      </trkpt>
      <trkpt lat="45.21946" lon="5.73739">
        <ele>887.667</ele>
        <time>2021-03-06T06:43:48Z</time>
      </trkpt>
      <trkpt lat="45.21939" lon="5.73729">
        <ele>889.336</ele>
        <time>2021-03-06T06:43:55Z</time>
      </trkpt>
      <trkpt lat="45.21929" lon="5.7372">
        <ele>890.966</ele>
        <time>2021-03-06T06:44:01Z</time>
      </trkpt>
      <trkpt lat="45.21926" lon="5.73716">
        <ele>892.311</ele>
        <time>2021-03-06T06:44:04Z</time>
      </trkpt>
      <trkpt lat="45.21916" lon="5.73709">
        <ele>894.324</ele>
        <time>2021-03-06T06:44:10Z</time>
      </trkpt>
      <trkpt lat="45.21909" lon="5.73706">
        <ele>894.993</ele>
        <time>2021-03-06T06:44:15Z</time>
      </trkpt>
      <trkpt lat="45.219" lon="5.73703">
        <ele>898.25</ele>
        <time>2021-03-06T06:44:21Z</time>
      </trkpt>
      <trkpt lat="45.21899" lon="5.73702">
        <ele>898.447</ele>
        <time>2021-03-06T06:44:22Z</time>
      </trkpt>
      <trkpt lat="45.21895" lon="5.73698">
        <ele>899.521</ele>
        <time>2021-03-06T06:44:26Z</time>
      </trkpt>
      <trkpt lat="45.21889" lon="5.73693">
        <ele>900.609</ele>
        <time>2021-03-06T06:44:30Z</time>
      </trkpt>
      <trkpt lat="45.21883" lon="5.73687">
        <ele>901.486</ele>
        <time>2021-03-06T06:44:35Z</time>
      </trkpt>
      <trkpt lat="45.21874" lon="5.7368">
        <ele>901.131</ele>
        <time>2021-03-06T06:44:40Z</time>
      </trkpt>
      <trkpt lat="45.21863" lon="5.7367">
        <ele>899.759</ele>
        <time>2021-03-06T06:44:47Z</time>
      </trkpt>
      <trkpt lat="45.21852" lon="5.7366">
        <ele>899.732</ele>
        <time>2021-03-06T06:44:53Z</time>
      </trkpt>
      <trkpt lat="45.21842" lon="5.73643">
        <ele>900.675</ele>
        <time>2021-03-06T06:44:59Z</time>
      </trkpt>
      <trkpt lat="45.2184" lon="5.73638">
        <ele>901.823</ele>
        <time>2021-03-06T06:45:01Z</time>
      </trkpt>
      <trkpt lat="45.21834" lon="5.73624">
        <ele>902.438</ele>
        <time>2021-03-06T06:45:08Z</time>
      </trkpt>
      <trkpt lat="45.21824" lon="5.73608">
        <ele>903.678</ele>
        <time>2021-03-06T06:45:15Z</time>
      </trkpt>
      <trkpt lat="45.21823" lon="5.73606">
        <ele>904.361</ele>
        <time>2021-03-06T06:45:16Z</time>
      </trkpt>
      <trkpt lat="45.21816" lon="5.73594">
        <ele>905.68</ele>
        <time>2021-03-06T06:45:22Z</time>
      </trkpt>
      <trkpt lat="45.21805" lon="5.7358">
        <ele>908.015</ele>
        <time>2021-03-06T06:45:29Z</time>
      </trkpt>
      <trkpt lat="45.21796" lon="5.73568">
        <ele>909.542</ele>
        <time>2021-03-06T06:45:36Z</time>
      </trkpt>
      <trkpt lat="45.21792" lon="5.73557">
        <ele>912.291</ele>
        <time>2021-03-06T06:45:42Z</time>
      </trkpt>
      <trkpt lat="45.2179" lon="5.73551">
        <ele>913.974</ele>
        <time>2021-03-06T06:45:46Z</time>
      </trkpt>
      <trkpt lat="45.21787" lon="5.73543">
        <ele>915.067</ele>
        <time>2021-03-06T06:45:51Z</time>
      </trkpt>
      <trkpt lat="45.21786" lon="5.73542">
        <ele>914.796</ele>
        <time>2021-03-06T06:45:52Z</time>
      </trkpt>
      <trkpt lat="45.21783" lon="5.73538">
        <ele>914.899</ele>
        <time>2021-03-06T06:45:55Z</time>
      </trkpt>
      <trkpt lat="45.2178" lon="5.73536">
        <ele>915.202</ele>
        <time>2021-03-06T06:45:58Z</time>
      </trkpt>
      <trkpt lat="45.21768" lon="5.73526">
        <ele>917.148</ele>
        <time>2021-03-06T06:46:05Z</time>
      </trkpt>
      <trkpt lat="45.21764" lon="5.73525">
        <ele>917.235</ele>
        <time>2021-03-06T06:46:07Z</time>
      </trkpt>
      <trkpt lat="45.21754" lon="5.73522">
        <ele>915.127</ele>
        <time>2021-03-06T06:46:12Z</time>
      </trkpt>
      <trkpt lat="45.2174" lon="5.73518">
        <ele>915.699</ele>
        <time>2021-03-06T06:46:18Z</time>
      </trkpt>
      <trkpt lat="45.21728" lon="5.73509">
        <ele>916.232</ele>
        <time>2021-03-06T06:46:24Z</time>
      </trkpt>
      <trkpt lat="45.21715" lon="5.73502">
        <ele>915.13</ele>
        <time>2021-03-06T06:46:29Z</time>
      </trkpt>
      <trkpt lat="45.21711" lon="5.73501">
        <ele>915.376</ele>
        <time>2021-03-06T06:46:31Z</time>
      </trkpt>
      <trkpt lat="45.2169" lon="5.73495">
        <ele>914.947</ele>
        <time>2021-03-06T06:46:40Z</time>
      </trkpt>
      <trkpt lat="45.21673" lon="5.73482">
        <ele>914.022</ele>
        <time>2021-03-06T06:46:47Z</time>
      </trkpt>
      <trkpt lat="45.21661" lon="5.73449">
        <ele>912.486</ele>
        <time>2021-03-06T06:46:56Z</time>
      </trkpt>
      <trkpt lat="45.21655" lon="5.73429">
        <ele>911.198</ele>
        <time>2021-03-06T06:47:02Z</time>
      </trkpt>
      <trkpt lat="45.21649" lon="5.73413">
        <ele>909.943</ele>
        <time>2021-03-06T06:47:08Z</time>
      </trkpt>
      <trkpt lat="45.21639" lon="5.73394">
        <ele>908.492</ele>
        <time>2021-03-06T06:47:15Z</time>
      </trkpt>
      <trkpt lat="45.21628" lon="5.73382">
        <ele>906.839</ele>
        <time>2021-03-06T06:47:21Z</time>
      </trkpt>
      <trkpt lat="45.21615" lon="5.73375">
        <ele>904.686</ele>
        <time>2021-03-06T06:47:28Z</time>
      </trkpt>
      <trkpt lat="45.21605" lon="5.73366">
        <ele>902.129</ele>
        <time>2021-03-06T06:47:34Z</time>
      </trkpt>
      <trkpt lat="45.21598" lon="5.73358">
        <ele>900.089</ele>
        <time>2021-03-06T06:47:37Z</time>
      </trkpt>
      <trkpt lat="45.21588" lon="5.73347">
        <ele>898.677</ele>
        <time>2021-03-06T06:47:44Z</time>
      </trkpt>
      <trkpt lat="45.21581" lon="5.73346">
        <ele>896.338</ele>
        <time>2021-03-06T06:47:48Z</time>
      </trkpt>
      <trkpt lat="45.21572" lon="5.73342">
        <ele>894.54</ele>
        <time>2021-03-06T06:47:52Z</time>
      </trkpt>
      <trkpt lat="45.21554" lon="5.73331">
        <ele>892.054</ele>
        <time>2021-03-06T06:48:00Z</time>
      </trkpt>
      <trkpt lat="45.21543" lon="5.73327">
        <ele>890.474</ele>
        <time>2021-03-06T06:48:05Z</time>
      </trkpt>
      <trkpt lat="45.21532" lon="5.73323">
        <ele>887.457</ele>
        <time>2021-03-06T06:48:10Z</time>
      </trkpt>
      <trkpt lat="45.21529" lon="5.73322">
        <ele>887.539</ele>
        <time>2021-03-06T06:48:11Z</time>
      </trkpt>
      <trkpt lat="45.21515" lon="5.73312">
        <ele>886.155</ele>
        <time>2021-03-06T06:48:18Z</time>
      </trkpt>
      <trkpt lat="45.21513" lon="5.73303">
        <ele>885.613</ele>
        <time>2021-03-06T06:48:22Z</time>
      </trkpt>
      <trkpt lat="45.21511" lon="5.73274">
        <ele>884.211</ele>
        <time>2021-03-06T06:48:29Z</time>
      </trkpt>
      <trkpt lat="45.21512" lon="5.73266">
        <ele>884.5</ele>
        <time>2021-03-06T06:48:31Z</time>
      </trkpt>
      <trkpt lat="45.21501" lon="5.73249">
        <ele>882.97</ele>
        <time>2021-03-06T06:48:37Z</time>
      </trkpt>
      <trkpt lat="45.21499" lon="5.73246">
        <ele>881.947</ele>
        <time>2021-03-06T06:48:38Z</time>
      </trkpt>
      <trkpt lat="45.21489" lon="5.73237">
        <ele>880.704</ele>
        <time>2021-03-06T06:48:44Z</time>
      </trkpt>
      <trkpt lat="45.21483" lon="5.73231">
        <ele>879.041</ele>
        <time>2021-03-06T06:48:49Z</time>
      </trkpt>
      <trkpt lat="45.21474" lon="5.73209">
        <ele>876.333</ele>
        <time>2021-03-06T06:48:56Z</time>
      </trkpt>
      <trkpt lat="45.21472" lon="5.73192">
        <ele>875.365</ele>
        <time>2021-03-06T06:49:01Z</time>
      </trkpt>
      <trkpt lat="45.21471" lon="5.73191">
        <ele>875.257</ele>
        <time>2021-03-06T06:49:02Z</time>
      </trkpt>
      <trkpt lat="45.21467" lon="5.73183">
        <ele>872.565</ele>
        <time>2021-03-06T06:49:07Z</time>
      </trkpt>
      <trkpt lat="45.21462" lon="5.7318">
        <ele>871.005</ele>
        <time>2021-03-06T06:49:10Z</time>
      </trkpt>
      <trkpt lat="45.21457" lon="5.7317">
        <ele>869.172</ele>
        <time>2021-03-06T06:49:15Z</time>
      </trkpt>
      <trkpt lat="45.21452" lon="5.73164">
        <ele>867.11</ele>
        <time>2021-03-06T06:49:18Z</time>
      </trkpt>
      <trkpt lat="45.21445" lon="5.73156">
        <ele>865.63</ele>
        <time>2021-03-06T06:49:22Z</time>
      </trkpt>
      <trkpt lat="45.21443" lon="5.73155">
        <ele>864.698</ele>
        <time>2021-03-06T06:49:24Z</time>
      </trkpt>
      <trkpt lat="45.21436" lon="5.73154">
        <ele>863.047</ele>
        <time>2021-03-06T06:49:27Z</time>
      </trkpt>
      <trkpt lat="45.21422" lon="5.73143">
        <ele>862.334</ele>
        <time>2021-03-06T06:49:35Z</time>
      </trkpt>
      <trkpt lat="45.21412" lon="5.7313">
        <ele>860.675</ele>
        <time>2021-03-06T06:49:42Z</time>
      </trkpt>
      <trkpt lat="45.21397" lon="5.73113">
        <ele>858.428</ele>
        <time>2021-03-06T06:49:50Z</time>
      </trkpt>
      <trkpt lat="45.21386" lon="5.73094">
        <ele>857.43</ele>
        <time>2021-03-06T06:49:57Z</time>
      </trkpt>
      <trkpt lat="45.21382" lon="5.73091">
        <ele>856.011</ele>
        <time>2021-03-06T06:49:59Z</time>
      </trkpt>
      <trkpt lat="45.21367" lon="5.73068">
        <ele>855.083</ele>
        <time>2021-03-06T06:50:07Z</time>
      </trkpt>
      <trkpt lat="45.2136" lon="5.73061">
        <ele>853.022</ele>
        <time>2021-03-06T06:50:12Z</time>
      </trkpt>
      <trkpt lat="45.21359" lon="5.73059">
        <ele>852.949</ele>
        <time>2021-03-06T06:50:13Z</time>
      </trkpt>
      <trkpt lat="45.21355" lon="5.73055">
        <ele>852.225</ele>
        <time>2021-03-06T06:50:16Z</time>
      </trkpt>
      <trkpt lat="45.21353" lon="5.7305">
        <ele>850.863</ele>
        <time>2021-03-06T06:50:19Z</time>
      </trkpt>
      <trkpt lat="45.21344" lon="5.7304">
        <ele>848.237</ele>
        <time>2021-03-06T06:50:26Z</time>
      </trkpt>
      <trkpt lat="45.21344" lon="5.73039">
        <ele>848.117</ele>
        <time>2021-03-06T06:50:27Z</time>
      </trkpt>
      <trkpt lat="45.21338" lon="5.73032">
        <ele>847.075</ele>
        <time>2021-03-06T06:50:31Z</time>
      </trkpt>
      <trkpt lat="45.21332" lon="5.73026">
        <ele>845.66</ele>
        <time>2021-03-06T06:50:34Z</time>
      </trkpt>
      <trkpt lat="45.21328" lon="5.73022">
        <ele>843.838</ele>
        <time>2021-03-06T06:50:36Z</time>
      </trkpt>
      <trkpt lat="45.2132" lon="5.7301">
        <ele>841.35</ele>
        <time>2021-03-06T06:50:43Z</time>
      </trkpt>
      <trkpt lat="45.21315" lon="5.73">
        <ele>839.492</ele>
        <time>2021-03-06T06:50:49Z</time>
      </trkpt>
      <trkpt lat="45.21313" lon="5.72998">
        <ele>838.941</ele>
        <time>2021-03-06T06:50:50Z</time>
      </trkpt>
      <trkpt lat="45.21311" lon="5.72994">
        <ele>837.897</ele>
        <time>2021-03-06T06:50:52Z</time>
      </trkpt>
      <trkpt lat="45.21304" lon="5.72984">
        <ele>836.677</ele>
        <time>2021-03-06T06:50:57Z</time>
      </trkpt>
      <trkpt lat="45.21291" lon="5.72972">
        <ele>833.721</ele>
        <time>2021-03-06T06:51:05Z</time>
      </trkpt>
      <trkpt lat="45.21289" lon="5.72971">
        <ele>833.165</ele>
        <time>2021-03-06T06:51:06Z</time>
      </trkpt>
      <trkpt lat="45.21283" lon="5.72967">
        <ele>830.218</ele>
        <time>2021-03-06T06:51:12Z</time>
      </trkpt>
      <trkpt lat="45.21273" lon="5.72954">
        <ele>828.476</ele>
        <time>2021-03-06T06:51:19Z</time>
      </trkpt>
      <trkpt lat="45.21262" lon="5.72949">
        <ele>826.214</ele>
        <time>2021-03-06T06:51:26Z</time>
      </trkpt>
      <trkpt lat="45.21259" lon="5.72947">
        <ele>824.796</ele>
        <time>2021-03-06T06:51:28Z</time>
      </trkpt>
      <trkpt lat="45.21253" lon="5.72942">
        <ele>822.826</ele>
        <time>2021-03-06T06:51:33Z</time>
      </trkpt>
      <trkpt lat="45.21245" lon="5.7294">
        <ele>819.775</ele>
        <time>2021-03-06T06:51:40Z</time>
      </trkpt>
      <trkpt lat="45.21242" lon="5.72939">
        <ele>819.12</ele>
        <time>2021-03-06T06:51:42Z</time>
      </trkpt>
      <trkpt lat="45.21239" lon="5.72937">
        <ele>818.545</ele>
        <time>2021-03-06T06:51:45Z</time>
      </trkpt>
      <trkpt lat="45.21228" lon="5.72924">
        <ele>816.959</ele>
        <time>2021-03-06T06:51:52Z</time>
      </trkpt>
      <trkpt lat="45.21227" lon="5.72924">
        <ele>816.355</ele>
        <time>2021-03-06T06:51:53Z</time>
      </trkpt>
      <trkpt lat="45.21222" lon="5.72922">
        <ele>815.108</ele>
        <time>2021-03-06T06:51:56Z</time>
      </trkpt>
      <trkpt lat="45.21214" lon="5.72918">
        <ele>812.743</ele>
        <time>2021-03-06T06:52:01Z</time>
      </trkpt>
      <trkpt lat="45.21211" lon="5.7292">
        <ele>810.985</ele>
        <time>2021-03-06T06:52:05Z</time>
      </trkpt>
      <trkpt lat="45.21213" lon="5.72928">
        <ele>808.671</ele>
        <time>2021-03-06T06:52:11Z</time>
      </trkpt>
      <trkpt lat="45.21218" lon="5.72937">
        <ele>806.424</ele>
        <time>2021-03-06T06:52:17Z</time>
      </trkpt>
      <trkpt lat="45.21217" lon="5.72937">
        <ele>806.111</ele>
        <time>2021-03-06T06:52:18Z</time>
      </trkpt>
      <trkpt lat="45.21209" lon="5.72935">
        <ele>805.998</ele>
        <time>2021-03-06T06:52:22Z</time>
      </trkpt>
      <trkpt lat="45.21197" lon="5.72919">
        <ele>802.833</ele>
        <time>2021-03-06T06:52:30Z</time>
      </trkpt>
      <trkpt lat="45.21184" lon="5.72908">
        <ele>799.453</ele>
        <time>2021-03-06T06:52:37Z</time>
      </trkpt>
      <trkpt lat="45.21179" lon="5.72904">
        <ele>799.458</ele>
        <time>2021-03-06T06:52:39Z</time>
      </trkpt>
      <trkpt lat="45.2117" lon="5.72902">
        <ele>797.616</ele>
        <time>2021-03-06T06:52:43Z</time>
      </trkpt>
      <trkpt lat="45.21164" lon="5.72898">
        <ele>795.431</ele>
        <time>2021-03-06T06:52:47Z</time>
      </trkpt>
      <trkpt lat="45.2116" lon="5.72898">
        <ele>794.912</ele>
        <time>2021-03-06T06:52:50Z</time>
      </trkpt>
      <trkpt lat="45.21156" lon="5.72896">
        <ele>794.417</ele>
        <time>2021-03-06T06:52:52Z</time>
      </trkpt>
      <trkpt lat="45.21144" lon="5.72893">
        <ele>792.107</ele>
        <time>2021-03-06T06:52:58Z</time>
      </trkpt>
      <trkpt lat="45.21134" lon="5.72889">
        <ele>789.621</ele>
        <time>2021-03-06T06:53:04Z</time>
      </trkpt>
      <trkpt lat="45.21129" lon="5.72886">
        <ele>788.6</ele>
        <time>2021-03-06T06:53:07Z</time>
      </trkpt>
      <trkpt lat="45.21123" lon="5.72885">
        <ele>787.201</ele>
        <time>2021-03-06T06:53:10Z</time>
      </trkpt>
      <trkpt lat="45.21115" lon="5.72874">
        <ele>785.206</ele>
        <time>2021-03-06T06:53:16Z</time>
      </trkpt>
      <trkpt lat="45.21103" lon="5.72859">
        <ele>783.099</ele>
        <time>2021-03-06T06:53:24Z</time>
      </trkpt>
      <trkpt lat="45.21095" lon="5.72855">
        <ele>781.113</ele>
        <time>2021-03-06T06:53:31Z</time>
      </trkpt>
      <trkpt lat="45.21086" lon="5.72846">
        <ele>780.572</ele>
        <time>2021-03-06T06:53:36Z</time>
      </trkpt>
      <trkpt lat="45.21084" lon="5.72845">
        <ele>779.586</ele>
        <time>2021-03-06T06:53:37Z</time>
      </trkpt>
      <trkpt lat="45.2107" lon="5.72828">
        <ele>778.676</ele>
        <time>2021-03-06T06:53:44Z</time>
      </trkpt>
      <trkpt lat="45.21063" lon="5.72807">
        <ele>778.256</ele>
        <time>2021-03-06T06:53:50Z</time>
      </trkpt>
      <trkpt lat="45.21056" lon="5.72793">
        <ele>778.28</ele>
        <time>2021-03-06T06:53:53Z</time>
      </trkpt>
      <trkpt lat="45.21057" lon="5.72789">
        <ele>778.356</ele>
        <time>2021-03-06T06:53:55Z</time>
      </trkpt>
      <trkpt lat="45.21054" lon="5.72766">
        <ele>777.124</ele>
        <time>2021-03-06T06:54:02Z</time>
      </trkpt>
      <trkpt lat="45.21049" lon="5.72754">
        <ele>775.62</ele>
        <time>2021-03-06T06:54:07Z</time>
      </trkpt>
      <trkpt lat="45.21047" lon="5.72752">
        <ele>776.041</ele>
        <time>2021-03-06T06:54:08Z</time>
      </trkpt>
      <trkpt lat="45.21039" lon="5.72745">
        <ele>774.371</ele>
        <time>2021-03-06T06:54:14Z</time>
      </trkpt>
      <trkpt lat="45.21032" lon="5.72746">
        <ele>771.733</ele>
        <time>2021-03-06T06:54:20Z</time>
      </trkpt>
      <trkpt lat="45.21029" lon="5.72746">
        <ele>770.858</ele>
        <time>2021-03-06T06:54:22Z</time>
      </trkpt>
      <trkpt lat="45.21025" lon="5.72743">
        <ele>769.799</ele>
        <time>2021-03-06T06:54:27Z</time>
      </trkpt>
      <trkpt lat="45.21019" lon="5.72744">
        <ele>768.343</ele>
        <time>2021-03-06T06:54:32Z</time>
      </trkpt>
      <trkpt lat="45.21012" lon="5.72746">
        <ele>765.159</ele>
        <time>2021-03-06T06:54:39Z</time>
      </trkpt>
      <trkpt lat="45.21009" lon="5.72746">
        <ele>763.697</ele>
        <time>2021-03-06T06:54:41Z</time>
      </trkpt>
      <trkpt lat="45.21007" lon="5.72748">
        <ele>761.809</ele>
        <time>2021-03-06T06:54:46Z</time>
      </trkpt>
      <trkpt lat="45.21005" lon="5.72751">
        <ele>760.861</ele>
        <time>2021-03-06T06:54:48Z</time>
      </trkpt>
      <trkpt lat="45.21002" lon="5.72754">
        <ele>757.904</ele>
        <time>2021-03-06T06:54:54Z</time>
      </trkpt>
      <trkpt lat="45.20995" lon="5.72758">
        <ele>756.328</ele>
        <time>2021-03-06T06:55:00Z</time>
      </trkpt>
      <trkpt lat="45.2099" lon="5.72763">
        <ele>754.081</ele>
        <time>2021-03-06T06:55:06Z</time>
      </trkpt>
      <trkpt lat="45.20986" lon="5.72762">
        <ele>751.265</ele>
        <time>2021-03-06T06:55:11Z</time>
      </trkpt>
      <trkpt lat="45.20981" lon="5.72757">
        <ele>749.623</ele>
        <time>2021-03-06T06:55:15Z</time>
      </trkpt>
      <trkpt lat="45.20976" lon="5.7275">
        <ele>748.099</ele>
        <time>2021-03-06T06:55:20Z</time>
      </trkpt>
      <trkpt lat="45.20968" lon="5.72739">
        <ele>745.714</ele>
        <time>2021-03-06T06:55:26Z</time>
      </trkpt>
      <trkpt lat="45.20966" lon="5.72731">
        <ele>742.583</ele>
        <time>2021-03-06T06:55:33Z</time>
      </trkpt>
      <trkpt lat="45.20961" lon="5.72725">
        <ele>740.645</ele>
        <time>2021-03-06T06:55:40Z</time>
      </trkpt>
      <trkpt lat="45.20955" lon="5.72717">
        <ele>738.246</ele>
        <time>2021-03-06T06:55:46Z</time>
      </trkpt>
      <trkpt lat="45.20949" lon="5.72714">
        <ele>736.207</ele>
        <time>2021-03-06T06:55:51Z</time>
      </trkpt>
      <trkpt lat="45.20947" lon="5.72712">
        <ele>734.353</ele>
        <time>2021-03-06T06:55:53Z</time>
      </trkpt>
      <trkpt lat="45.20935" lon="5.72696">
        <ele>731.892</ele>
        <time>2021-03-06T06:55:59Z</time>
      </trkpt>
      <trkpt lat="45.20929" lon="5.72686">
        <ele>730.131</ele>
        <time>2021-03-06T06:56:03Z</time>
      </trkpt>
      <trkpt lat="45.20928" lon="5.72686">
        <ele>729.625</ele>
        <time>2021-03-06T06:56:04Z</time>
      </trkpt>
      <trkpt lat="45.20925" lon="5.72688">
        <ele>729.094</ele>
        <time>2021-03-06T06:56:06Z</time>
      </trkpt>
      <trkpt lat="45.20919" lon="5.72678">
        <ele>727.898</ele>
        <time>2021-03-06T06:56:11Z</time>
      </trkpt>
      <trkpt lat="45.20916" lon="5.72675">
        <ele>726.859</ele>
        <time>2021-03-06T06:56:13Z</time>
      </trkpt>
      <trkpt lat="45.2091" lon="5.72677">
        <ele>724.483</ele>
        <time>2021-03-06T06:56:17Z</time>
      </trkpt>
      <trkpt lat="45.20902" lon="5.7268">
        <ele>722.849</ele>
        <time>2021-03-06T06:56:22Z</time>
      </trkpt>
      <trkpt lat="45.20896" lon="5.72679">
        <ele>720.044</ele>
        <time>2021-03-06T06:56:27Z</time>
      </trkpt>
      <trkpt lat="45.20888" lon="5.7268">
        <ele>717.724</ele>
        <time>2021-03-06T06:56:32Z</time>
      </trkpt>
      <trkpt lat="45.20879" lon="5.72688">
        <ele>717.179</ele>
        <time>2021-03-06T06:56:37Z</time>
      </trkpt>
      <trkpt lat="45.20868" lon="5.72691">
        <ele>715.84</ele>
        <time>2021-03-06T06:56:42Z</time>
      </trkpt>
      <trkpt lat="45.20861" lon="5.72693">
        <ele>712.923</ele>
        <time>2021-03-06T06:56:46Z</time>
      </trkpt>
      <trkpt lat="45.20848" lon="5.72694">
        <ele>710.518</ele>
        <time>2021-03-06T06:56:53Z</time>
      </trkpt>
      <trkpt lat="45.20839" lon="5.72699">
        <ele>707.916</ele>
        <time>2021-03-06T06:57:00Z</time>
      </trkpt>
      <trkpt lat="45.20835" lon="5.72695">
        <ele>705.609</ele>
        <time>2021-03-06T06:57:06Z</time>
      </trkpt>
      <trkpt lat="45.20835" lon="5.72686">
        <ele>704.203</ele>
        <time>2021-03-06T06:57:11Z</time>
      </trkpt>
      <trkpt lat="45.20832" lon="5.7267">
        <ele>701.601</ele>
        <time>2021-03-06T06:57:17Z</time>
      </trkpt>
      <trkpt lat="45.20831" lon="5.7266">
        <ele>699.875</ele>
        <time>2021-03-06T06:57:23Z</time>
      </trkpt>
      <trkpt lat="45.20829" lon="5.72657">
        <ele>698.654</ele>
        <time>2021-03-06T06:57:25Z</time>
      </trkpt>
      <trkpt lat="45.20824" lon="5.7266">
        <ele>697.224</ele>
        <time>2021-03-06T06:57:29Z</time>
      </trkpt>
      <trkpt lat="45.20817" lon="5.72668">
        <ele>695.217</ele>
        <time>2021-03-06T06:57:34Z</time>
      </trkpt>
      <trkpt lat="45.20809" lon="5.72672">
        <ele>691.869</ele>
        <time>2021-03-06T06:57:40Z</time>
      </trkpt>
      <trkpt lat="45.20807" lon="5.72664">
        <ele>690.868</ele>
        <time>2021-03-06T06:57:43Z</time>
      </trkpt>
      <trkpt lat="45.20806" lon="5.72657">
        <ele>689.181</ele>
        <time>2021-03-06T06:57:46Z</time>
      </trkpt>
      <trkpt lat="45.20804" lon="5.7265">
        <ele>688.08</ele>
        <time>2021-03-06T06:57:49Z</time>
      </trkpt>
      <trkpt lat="45.20804" lon="5.72641">
        <ele>685.752</ele>
        <time>2021-03-06T06:57:55Z</time>
      </trkpt>
      <trkpt lat="45.20795" lon="5.72622">
        <ele>683.231</ele>
        <time>2021-03-06T06:58:02Z</time>
      </trkpt>
      <trkpt lat="45.20792" lon="5.72622">
        <ele>682.699</ele>
        <time>2021-03-06T06:58:04Z</time>
      </trkpt>
      <trkpt lat="45.20791" lon="5.72637">
        <ele>680.077</ele>
        <time>2021-03-06T06:58:09Z</time>
      </trkpt>
      <trkpt lat="45.20789" lon="5.72642">
        <ele>679.462</ele>
        <time>2021-03-06T06:58:12Z</time>
      </trkpt>
      <trkpt lat="45.20783" lon="5.7265">
        <ele>678.44</ele>
        <time>2021-03-06T06:58:17Z</time>
      </trkpt>
      <trkpt lat="45.20779" lon="5.72653">
        <ele>676.517</ele>
        <time>2021-03-06T06:58:20Z</time>
      </trkpt>
      <trkpt lat="45.20774" lon="5.72653">
        <ele>674.882</ele>
        <time>2021-03-06T06:58:26Z</time>
      </trkpt>
      <trkpt lat="45.20775" lon="5.72646">
        <ele>672.966</ele>
        <time>2021-03-06T06:58:29Z</time>
      </trkpt>
      <trkpt lat="45.20773" lon="5.72636">
        <ele>671.728</ele>
        <time>2021-03-06T06:58:33Z</time>
      </trkpt>
      <trkpt lat="45.20775" lon="5.72627">
        <ele>670.537</ele>
        <time>2021-03-06T06:58:37Z</time>
      </trkpt>
      <trkpt lat="45.20772" lon="5.72618">
        <ele>667.212</ele>
        <time>2021-03-06T06:58:43Z</time>
      </trkpt>
      <trkpt lat="45.20764" lon="5.72618">
        <ele>665.568</ele>
        <time>2021-03-06T06:58:47Z</time>
      </trkpt>
      <trkpt lat="45.20753" lon="5.72622">
        <ele>661.386</ele>
        <time>2021-03-06T06:58:54Z</time>
      </trkpt>
      <trkpt lat="45.2075" lon="5.72623">
        <ele>660.873</ele>
        <time>2021-03-06T06:58:56Z</time>
      </trkpt>
      <trkpt lat="45.20744" lon="5.72618">
        <ele>659.056</ele>
        <time>2021-03-06T06:58:59Z</time>
      </trkpt>
      <trkpt lat="45.20743" lon="5.72601">
        <ele>656.174</ele>
        <time>2021-03-06T06:59:07Z</time>
      </trkpt>
      <trkpt lat="45.20741" lon="5.72591">
        <ele>655.983</ele>
        <time>2021-03-06T06:59:11Z</time>
      </trkpt>
      <trkpt lat="45.20733" lon="5.72591">
        <ele>653.549</ele>
        <time>2021-03-06T06:59:15Z</time>
      </trkpt>
      <trkpt lat="45.20728" lon="5.72585">
        <ele>651.311</ele>
        <time>2021-03-06T06:59:19Z</time>
      </trkpt>
      <trkpt lat="45.20726" lon="5.72584">
        <ele>650.604</ele>
        <time>2021-03-06T06:59:20Z</time>
      </trkpt>
      <trkpt lat="45.20715" lon="5.72585">
        <ele>648.559</ele>
        <time>2021-03-06T06:59:24Z</time>
      </trkpt>
      <trkpt lat="45.20712" lon="5.72583">
        <ele>647.544</ele>
        <time>2021-03-06T06:59:26Z</time>
      </trkpt>
      <trkpt lat="45.20706" lon="5.72579">
        <ele>646.144</ele>
        <time>2021-03-06T06:59:29Z</time>
      </trkpt>
      <trkpt lat="45.20703" lon="5.72574">
        <ele>645.148</ele>
        <time>2021-03-06T06:59:32Z</time>
      </trkpt>
      <trkpt lat="45.20699" lon="5.72572">
        <ele>643.872</ele>
        <time>2021-03-06T06:59:35Z</time>
      </trkpt>
      <trkpt lat="45.20691" lon="5.72573">
        <ele>641.99</ele>
        <time>2021-03-06T06:59:39Z</time>
      </trkpt>
      <trkpt lat="45.20684" lon="5.72575">
        <ele>640.774</ele>
        <time>2021-03-06T06:59:43Z</time>
      </trkpt>
      <trkpt lat="45.20675" lon="5.72579">
        <ele>639.05</ele>
        <time>2021-03-06T06:59:47Z</time>
      </trkpt>
      <trkpt lat="45.20661" lon="5.72588">
        <ele>636.027</ele>
        <time>2021-03-06T06:59:54Z</time>
      </trkpt>
      <trkpt lat="45.20645" lon="5.726">
        <ele>634.402</ele>
        <time>2021-03-06T07:00:02Z</time>
      </trkpt>
      <trkpt lat="45.20643" lon="5.726">
        <ele>635.488</ele>
        <time>2021-03-06T07:00:03Z</time>
      </trkpt>
      <trkpt lat="45.20638" lon="5.72599">
        <ele>634.784</ele>
        <time>2021-03-06T07:00:05Z</time>
      </trkpt>
      <trkpt lat="45.20625" lon="5.72595">
        <ele>633.011</ele>
        <time>2021-03-06T07:00:11Z</time>
      </trkpt>
      <trkpt lat="45.20615" lon="5.72591">
        <ele>631.846</ele>
        <time>2021-03-06T07:00:16Z</time>
      </trkpt>
      <trkpt lat="45.20609" lon="5.72588">
        <ele>630.482</ele>
        <time>2021-03-06T07:00:19Z</time>
      </trkpt>
      <trkpt lat="45.20595" lon="5.72577">
        <ele>630.276</ele>
        <time>2021-03-06T07:00:24Z</time>
      </trkpt>
      <trkpt lat="45.20584" lon="5.72569">
        <ele>628.879</ele>
        <time>2021-03-06T07:00:29Z</time>
      </trkpt>
      <trkpt lat="45.20565" lon="5.72563">
        <ele>627.102</ele>
        <time>2021-03-06T07:00:36Z</time>
      </trkpt>
      <trkpt lat="45.20562" lon="5.72563">
        <ele>626.651</ele>
        <time>2021-03-06T07:00:37Z</time>
      </trkpt>
      <trkpt lat="45.20548" lon="5.72563">
        <ele>626.002</ele>
        <time>2021-03-06T07:00:43Z</time>
      </trkpt>
      <trkpt lat="45.20546" lon="5.72565">
        <ele>625.415</ele>
        <time>2021-03-06T07:00:44Z</time>
      </trkpt>
      <trkpt lat="45.20531" lon="5.72571">
        <ele>624.537</ele>
        <time>2021-03-06T07:00:51Z</time>
      </trkpt>
      <trkpt lat="45.20529" lon="5.72572">
        <ele>624.242</ele>
        <time>2021-03-06T07:00:52Z</time>
      </trkpt>
      <trkpt lat="45.20514" lon="5.72577">
        <ele>622.134</ele>
        <time>2021-03-06T07:00:58Z</time>
      </trkpt>
      <trkpt lat="45.20505" lon="5.72573">
        <ele>621.978</ele>
        <time>2021-03-06T07:01:01Z</time>
      </trkpt>
      <trkpt lat="45.20494" lon="5.72565">
        <ele>621.019</ele>
        <time>2021-03-06T07:01:05Z</time>
      </trkpt>
      <trkpt lat="45.20477" lon="5.72552">
        <ele>619.233</ele>
        <time>2021-03-06T07:01:12Z</time>
      </trkpt>
      <trkpt lat="45.20464" lon="5.72535">
        <ele>617.525</ele>
        <time>2021-03-06T07:01:19Z</time>
      </trkpt>
      <trkpt lat="45.20454" lon="5.72519">
        <ele>615.82</ele>
        <time>2021-03-06T07:01:25Z</time>
      </trkpt>
      <trkpt lat="45.20451" lon="5.72515">
        <ele>614.758</ele>
        <time>2021-03-06T07:01:27Z</time>
      </trkpt>
      <trkpt lat="45.20441" lon="5.72519">
        <ele>613.207</ele>
        <time>2021-03-06T07:01:32Z</time>
      </trkpt>
      <trkpt lat="45.20448" lon="5.72541">
        <ele>611.716</ele>
        <time>2021-03-06T07:01:39Z</time>
      </trkpt>
      <trkpt lat="45.20456" lon="5.72561">
        <ele>609.651</ele>
        <time>2021-03-06T07:01:45Z</time>
      </trkpt>
      <trkpt lat="45.20465" lon="5.72583">
        <ele>608.446</ele>
        <time>2021-03-06T07:01:51Z</time>
      </trkpt>
      <trkpt lat="45.2047" lon="5.72592">
        <ele>606.809</ele>
        <time>2021-03-06T07:01:54Z</time>
      </trkpt>
      <trkpt lat="45.20485" lon="5.72609">
        <ele>604.22</ele>
        <time>2021-03-06T07:02:01Z</time>
      </trkpt>
      <trkpt lat="45.20497" lon="5.72623">
        <ele>602.705</ele>
        <time>2021-03-06T07:02:08Z</time>
      </trkpt>
      <trkpt lat="45.20519" lon="5.72631">
        <ele>601.57</ele>
        <time>2021-03-06T07:02:16Z</time>
      </trkpt>
      <trkpt lat="45.20523" lon="5.72634">
        <ele>601.477</ele>
        <time>2021-03-06T07:02:18Z</time>
      </trkpt>
      <trkpt lat="45.20528" lon="5.72641">
        <ele>599.985</ele>
        <time>2021-03-06T07:02:21Z</time>
      </trkpt>
      <trkpt lat="45.20532" lon="5.72647">
        <ele>599.736</ele>
        <time>2021-03-06T07:02:23Z</time>
      </trkpt>
      <trkpt lat="45.20544" lon="5.72667">
        <ele>597.87</ele>
        <time>2021-03-06T07:02:30Z</time>
      </trkpt>
      <trkpt lat="45.20556" lon="5.72687">
        <ele>595.449</ele>
        <time>2021-03-06T07:02:37Z</time>
      </trkpt>
      <trkpt lat="45.20574" lon="5.72701">
        <ele>594.285</ele>
        <time>2021-03-06T07:02:45Z</time>
      </trkpt>
      <trkpt lat="45.20581" lon="5.72709">
        <ele>592.97</ele>
        <time>2021-03-06T07:02:49Z</time>
      </trkpt>
      <trkpt lat="45.20578" lon="5.7271">
        <ele>592.171</ele>
        <time>2021-03-06T07:02:51Z</time>
      </trkpt>
      <trkpt lat="45.20572" lon="5.72709">
        <ele>591.356</ele>
        <time>2021-03-06T07:02:54Z</time>
      </trkpt>
      <trkpt lat="45.20556" lon="5.72698">
        <ele>589.625</ele>
        <time>2021-03-06T07:03:01Z</time>
      </trkpt>
      <trkpt lat="45.20545" lon="5.72689">
        <ele>587.737</ele>
        <time>2021-03-06T07:03:07Z</time>
      </trkpt>
      <trkpt lat="45.20533" lon="5.7268">
        <ele>585.958</ele>
        <time>2021-03-06T07:03:13Z</time>
      </trkpt>
      <trkpt lat="45.20525" lon="5.72676">
        <ele>584.402</ele>
        <time>2021-03-06T07:03:17Z</time>
      </trkpt>
      <trkpt lat="45.20516" lon="5.72673">
        <ele>582.91</ele>
        <time>2021-03-06T07:03:21Z</time>
      </trkpt>
      <trkpt lat="45.20499" lon="5.72664">
        <ele>580.716</ele>
        <time>2021-03-06T07:03:28Z</time>
      </trkpt>
      <trkpt lat="45.20485" lon="5.72659">
        <ele>579.094</ele>
        <time>2021-03-06T07:03:34Z</time>
      </trkpt>
      <trkpt lat="45.2048" lon="5.72657">
        <ele>578.521</ele>
        <time>2021-03-06T07:03:36Z</time>
      </trkpt>
      <trkpt lat="45.20472" lon="5.72653">
        <ele>577.72</ele>
        <time>2021-03-06T07:03:40Z</time>
      </trkpt>
      <trkpt lat="45.20457" lon="5.72643">
        <ele>576.634</ele>
        <time>2021-03-06T07:03:46Z</time>
      </trkpt>
      <trkpt lat="45.2045" lon="5.72642">
        <ele>575.383</ele>
        <time>2021-03-06T07:03:49Z</time>
      </trkpt>
      <trkpt lat="45.20439" lon="5.72638">
        <ele>573.606</ele>
        <time>2021-03-06T07:03:55Z</time>
      </trkpt>
      <trkpt lat="45.20436" lon="5.72637">
        <ele>573.312</ele>
        <time>2021-03-06T07:03:56Z</time>
      </trkpt>
      <trkpt lat="45.20432" lon="5.72632">
        <ele>572.377</ele>
        <time>2021-03-06T07:03:58Z</time>
      </trkpt>
      <trkpt lat="45.20417" lon="5.72618">
        <ele>571.577</ele>
        <time>2021-03-06T07:04:04Z</time>
      </trkpt>
      <trkpt lat="45.20415" lon="5.72622">
        <ele>570.421</ele>
        <time>2021-03-06T07:04:07Z</time>
      </trkpt>
      <trkpt lat="45.20422" lon="5.72634">
        <ele>569.508</ele>
        <time>2021-03-06T07:04:10Z</time>
      </trkpt>
      <trkpt lat="45.20429" lon="5.72646">
        <ele>568.02</ele>
        <time>2021-03-06T07:04:14Z</time>
      </trkpt>
      <trkpt lat="45.20436" lon="5.72659">
        <ele>566.455</ele>
        <time>2021-03-06T07:04:19Z</time>
      </trkpt>
      <trkpt lat="45.20443" lon="5.72667">
        <ele>565.583</ele>
        <time>2021-03-06T07:04:23Z</time>
      </trkpt>
      <trkpt lat="45.20447" lon="5.72677">
        <ele>563.792</ele>
        <time>2021-03-06T07:04:27Z</time>
      </trkpt>
      <trkpt lat="45.20454" lon="5.7268">
        <ele>562.533</ele>
        <time>2021-03-06T07:04:31Z</time>
      </trkpt>
      <trkpt lat="45.20464" lon="5.72689">
        <ele>561.219</ele>
        <time>2021-03-06T07:04:36Z</time>
      </trkpt>
      <trkpt lat="45.2048" lon="5.72702">
        <ele>560.523</ele>
        <time>2021-03-06T07:04:43Z</time>
      </trkpt>
      <trkpt lat="45.20488" lon="5.72708">
        <ele>558.984</ele>
        <time>2021-03-06T07:04:47Z</time>
      </trkpt>
      <trkpt lat="45.20503" lon="5.72726">
        <ele>556.306</ele>
        <time>2021-03-06T07:04:54Z</time>
      </trkpt>
      <trkpt lat="45.20522" lon="5.72736">
        <ele>554.854</ele>
        <time>2021-03-06T07:05:00Z</time>
      </trkpt>
      <trkpt lat="45.20524" lon="5.72738">
        <ele>554.608</ele>
        <time>2021-03-06T07:05:01Z</time>
      </trkpt>
      <trkpt lat="45.20523" lon="5.72741">
        <ele>554.444</ele>
        <time>2021-03-06T07:05:03Z</time>
      </trkpt>
      <trkpt lat="45.20514" lon="5.72739">
        <ele>552.957</ele>
        <time>2021-03-06T07:05:07Z</time>
      </trkpt>
      <trkpt lat="45.20497" lon="5.7273">
        <ele>552.585</ele>
        <time>2021-03-06T07:05:13Z</time>
      </trkpt>
      <trkpt lat="45.20486" lon="5.72725">
        <ele>550.481</ele>
        <time>2021-03-06T07:05:18Z</time>
      </trkpt>
      <trkpt lat="45.20477" lon="5.72723">
        <ele>550.198</ele>
        <time>2021-03-06T07:05:22Z</time>
      </trkpt>
      <trkpt lat="45.20467" lon="5.72719">
        <ele>548.839</ele>
        <time>2021-03-06T07:05:26Z</time>
      </trkpt>
      <trkpt lat="45.20458" lon="5.72716">
        <ele>548.189</ele>
        <time>2021-03-06T07:05:29Z</time>
      </trkpt>
      <trkpt lat="45.20447" lon="5.72712">
        <ele>545.501</ele>
        <time>2021-03-06T07:05:35Z</time>
      </trkpt>
      <trkpt lat="45.20435" lon="5.72706">
        <ele>543.601</ele>
        <time>2021-03-06T07:05:40Z</time>
      </trkpt>
      <trkpt lat="45.2042" lon="5.72698">
        <ele>541.923</ele>
        <time>2021-03-06T07:05:47Z</time>
      </trkpt>
      <trkpt lat="45.20406" lon="5.72686">
        <ele>539.591</ele>
        <time>2021-03-06T07:05:53Z</time>
      </trkpt>
      <trkpt lat="45.20397" lon="5.72675">
        <ele>536.971</ele>
        <time>2021-03-06T07:05:58Z</time>
      </trkpt>
      <trkpt lat="45.20386" lon="5.72663">
        <ele>534.459</ele>
        <time>2021-03-06T07:06:04Z</time>
      </trkpt>
      <trkpt lat="45.20376" lon="5.72653">
        <ele>534.209</ele>
        <time>2021-03-06T07:06:09Z</time>
      </trkpt>
      <trkpt lat="45.20364" lon="5.72646">
        <ele>531.838</ele>
        <time>2021-03-06T07:06:15Z</time>
      </trkpt>
      <trkpt lat="45.2036" lon="5.72642">
        <ele>531.442</ele>
        <time>2021-03-06T07:06:17Z</time>
      </trkpt>
      <trkpt lat="45.20349" lon="5.72639">
        <ele>528.95</ele>
        <time>2021-03-06T07:06:23Z</time>
      </trkpt>
      <trkpt lat="45.20343" lon="5.72633">
        <ele>527.705</ele>
        <time>2021-03-06T07:06:25Z</time>
      </trkpt>
      <trkpt lat="45.20331" lon="5.72624">
        <ele>526.734</ele>
        <time>2021-03-06T07:06:30Z</time>
      </trkpt>
      <trkpt lat="45.20328" lon="5.7262">
        <ele>526.193</ele>
        <time>2021-03-06T07:06:32Z</time>
      </trkpt>
      <trkpt lat="45.20314" lon="5.72612">
        <ele>522.967</ele>
        <time>2021-03-06T07:06:39Z</time>
      </trkpt>
      <trkpt lat="45.20304" lon="5.72607">
        <ele>521.853</ele>
        <time>2021-03-06T07:06:44Z</time>
      </trkpt>
      <trkpt lat="45.20275" lon="5.72598">
        <ele>520.578</ele>
        <time>2021-03-06T07:06:57Z</time>
      </trkpt>
      <trkpt lat="45.20272" lon="5.72599">
        <ele>516.437</ele>
        <time>2021-03-06T07:06:58Z</time>
      </trkpt>
      <trkpt lat="45.20271" lon="5.72599">
        <ele>516.823</ele>
        <time>2021-03-06T07:06:59Z</time>
      </trkpt>
      <trkpt lat="45.20262" lon="5.72598">
        <ele>514.825</ele>
        <time>2021-03-06T07:07:03Z</time>
      </trkpt>
      <trkpt lat="45.20253" lon="5.72601">
        <ele>514.031</ele>
        <time>2021-03-06T07:07:07Z</time>
      </trkpt>
      <trkpt lat="45.20249" lon="5.726">
        <ele>512.376</ele>
        <time>2021-03-06T07:07:09Z</time>
      </trkpt>
      <trkpt lat="45.20243" lon="5.72605">
        <ele>511.696</ele>
        <time>2021-03-06T07:07:12Z</time>
      </trkpt>
      <trkpt lat="45.20232" lon="5.726">
        <ele>509.777</ele>
        <time>2021-03-06T07:07:17Z</time>
      </trkpt>
      <trkpt lat="45.20227" lon="5.72596">
        <ele>509.723</ele>
        <time>2021-03-06T07:07:19Z</time>
      </trkpt>
      <trkpt lat="45.20219" lon="5.7259">
        <ele>507.806</ele>
        <time>2021-03-06T07:07:23Z</time>
      </trkpt>
      <trkpt lat="45.20205" lon="5.72584">
        <ele>506.294</ele>
        <time>2021-03-06T07:07:30Z</time>
      </trkpt>
      <trkpt lat="45.20191" lon="5.72576">
        <ele>503.503</ele>
        <time>2021-03-06T07:07:37Z</time>
      </trkpt>
      <trkpt lat="45.20185" lon="5.72572">
        <ele>502.761</ele>
        <time>2021-03-06T07:07:39Z</time>
      </trkpt>
      <trkpt lat="45.20166" lon="5.72561">
        <ele>499.67</ele>
        <time>2021-03-06T07:07:46Z</time>
      </trkpt>
      <trkpt lat="45.20148" lon="5.72554">
        <ele>497.971</ele>
        <time>2021-03-06T07:07:53Z</time>
      </trkpt>
      <trkpt lat="45.20133" lon="5.72548">
        <ele>496.541</ele>
        <time>2021-03-06T07:07:59Z</time>
      </trkpt>
      <trkpt lat="45.20128" lon="5.72546">
        <ele>495.013</ele>
        <time>2021-03-06T07:08:01Z</time>
      </trkpt>
      <trkpt lat="45.20117" lon="5.72545">
        <ele>492.229</ele>
        <time>2021-03-06T07:08:06Z</time>
      </trkpt>
      <trkpt lat="45.20115" lon="5.72545">
        <ele>492.471</ele>
        <time>2021-03-06T07:08:07Z</time>
      </trkpt>
      <trkpt lat="45.20104" lon="5.72541">
        <ele>490.567</ele>
        <time>2021-03-06T07:08:13Z</time>
      </trkpt>
      <trkpt lat="45.20094" lon="5.72543">
        <ele>488.517</ele>
        <time>2021-03-06T07:08:18Z</time>
      </trkpt>
      <trkpt lat="45.2008" lon="5.7254">
        <ele>485.402</ele>
        <time>2021-03-06T07:08:24Z</time>
      </trkpt>
      <trkpt lat="45.20077" lon="5.72538">
        <ele>485.639</ele>
        <time>2021-03-06T07:08:25Z</time>
      </trkpt>
      <trkpt lat="45.20067" lon="5.72521">
        <ele>486.425</ele>
        <time>2021-03-06T07:08:30Z</time>
      </trkpt>
      <trkpt lat="45.20066" lon="5.72516">
        <ele>486.021</ele>
        <time>2021-03-06T07:08:31Z</time>
      </trkpt>
      <trkpt lat="45.2007" lon="5.725">
        <ele>484.185</ele>
        <time>2021-03-06T07:08:35Z</time>
      </trkpt>
      <trkpt lat="45.20076" lon="5.72475">
        <ele>484.172</ele>
        <time>2021-03-06T07:08:42Z</time>
      </trkpt>
      <trkpt lat="45.20075" lon="5.72469">
        <ele>484.229</ele>
        <time>2021-03-06T07:08:44Z</time>
      </trkpt>
      <trkpt lat="45.20078" lon="5.72454">
        <ele>482.125</ele>
        <time>2021-03-06T07:08:49Z</time>
      </trkpt>
      <trkpt lat="45.20073" lon="5.7244">
        <ele>481.273</ele>
        <time>2021-03-06T07:08:53Z</time>
      </trkpt>
      <trkpt lat="45.20055" lon="5.72431">
        <ele>479.22</ele>
        <time>2021-03-06T07:08:59Z</time>
      </trkpt>
      <trkpt lat="45.20032" lon="5.72429">
        <ele>476.811</ele>
        <time>2021-03-06T07:09:07Z</time>
      </trkpt>
      <trkpt lat="45.20013" lon="5.72423">
        <ele>474.464</ele>
        <time>2021-03-06T07:09:13Z</time>
      </trkpt>
      <trkpt lat="45.20005" lon="5.72422">
        <ele>472.587</ele>
        <time>2021-03-06T07:09:16Z</time>
      </trkpt>
      <trkpt lat="45.19983" lon="5.7242">
        <ele>469.628</ele>
        <time>2021-03-06T07:09:24Z</time>
      </trkpt>
      <trkpt lat="45.19965" lon="5.72419">
        <ele>467.721</ele>
        <time>2021-03-06T07:09:30Z</time>
      </trkpt>
      <trkpt lat="45.19943" lon="5.72421">
        <ele>466.21</ele>
        <time>2021-03-06T07:09:37Z</time>
      </trkpt>
      <trkpt lat="45.19925" lon="5.72426">
        <ele>466.041</ele>
        <time>2021-03-06T07:09:43Z</time>
      </trkpt>
      <trkpt lat="45.19908" lon="5.72434">
        <ele>467.704</ele>
        <time>2021-03-06T07:09:50Z</time>
      </trkpt>
      <trkpt lat="45.19894" lon="5.72442">
        <ele>469.125</ele>
        <time>2021-03-06T07:09:55Z</time>
      </trkpt>
      <trkpt lat="45.19888" lon="5.72452">
        <ele>470.123</ele>
        <time>2021-03-06T07:10:01Z</time>
      </trkpt>
      <trkpt lat="45.19888" lon="5.72454">
        <ele>470.888</ele>
        <time>2021-03-06T07:10:06Z</time>
      </trkpt>
      <trkpt lat="45.19885" lon="5.72452">
        <ele>471.821</ele>
        <time>2021-03-06T07:10:09Z</time>
      </trkpt>
      <trkpt lat="45.19863" lon="5.72485">
        <ele>471.2</ele>
        <time>2021-03-06T07:10:17Z</time>
      </trkpt>
      <trkpt lat="45.19849" lon="5.72504">
        <ele>469.035</ele>
        <time>2021-03-06T07:10:23Z</time>
      </trkpt>
      <trkpt lat="45.19853" lon="5.72536">
        <ele>468.472</ele>
        <time>2021-03-06T07:10:30Z</time>
      </trkpt>
      <trkpt lat="45.19851" lon="5.72554">
        <ele>466.841</ele>
        <time>2021-03-06T07:10:33Z</time>
      </trkpt>
      <trkpt lat="45.1985" lon="5.72556">
        <ele>467.183</ele>
        <time>2021-03-06T07:10:37Z</time>
      </trkpt>
      <trkpt lat="45.19851" lon="5.72525">
        <ele>465.747</ele>
        <time>2021-03-06T07:10:43Z</time>
      </trkpt>
      <trkpt lat="45.19853" lon="5.725">
        <ele>463.36</ele>
        <time>2021-03-06T07:10:49Z</time>
      </trkpt>
      <trkpt lat="45.19854" lon="5.72497">
        <ele>462.819</ele>
        <time>2021-03-06T07:10:50Z</time>
      </trkpt>
      <trkpt lat="45.19853" lon="5.72489">
        <ele>462.117</ele>
        <time>2021-03-06T07:10:52Z</time>
      </trkpt>
      <trkpt lat="45.19854" lon="5.72481">
        <ele>461.838</ele>
        <time>2021-03-06T07:10:54Z</time>
      </trkpt>
      <trkpt lat="45.19853" lon="5.72465">
        <ele>460.582</ele>
        <time>2021-03-06T07:10:58Z</time>
      </trkpt>
      <trkpt lat="45.19849" lon="5.72445">
        <ele>457.829</ele>
        <time>2021-03-06T07:11:04Z</time>
      </trkpt>
      <trkpt lat="45.19839" lon="5.72463">
        <ele>456.488</ele>
        <time>2021-03-06T07:11:10Z</time>
      </trkpt>
      <trkpt lat="45.19832" lon="5.72492">
        <ele>453.422</ele>
        <time>2021-03-06T07:11:18Z</time>
      </trkpt>
      <trkpt lat="45.19827" lon="5.72506">
        <ele>451.525</ele>
        <time>2021-03-06T07:11:22Z</time>
      </trkpt>
      <trkpt lat="45.19823" lon="5.72526">
        <ele>449.786</ele>
        <time>2021-03-06T07:11:28Z</time>
      </trkpt>
      <trkpt lat="45.19822" lon="5.72542">
        <ele>448.816</ele>
        <time>2021-03-06T07:11:32Z</time>
      </trkpt>
      <trkpt lat="45.1982" lon="5.72568">
        <ele>447.09</ele>
        <time>2021-03-06T07:11:39Z</time>
      </trkpt>
      <trkpt lat="45.19823" lon="5.72591">
        <ele>444.646</ele>
        <time>2021-03-06T07:11:45Z</time>
      </trkpt>
      <trkpt lat="45.19826" lon="5.72612">
        <ele>442.85</ele>
        <time>2021-03-06T07:11:50Z</time>
      </trkpt>
      <trkpt lat="45.19832" lon="5.72636">
        <ele>442.25</ele>
        <time>2021-03-06T07:11:56Z</time>
      </trkpt>
      <trkpt lat="45.19841" lon="5.72657">
        <ele>441.155</ele>
        <time>2021-03-06T07:12:02Z</time>
      </trkpt>
      <trkpt lat="45.1985" lon="5.72668">
        <ele>440.268</ele>
        <time>2021-03-06T07:12:06Z</time>
      </trkpt>
      <trkpt lat="45.1986" lon="5.72683">
        <ele>438.236</ele>
        <time>2021-03-06T07:12:12Z</time>
      </trkpt>
      <trkpt lat="45.19858" lon="5.72685">
        <ele>436.549</ele>
        <time>2021-03-06T07:12:15Z</time>
      </trkpt>
      <trkpt lat="45.19853" lon="5.72683">
        <ele>435.529</ele>
        <time>2021-03-06T07:12:17Z</time>
      </trkpt>
      <trkpt lat="45.19843" lon="5.72674">
        <ele>434.565</ele>
        <time>2021-03-06T07:12:21Z</time>
      </trkpt>
      <trkpt lat="45.19825" lon="5.72648">
        <ele>433.353</ele>
        <time>2021-03-06T07:12:29Z</time>
      </trkpt>
      <trkpt lat="45.19812" lon="5.7264">
        <ele>430.664</ele>
        <time>2021-03-06T07:12:35Z</time>
      </trkpt>
      <trkpt lat="45.19798" lon="5.72626">
        <ele>428.815</ele>
        <time>2021-03-06T07:12:41Z</time>
      </trkpt>
      <trkpt lat="45.19791" lon="5.72604">
        <ele>427.959</ele>
        <time>2021-03-06T07:12:47Z</time>
      </trkpt>
      <trkpt lat="45.19788" lon="5.72586">
        <ele>425.811</ele>
        <time>2021-03-06T07:12:52Z</time>
      </trkpt>
      <trkpt lat="45.19789" lon="5.72571">
        <ele>424.97</ele>
        <time>2021-03-06T07:12:56Z</time>
      </trkpt>
      <trkpt lat="45.1979" lon="5.72553">
        <ele>424.669</ele>
        <time>2021-03-06T07:13:00Z</time>
      </trkpt>
      <trkpt lat="45.19789" lon="5.72538">
        <ele>422.957</ele>
        <time>2021-03-06T07:13:03Z</time>
      </trkpt>
      <trkpt lat="45.19789" lon="5.72524">
        <ele>422.055</ele>
        <time>2021-03-06T07:13:07Z</time>
      </trkpt>
      <trkpt lat="45.19783" lon="5.72539">
        <ele>420.022</ele>
        <time>2021-03-06T07:13:13Z</time>
      </trkpt>
      <trkpt lat="45.1978" lon="5.72556">
        <ele>419.17</ele>
        <time>2021-03-06T07:13:17Z</time>
      </trkpt>
      <trkpt lat="45.1977" lon="5.72586">
        <ele>417.609</ele>
        <time>2021-03-06T07:13:24Z</time>
      </trkpt>
      <trkpt lat="45.19768" lon="5.72585">
        <ele>417.46</ele>
        <time>2021-03-06T07:13:26Z</time>
      </trkpt>
      <trkpt lat="45.19766" lon="5.72573">
        <ele>416.115</ele>
        <time>2021-03-06T07:13:29Z</time>
      </trkpt>
      <trkpt lat="45.19766" lon="5.72553">
        <ele>414.059</ele>
        <time>2021-03-06T07:13:34Z</time>
      </trkpt>
      <trkpt lat="45.19765" lon="5.72536">
        <ele>412.253</ele>
        <time>2021-03-06T07:13:39Z</time>
      </trkpt>
      <trkpt lat="45.19772" lon="5.72519">
        <ele>410.95</ele>
        <time>2021-03-06T07:13:44Z</time>
      </trkpt>
      <trkpt lat="45.19776" lon="5.72514">
        <ele>410.723</ele>
        <time>2021-03-06T07:13:46Z</time>
      </trkpt>
      <trkpt lat="45.19774" lon="5.72506">
        <ele>409.61</ele>
        <time>2021-03-06T07:13:50Z</time>
      </trkpt>
      <trkpt lat="45.19762" lon="5.72515">
        <ele>407.614</ele>
        <time>2021-03-06T07:13:54Z</time>
      </trkpt>
      <trkpt lat="45.19751" lon="5.72535">
        <ele>407.247</ele>
        <time>2021-03-06T07:14:00Z</time>
      </trkpt>
      <trkpt lat="45.1975" lon="5.72539">
        <ele>407.145</ele>
        <time>2021-03-06T07:14:01Z</time>
      </trkpt>
      <trkpt lat="45.19747" lon="5.72567">
        <ele>407.282</ele>
        <time>2021-03-06T07:14:08Z</time>
      </trkpt>
      <trkpt lat="45.19749" lon="5.72591">
        <ele>406.693</ele>
        <time>2021-03-06T07:14:15Z</time>
      </trkpt>
      <trkpt lat="45.19757" lon="5.72619">
        <ele>407.565</ele>
        <time>2021-03-06T07:14:23Z</time>
      </trkpt>
      <trkpt lat="45.19764" lon="5.72643">
        <ele>407.5</ele>
        <time>2021-03-06T07:14:29Z</time>
      </trkpt>
      <trkpt lat="45.19777" lon="5.72664">
        <ele>406.651</ele>
        <time>2021-03-06T07:14:36Z</time>
      </trkpt>
      <trkpt lat="45.19786" lon="5.72681">
        <ele>407.192</ele>
        <time>2021-03-06T07:14:42Z</time>
      </trkpt>
      <trkpt lat="45.19795" lon="5.72689">
        <ele>407.185</ele>
        <time>2021-03-06T07:14:46Z</time>
      </trkpt>
      <trkpt lat="45.19805" lon="5.72696">
        <ele>407.409</ele>
        <time>2021-03-06T07:14:51Z</time>
      </trkpt>
      <trkpt lat="45.19824" lon="5.72716">
        <ele>407.573</ele>
        <time>2021-03-06T07:14:58Z</time>
      </trkpt>
      <trkpt lat="45.19834" lon="5.72737">
        <ele>407.486</ele>
        <time>2021-03-06T07:15:04Z</time>
      </trkpt>
      <trkpt lat="45.19845" lon="5.72746">
        <ele>408.5</ele>
        <time>2021-03-06T07:15:11Z</time>
      </trkpt>
      <trkpt lat="45.19847" lon="5.72748">
        <ele>406.385</ele>
        <time>2021-03-06T07:15:14Z</time>
      </trkpt>
      <trkpt lat="45.1985" lon="5.72751">
        <ele>404.571</ele>
        <time>2021-03-06T07:15:18Z</time>
      </trkpt>
      <trkpt lat="45.19858" lon="5.72741">
        <ele>403.361</ele>
        <time>2021-03-06T07:15:21Z</time>
      </trkpt>
      <trkpt lat="45.19857" lon="5.72758">
        <ele>402.702</ele>
        <time>2021-03-06T07:15:28Z</time>
      </trkpt>
      <trkpt lat="45.19855" lon="5.72756">
        <ele>400.942</ele>
        <time>2021-03-06T07:15:33Z</time>
      </trkpt>
      <trkpt lat="45.19853" lon="5.72752">
        <ele>397.68</ele>
        <time>2021-03-06T07:15:37Z</time>
      </trkpt>
      <trkpt lat="45.19853" lon="5.72752">
        <ele>397.673</ele>
        <time>2021-03-06T07:15:38Z</time>
      </trkpt>
      <trkpt lat="45.1985" lon="5.72754">
        <ele>395.87</ele>
        <time>2021-03-06T07:15:46Z</time>
      </trkpt>
      <trkpt lat="45.19848" lon="5.72754">
        <ele>392.635</ele>
        <time>2021-03-06T07:15:52Z</time>
      </trkpt>
      <trkpt lat="45.19847" lon="5.72755">
        <ele>390.928</ele>
        <time>2021-03-06T07:15:54Z</time>
      </trkpt>
      <trkpt lat="45.19846" lon="5.72755">
        <ele>388.523</ele>
        <time>2021-03-06T07:15:57Z</time>
      </trkpt>
      <trkpt lat="45.19846" lon="5.72755">
        <ele>387.247</ele>
        <time>2021-03-06T07:15:59Z</time>
      </trkpt>
      <trkpt lat="45.19845" lon="5.72755">
        <ele>383.999</ele>
        <time>2021-03-06T07:16:03Z</time>
      </trkpt>
      <trkpt lat="45.19844" lon="5.72755">
        <ele>382.999</ele>
        <time>2021-03-06T07:16:04Z</time>
      </trkpt>
      <trkpt lat="45.19858" lon="5.72776">
        <ele>382.747</ele>
        <time>2021-03-06T07:16:07Z</time>
      </trkpt>
      <trkpt lat="45.19851" lon="5.72768">
        <ele>381.35</ele>
        <time>2021-03-06T07:16:10Z</time>
      </trkpt>
      <trkpt lat="45.19849" lon="5.72767">
        <ele>380.046</ele>
        <time>2021-03-06T07:16:13Z</time>
      </trkpt>
      <trkpt lat="45.19849" lon="5.72769">
        <ele>378.007</ele>
        <time>2021-03-06T07:16:14Z</time>
      </trkpt>
      <trkpt lat="45.19852" lon="5.72777">
        <ele>376.695</ele>
        <time>2021-03-06T07:16:19Z</time>
      </trkpt>
      <trkpt lat="45.19834" lon="5.72764">
        <ele>373.611</ele>
        <time>2021-03-06T07:16:25Z</time>
      </trkpt>
      <trkpt lat="45.19817" lon="5.72757">
        <ele>373.268</ele>
        <time>2021-03-06T07:16:30Z</time>
      </trkpt>
      <trkpt lat="45.19807" lon="5.72743">
        <ele>371.553</ele>
        <time>2021-03-06T07:16:35Z</time>
      </trkpt>
      <trkpt lat="45.19804" lon="5.72741">
        <ele>371.56</ele>
        <time>2021-03-06T07:16:36Z</time>
      </trkpt>
      <trkpt lat="45.19794" lon="5.72729">
        <ele>369.281</ele>
        <time>2021-03-06T07:16:41Z</time>
      </trkpt>
      <trkpt lat="45.19794" lon="5.72731">
        <ele>368.881</ele>
        <time>2021-03-06T07:16:43Z</time>
      </trkpt>
      <trkpt lat="45.19811" lon="5.72751">
        <ele>366.534</ele>
        <time>2021-03-06T07:16:50Z</time>
      </trkpt>
      <trkpt lat="45.19814" lon="5.72757">
        <ele>366.029</ele>
        <time>2021-03-06T07:16:52Z</time>
      </trkpt>
      <trkpt lat="45.1982" lon="5.7277">
        <ele>364.353</ele>
        <time>2021-03-06T07:16:56Z</time>
      </trkpt>
      <trkpt lat="45.19838" lon="5.72789">
        <ele>360.884</ele>
        <time>2021-03-06T07:17:03Z</time>
      </trkpt>
      <trkpt lat="45.19846" lon="5.72797">
        <ele>358.668</ele>
        <time>2021-03-06T07:17:07Z</time>
      </trkpt>
      <trkpt lat="45.19845" lon="5.728">
        <ele>358.977</ele>
        <time>2021-03-06T07:17:09Z</time>
      </trkpt>
      <trkpt lat="45.1983" lon="5.72789">
        <ele>357.914</ele>
        <time>2021-03-06T07:17:14Z</time>
      </trkpt>
      <trkpt lat="45.19811" lon="5.72781">
        <ele>355.927</ele>
        <time>2021-03-06T07:17:20Z</time>
      </trkpt>
      <trkpt lat="45.19804" lon="5.72777">
        <ele>354.224</ele>
        <time>2021-03-06T07:17:23Z</time>
      </trkpt>
      <trkpt lat="45.198" lon="5.72777">
        <ele>353.882</ele>
        <time>2021-03-06T07:17:25Z</time>
      </trkpt>
      <trkpt lat="45.19798" lon="5.72779">
        <ele>352.672</ele>
        <time>2021-03-06T07:17:27Z</time>
      </trkpt>
      <trkpt lat="45.19813" lon="5.72794">
        <ele>350.626</ele>
        <time>2021-03-06T07:17:33Z</time>
      </trkpt>
      <trkpt lat="45.19829" lon="5.72805">
        <ele>348.312</ele>
        <time>2021-03-06T07:17:39Z</time>
      </trkpt>
      <trkpt lat="45.19848" lon="5.72823">
        <ele>345.542</ele>
        <time>2021-03-06T07:17:46Z</time>
      </trkpt>
      <trkpt lat="45.19848" lon="5.72824">
        <ele>345.079</ele>
        <time>2021-03-06T07:17:49Z</time>
      </trkpt>
      <trkpt lat="45.19828" lon="5.72813">
        <ele>343.738</ele>
        <time>2021-03-06T07:17:55Z</time>
      </trkpt>
      <trkpt lat="45.19821" lon="5.72808">
        <ele>342.117</ele>
        <time>2021-03-06T07:17:58Z</time>
      </trkpt>
      <trkpt lat="45.19818" lon="5.7281">
        <ele>341.401</ele>
        <time>2021-03-06T07:18:00Z</time>
      </trkpt>
      <trkpt lat="45.19827" lon="5.72822">
        <ele>340.719</ele>
        <time>2021-03-06T07:18:04Z</time>
      </trkpt>
      <trkpt lat="45.19832" lon="5.72826">
        <ele>339.522</ele>
        <time>2021-03-06T07:18:06Z</time>
      </trkpt>
      <trkpt lat="45.19828" lon="5.72832">
        <ele>337.639</ele>
        <time>2021-03-06T07:18:12Z</time>
      </trkpt>
      <trkpt lat="45.19825" lon="5.72831">
        <ele>337.054</ele>
        <time>2021-03-06T07:18:13Z</time>
      </trkpt>
      <trkpt lat="45.1982" lon="5.72826">
        <ele>336.081</ele>
        <time>2021-03-06T07:18:15Z</time>
      </trkpt>
      <trkpt lat="45.19803" lon="5.72817">
        <ele>334.345</ele>
        <time>2021-03-06T07:18:21Z</time>
      </trkpt>
      <trkpt lat="45.19796" lon="5.72811">
        <ele>332.639</ele>
        <time>2021-03-06T07:18:26Z</time>
      </trkpt>
      <trkpt lat="45.19809" lon="5.72825">
        <ele>332.335</ele>
        <time>2021-03-06T07:18:30Z</time>
      </trkpt>
      <trkpt lat="45.19824" lon="5.72844">
        <ele>329.699</ele>
        <time>2021-03-06T07:18:37Z</time>
      </trkpt>
      <trkpt lat="45.19813" lon="5.72842">
        <ele>328.575</ele>
        <time>2021-03-06T07:18:42Z</time>
      </trkpt>
      <trkpt lat="45.19797" lon="5.72834">
        <ele>326.489</ele>
        <time>2021-03-06T07:18:47Z</time>
      </trkpt>
      <trkpt lat="45.19782" lon="5.72823">
        <ele>324.212</ele>
        <time>2021-03-06T07:18:52Z</time>
      </trkpt>
      <trkpt lat="45.19763" lon="5.72812">
        <ele>322.439</ele>
        <time>2021-03-06T07:18:58Z</time>
      </trkpt>
      <trkpt lat="45.19757" lon="5.7281">
        <ele>321.208</ele>
        <time>2021-03-06T07:19:00Z</time>
      </trkpt>
      <trkpt lat="45.19756" lon="5.7281">
        <ele>321.085</ele>
        <time>2021-03-06T07:19:02Z</time>
      </trkpt>
      <trkpt lat="45.19767" lon="5.72824">
        <ele>318.702</ele>
        <time>2021-03-06T07:19:07Z</time>
      </trkpt>
      <trkpt lat="45.19783" lon="5.72841">
        <ele>315.5</ele>
        <time>2021-03-06T07:19:13Z</time>
      </trkpt>
      <trkpt lat="45.19798" lon="5.72866">
        <ele>313.439</ele>
        <time>2021-03-06T07:19:20Z</time>
      </trkpt>
      <trkpt lat="45.19805" lon="5.72873">
        <ele>312.216</ele>
        <time>2021-03-06T07:19:23Z</time>
      </trkpt>
      <trkpt lat="45.19808" lon="5.72882">
        <ele>309.684</ele>
        <time>2021-03-06T07:19:28Z</time>
      </trkpt>
      <trkpt lat="45.19805" lon="5.72881">
        <ele>308.804</ele>
        <time>2021-03-06T07:19:29Z</time>
      </trkpt>
      <trkpt lat="45.19786" lon="5.72866">
        <ele>307.011</ele>
        <time>2021-03-06T07:19:35Z</time>
      </trkpt>
      <trkpt lat="45.1977" lon="5.72854">
        <ele>305.127</ele>
        <time>2021-03-06T07:19:40Z</time>
      </trkpt>
      <trkpt lat="45.19756" lon="5.72845">
        <ele>302.521</ele>
        <time>2021-03-06T07:19:45Z</time>
      </trkpt>
      <trkpt lat="45.19748" lon="5.7284">
        <ele>301.94</ele>
        <time>2021-03-06T07:19:48Z</time>
      </trkpt>
      <trkpt lat="45.19746" lon="5.72841">
        <ele>300.667</ele>
        <time>2021-03-06T07:19:50Z</time>
      </trkpt>
      <trkpt lat="45.19753" lon="5.7285">
        <ele>299.09</ele>
        <time>2021-03-06T07:19:54Z</time>
      </trkpt>
      <trkpt lat="45.19761" lon="5.72867">
        <ele>298.142</ele>
        <time>2021-03-06T07:19:59Z</time>
      </trkpt>
      <trkpt lat="45.19774" lon="5.72886">
        <ele>295.706</ele>
        <time>2021-03-06T07:20:05Z</time>
      </trkpt>
      <trkpt lat="45.19791" lon="5.72912">
        <ele>293.195</ele>
        <time>2021-03-06T07:20:12Z</time>
      </trkpt>
      <trkpt lat="45.19796" lon="5.72926">
        <ele>290.931</ele>
        <time>2021-03-06T07:20:18Z</time>
      </trkpt>
      <trkpt lat="45.19795" lon="5.72925">
        <ele>290.624</ele>
        <time>2021-03-06T07:20:19Z</time>
      </trkpt>
      <trkpt lat="45.19787" lon="5.72917">
        <ele>288.414</ele>
        <time>2021-03-06T07:20:22Z</time>
      </trkpt>
      <trkpt lat="45.19765" lon="5.72904">
        <ele>285.874</ele>
        <time>2021-03-06T07:20:29Z</time>
      </trkpt>
      <trkpt lat="45.19761" lon="5.72902">
        <ele>285.699</ele>
        <time>2021-03-06T07:20:30Z</time>
      </trkpt>
      <trkpt lat="45.19749" lon="5.72891">
        <ele>283.531</ele>
        <time>2021-03-06T07:20:35Z</time>
      </trkpt>
      <trkpt lat="45.19747" lon="5.72889">
        <ele>282.505</ele>
        <time>2021-03-06T07:20:36Z</time>
      </trkpt>
      <trkpt lat="45.1973" lon="5.7288">
        <ele>281.032</ele>
        <time>2021-03-06T07:20:42Z</time>
      </trkpt>
      <trkpt lat="45.19717" lon="5.72872">
        <ele>279.647</ele>
        <time>2021-03-06T07:20:46Z</time>
      </trkpt>
      <trkpt lat="45.19699" lon="5.72856">
        <ele>277.739</ele>
        <time>2021-03-06T07:20:53Z</time>
      </trkpt>
      <trkpt lat="45.19693" lon="5.72853">
        <ele>276.166</ele>
        <time>2021-03-06T07:20:55Z</time>
      </trkpt>
      <trkpt lat="45.19691" lon="5.72855">
        <ele>276.874</ele>
        <time>2021-03-06T07:20:57Z</time>
      </trkpt>
      <trkpt lat="45.19701" lon="5.72871">
        <ele>274.067</ele>
        <time>2021-03-06T07:21:02Z</time>
      </trkpt>
      <trkpt lat="45.19717" lon="5.72889">
        <ele>272.889</ele>
        <time>2021-03-06T07:21:08Z</time>
      </trkpt>
      <trkpt lat="45.19729" lon="5.72912">
        <ele>270.245</ele>
        <time>2021-03-06T07:21:15Z</time>
      </trkpt>
      <trkpt lat="45.19732" lon="5.7292">
        <ele>269.5</ele>
        <time>2021-03-06T07:21:17Z</time>
      </trkpt>
      <trkpt lat="45.19744" lon="5.72946">
        <ele>266.728</ele>
        <time>2021-03-06T07:21:24Z</time>
      </trkpt>
      <trkpt lat="45.19753" lon="5.72963">
        <ele>265.818</ele>
        <time>2021-03-06T07:21:29Z</time>
      </trkpt>
      <trkpt lat="45.19766" lon="5.7298">
        <ele>262.878</ele>
        <time>2021-03-06T07:21:35Z</time>
      </trkpt>
      <trkpt lat="45.19779" lon="5.72996">
        <ele>260.735</ele>
        <time>2021-03-06T07:21:41Z</time>
      </trkpt>
      <trkpt lat="45.19782" lon="5.72999">
        <ele>260.813</ele>
        <time>2021-03-06T07:21:42Z</time>
      </trkpt>
      <trkpt lat="45.19795" lon="5.73007">
        <ele>258.461</ele>
        <time>2021-03-06T07:21:46Z</time>
      </trkpt>
      <trkpt lat="45.1981" lon="5.73016">
        <ele>258.058</ele>
        <time>2021-03-06T07:21:52Z</time>
      </trkpt>
      <trkpt lat="45.1981" lon="5.73021">
        <ele>257.907</ele>
        <time>2021-03-06T07:21:54Z</time>
      </trkpt>
      <trkpt lat="45.19801" lon="5.73019">
        <ele>256.29</ele>
        <time>2021-03-06T07:21:57Z</time>
      </trkpt>
      <trkpt lat="45.19786" lon="5.73012">
        <ele>254.076</ele>
        <time>2021-03-06T07:22:03Z</time>
      </trkpt>
      <trkpt lat="45.1978" lon="5.7301">
        <ele>253.449</ele>
        <time>2021-03-06T07:22:05Z</time>
      </trkpt>
      <trkpt lat="45.19772" lon="5.73008">
        <ele>252.771</ele>
        <time>2021-03-06T07:22:08Z</time>
      </trkpt>
      <trkpt lat="45.19769" lon="5.73011">
        <ele>251.962</ele>
        <time>2021-03-06T07:22:11Z</time>
      </trkpt>
      <trkpt lat="45.19775" lon="5.73016">
        <ele>250.022</ele>
        <time>2021-03-06T07:22:14Z</time>
      </trkpt>
      <trkpt lat="45.19778" lon="5.73017">
        <ele>250.619</ele>
        <time>2021-03-06T07:22:15Z</time>
      </trkpt>
      <trkpt lat="45.19783" lon="5.73021">
        <ele>249.599</ele>
        <time>2021-03-06T07:22:17Z</time>
      </trkpt>
      <trkpt lat="45.19792" lon="5.73025">
        <ele>247.993</ele>
        <time>2021-03-06T07:22:20Z</time>
      </trkpt>
      <trkpt lat="45.198" lon="5.73031">
        <ele>247.517</ele>
        <time>2021-03-06T07:22:23Z</time>
      </trkpt>
      <trkpt lat="45.19804" lon="5.73041">
        <ele>245.778</ele>
        <time>2021-03-06T07:22:29Z</time>
      </trkpt>
      <trkpt lat="45.19792" lon="5.73035">
        <ele>244.203</ele>
        <time>2021-03-06T07:22:34Z</time>
      </trkpt>
      <trkpt lat="45.19788" lon="5.73035">
        <ele>244.311</ele>
        <time>2021-03-06T07:22:35Z</time>
      </trkpt>
      <trkpt lat="45.19766" lon="5.73029">
        <ele>241.093</ele>
        <time>2021-03-06T07:22:42Z</time>
      </trkpt>
      <trkpt lat="45.19758" lon="5.73029">
        <ele>240.147</ele>
        <time>2021-03-06T07:22:45Z</time>
      </trkpt>
      <trkpt lat="45.19758" lon="5.7303">
        <ele>239.68</ele>
        <time>2021-03-06T07:22:47Z</time>
      </trkpt>
      <trkpt lat="45.19766" lon="5.73036">
        <ele>238.159</ele>
        <time>2021-03-06T07:22:50Z</time>
      </trkpt>
      <trkpt lat="45.19768" lon="5.73037">
        <ele>237.15</ele>
        <time>2021-03-06T07:22:51Z</time>
      </trkpt>
      <trkpt lat="45.19787" lon="5.73048">
        <ele>236.25</ele>
        <time>2021-03-06T07:22:57Z</time>
      </trkpt>
      <trkpt lat="45.1979" lon="5.7305">
        <ele>235.042</ele>
        <time>2021-03-06T07:22:58Z</time>
      </trkpt>
      <trkpt lat="45.19798" lon="5.7306">
        <ele>234.27</ele>
        <time>2021-03-06T07:23:03Z</time>
      </trkpt>
      <trkpt lat="45.19795" lon="5.73061">
        <ele>232.887</ele>
        <time>2021-03-06T07:23:04Z</time>
      </trkpt>
      <trkpt lat="45.19791" lon="5.73059">
        <ele>232.184</ele>
        <time>2021-03-06T07:23:06Z</time>
      </trkpt>
      <trkpt lat="45.19778" lon="5.73053">
        <ele>230.582</ele>
        <time>2021-03-06T07:23:11Z</time>
      </trkpt>
      <trkpt lat="45.19761" lon="5.73052">
        <ele>228.488</ele>
        <time>2021-03-06T07:23:16Z</time>
      </trkpt>
      <trkpt lat="45.19753" lon="5.73055">
        <ele>227.275</ele>
        <time>2021-03-06T07:23:20Z</time>
      </trkpt>
      <trkpt lat="45.19758" lon="5.73062">
        <ele>226.889</ele>
        <time>2021-03-06T07:23:23Z</time>
      </trkpt>
      <trkpt lat="45.19764" lon="5.73067">
        <ele>225.528</ele>
        <time>2021-03-06T07:23:26Z</time>
      </trkpt>
      <trkpt lat="45.19784" lon="5.73074">
        <ele>223.712</ele>
        <time>2021-03-06T07:23:32Z</time>
      </trkpt>
      <trkpt lat="45.19808" lon="5.73094">
        <ele>221.319</ele>
        <time>2021-03-06T07:23:41Z</time>
      </trkpt>
      <trkpt lat="45.19802" lon="5.73098">
        <ele>219.864</ele>
        <time>2021-03-06T07:23:44Z</time>
      </trkpt>
      <trkpt lat="45.19782" lon="5.73097">
        <ele>218.463</ele>
        <time>2021-03-06T07:23:50Z</time>
      </trkpt>
      <trkpt lat="45.19765" lon="5.73093">
        <ele>216.187</ele>
        <time>2021-03-06T07:23:55Z</time>
      </trkpt>
      <trkpt lat="45.1976" lon="5.73091">
        <ele>215.711</ele>
        <time>2021-03-06T07:23:57Z</time>
      </trkpt>
      <trkpt lat="45.19763" lon="5.73102">
        <ele>214.36</ele>
        <time>2021-03-06T07:24:03Z</time>
      </trkpt>
      <trkpt lat="45.19773" lon="5.73112">
        <ele>213.181</ele>
        <time>2021-03-06T07:24:07Z</time>
      </trkpt>
      <trkpt lat="45.19777" lon="5.73127">
        <ele>210.986</ele>
        <time>2021-03-06T07:24:11Z</time>
      </trkpt>
      <trkpt lat="45.19811" lon="5.7313">
        <ele>209.395</ele>
        <time>2021-03-06T07:24:17Z</time>
      </trkpt>
      <trkpt lat="45.19809" lon="5.73133">
        <ele>208.814</ele>
        <time>2021-03-06T07:24:19Z</time>
      </trkpt>
      <trkpt lat="45.19792" lon="5.73136">
        <ele>207.278</ele>
        <time>2021-03-06T07:24:23Z</time>
      </trkpt>
      <trkpt lat="45.19782" lon="5.7315">
        <ele>206.011</ele>
        <time>2021-03-06T07:24:28Z</time>
      </trkpt>
      <trkpt lat="45.19775" lon="5.73172">
        <ele>202.688</ele>
        <time>2021-03-06T07:24:34Z</time>
      </trkpt>
      <trkpt lat="45.19776" lon="5.7318">
        <ele>201.937</ele>
        <time>2021-03-06T07:24:36Z</time>
      </trkpt>
      <trkpt lat="45.19779" lon="5.73191">
        <ele>202.148</ele>
        <time>2021-03-06T07:24:39Z</time>
      </trkpt>
      <trkpt lat="45.19774" lon="5.73219">
        <ele>202.612</ele>
        <time>2021-03-06T07:24:46Z</time>
      </trkpt>
      <trkpt lat="45.19769" lon="5.73244">
        <ele>203.416</ele>
        <time>2021-03-06T07:24:53Z</time>
      </trkpt>
      <trkpt lat="45.19757" lon="5.73268">
        <ele>203.823</ele>
        <time>2021-03-06T07:25:00Z</time>
      </trkpt>
      <trkpt lat="45.19749" lon="5.73295">
        <ele>204.24</ele>
        <time>2021-03-06T07:25:07Z</time>
      </trkpt>
      <trkpt lat="45.19741" lon="5.73323">
        <ele>204.562</ele>
        <time>2021-03-06T07:25:15Z</time>
      </trkpt>
      <trkpt lat="45.19735" lon="5.73349">
        <ele>203.934</ele>
        <time>2021-03-06T07:25:22Z</time>
      </trkpt>
      <trkpt lat="45.19732" lon="5.73363">
        <ele>202.767</ele>
        <time>2021-03-06T07:25:26Z</time>
      </trkpt>
      <trkpt lat="45.1974" lon="5.73367">
        <ele>203.074</ele>
        <time>2021-03-06T07:25:30Z</time>
      </trkpt>
      <trkpt lat="45.19768" lon="5.73371">
        <ele>201.855</ele>
        <time>2021-03-06T07:25:39Z</time>
      </trkpt>
      <trkpt lat="45.19784" lon="5.73375">
        <ele>201.794</ele>
        <time>2021-03-06T07:25:45Z</time>
      </trkpt>
      <trkpt lat="45.19801" lon="5.73381">
        <ele>202.207</ele>
        <time>2021-03-06T07:25:51Z</time>
      </trkpt>
      <trkpt lat="45.19813" lon="5.73386">
        <ele>201.796</ele>
        <time>2021-03-06T07:25:56Z</time>
      </trkpt>
      <trkpt lat="45.19831" lon="5.73393">
        <ele>202.562</ele>
        <time>2021-03-06T07:26:03Z</time>
      </trkpt>
      <trkpt lat="45.19854" lon="5.73399">
        <ele>202.422</ele>
        <time>2021-03-06T07:26:10Z</time>
      </trkpt>
      <trkpt lat="45.19859" lon="5.734">
        <ele>202.409</ele>
        <time>2021-03-06T07:26:12Z</time>
      </trkpt>
      <trkpt lat="45.19875" lon="5.73406">
        <ele>202.171</ele>
        <time>2021-03-06T07:26:17Z</time>
      </trkpt>
      <trkpt lat="45.19888" lon="5.73407">
        <ele>202.279</ele>
        <time>2021-03-06T07:26:22Z</time>
      </trkpt>
      <trkpt lat="45.19906" lon="5.73415">
        <ele>202.325</ele>
        <time>2021-03-06T07:26:29Z</time>
      </trkpt>
      <trkpt lat="45.1993" lon="5.73416">
        <ele>201.712</ele>
        <time>2021-03-06T07:26:36Z</time>
      </trkpt>
      <trkpt lat="45.19933" lon="5.73419">
        <ele>202.61</ele>
        <time>2021-03-06T07:26:38Z</time>
      </trkpt>
      <trkpt lat="45.19953" lon="5.73425">
        <ele>202.768</ele>
        <time>2021-03-06T07:26:46Z</time>
      </trkpt>
      <trkpt lat="45.19955" lon="5.73427">
        <ele>203.61</ele>
        <time>2021-03-06T07:26:47Z</time>
      </trkpt>
      <trkpt lat="45.19968" lon="5.73429">
        <ele>202.849</ele>
        <time>2021-03-06T07:26:52Z</time>
      </trkpt>
      <trkpt lat="45.19989" lon="5.73432">
        <ele>202.98</ele>
        <time>2021-03-06T07:26:58Z</time>
      </trkpt>
      <trkpt lat="45.20003" lon="5.73441">
        <ele>202.867</ele>
        <time>2021-03-06T07:27:04Z</time>
      </trkpt>
      <trkpt lat="45.20022" lon="5.73454">
        <ele>202.789</ele>
        <time>2021-03-06T07:27:12Z</time>
      </trkpt>
      <trkpt lat="45.20027" lon="5.73458">
        <ele>202.39</ele>
        <time>2021-03-06T07:27:14Z</time>
      </trkpt>
      <trkpt lat="45.20055" lon="5.73475">
        <ele>203.667</ele>
        <time>2021-03-06T07:27:22Z</time>
      </trkpt>
      <trkpt lat="45.20067" lon="5.73481">
        <ele>203.646</ele>
        <time>2021-03-06T07:27:26Z</time>
      </trkpt>
      <trkpt lat="45.2009" lon="5.73506">
        <ele>204.203</ele>
        <time>2021-03-06T07:27:36Z</time>
      </trkpt>
      <trkpt lat="45.20104" lon="5.7353">
        <ele>204.242</ele>
        <time>2021-03-06T07:27:43Z</time>
      </trkpt>
      <trkpt lat="45.20108" lon="5.73547">
        <ele>203.693</ele>
        <time>2021-03-06T07:27:47Z</time>
      </trkpt>
      <trkpt lat="45.20122" lon="5.73565">
        <ele>203.666</ele>
        <time>2021-03-06T07:27:53Z</time>
      </trkpt>
      <trkpt lat="45.20134" lon="5.73584">
        <ele>204.28</ele>
        <time>2021-03-06T07:27:59Z</time>
      </trkpt>
      <trkpt lat="45.20149" lon="5.73606">
        <ele>203.24</ele>
        <time>2021-03-06T07:28:06Z</time>
      </trkpt>
      <trkpt lat="45.20159" lon="5.73629">
        <ele>204.499</ele>
        <time>2021-03-06T07:28:12Z</time>
      </trkpt>
      <trkpt lat="45.20166" lon="5.73655">
        <ele>203.996</ele>
        <time>2021-03-06T07:28:19Z</time>
      </trkpt>
      <trkpt lat="45.2017" lon="5.73679">
        <ele>204.13</ele>
        <time>2021-03-06T07:28:25Z</time>
      </trkpt>
      <trkpt lat="45.20174" lon="5.73707">
        <ele>203.37</ele>
        <time>2021-03-06T07:28:32Z</time>
      </trkpt>
      <trkpt lat="45.20174" lon="5.73729">
        <ele>203.334</ele>
        <time>2021-03-06T07:28:38Z</time>
      </trkpt>
      <trkpt lat="45.20176" lon="5.73749">
        <ele>203.777</ele>
        <time>2021-03-06T07:28:43Z</time>
      </trkpt>
      <trkpt lat="45.20175" lon="5.7378">
        <ele>203.994</ele>
        <time>2021-03-06T07:28:50Z</time>
      </trkpt>
      <trkpt lat="45.20177" lon="5.73812">
        <ele>204.032</ele>
        <time>2021-03-06T07:28:58Z</time>
      </trkpt>
      <trkpt lat="45.20178" lon="5.73837">
        <ele>202.088</ele>
        <time>2021-03-06T07:29:05Z</time>
      </trkpt>
      <trkpt lat="45.20168" lon="5.73854">
        <ele>202.376</ele>
        <time>2021-03-06T07:29:13Z</time>
      </trkpt>
      <trkpt lat="45.2016" lon="5.73876">
        <ele>201.794</ele>
        <time>2021-03-06T07:29:19Z</time>
      </trkpt>
      <trkpt lat="45.2016" lon="5.7388">
        <ele>201.798</ele>
        <time>2021-03-06T07:29:20Z</time>
      </trkpt>
      <trkpt lat="45.20143" lon="5.73906">
        <ele>202.613</ele>
        <time>2021-03-06T07:29:29Z</time>
      </trkpt>
      <trkpt lat="45.2013" lon="5.73924">
        <ele>202.873</ele>
        <time>2021-03-06T07:29:36Z</time>
      </trkpt>
      <trkpt lat="45.20126" lon="5.73934">
        <ele>202.89</ele>
        <time>2021-03-06T07:29:39Z</time>
      </trkpt>
      <trkpt lat="45.20116" lon="5.73956">
        <ele>202.883</ele>
        <time>2021-03-06T07:29:46Z</time>
      </trkpt>
      <trkpt lat="45.20105" lon="5.73978">
        <ele>203.034</ele>
        <time>2021-03-06T07:29:53Z</time>
      </trkpt>
      <trkpt lat="45.20098" lon="5.73987">
        <ele>202.055</ele>
        <time>2021-03-06T07:29:56Z</time>
      </trkpt>
      <trkpt lat="45.20084" lon="5.73997">
        <ele>202.419</ele>
        <time>2021-03-06T07:30:01Z</time>
      </trkpt>
      <trkpt lat="45.20073" lon="5.74013">
        <ele>202.379</ele>
        <time>2021-03-06T07:30:08Z</time>
      </trkpt>
      <trkpt lat="45.20061" lon="5.74036">
        <ele>202.257</ele>
        <time>2021-03-06T07:30:15Z</time>
      </trkpt>
      <trkpt lat="45.20046" lon="5.7406">
        <ele>202.584</ele>
        <time>2021-03-06T07:30:22Z</time>
      </trkpt>
      <trkpt lat="45.20045" lon="5.74062">
        <ele>202.657</ele>
        <time>2021-03-06T07:30:23Z</time>
      </trkpt>
      <trkpt lat="45.20041" lon="5.74066">
        <ele>203.397</ele>
        <time>2021-03-06T07:30:26Z</time>
      </trkpt>
      <trkpt lat="45.20045" lon="5.74073">
        <ele>203.312</ele>
        <time>2021-03-06T07:30:31Z</time>
      </trkpt>
      <trkpt lat="45.20033" lon="5.74088">
        <ele>203.712</ele>
        <time>2021-03-06T07:30:36Z</time>
      </trkpt>
      <trkpt lat="45.20019" lon="5.74094">
        <ele>202.872</ele>
        <time>2021-03-06T07:30:39Z</time>
      </trkpt>
      <trkpt lat="45.20001" lon="5.74109">
        <ele>203.202</ele>
        <time>2021-03-06T07:30:44Z</time>
      </trkpt>
      <trkpt lat="45.19987" lon="5.74128">
        <ele>204.484</ele>
        <time>2021-03-06T07:30:51Z</time>
      </trkpt>
      <trkpt lat="45.19983" lon="5.74131">
        <ele>206.023</ele>
        <time>2021-03-06T07:30:53Z</time>
      </trkpt>
      <trkpt lat="45.19974" lon="5.74135">
        <ele>206.47</ele>
        <time>2021-03-06T07:30:57Z</time>
      </trkpt>
      <trkpt lat="45.19956" lon="5.74155">
        <ele>205.638</ele>
        <time>2021-03-06T07:31:04Z</time>
      </trkpt>
      <trkpt lat="45.19937" lon="5.74169">
        <ele>205.399</ele>
        <time>2021-03-06T07:31:11Z</time>
      </trkpt>
      <trkpt lat="45.19914" lon="5.74185">
        <ele>206.722</ele>
        <time>2021-03-06T07:31:19Z</time>
      </trkpt>
      <trkpt lat="45.19892" lon="5.742">
        <ele>205.795</ele>
        <time>2021-03-06T07:31:28Z</time>
      </trkpt>
      <trkpt lat="45.1987" lon="5.74213">
        <ele>206.185</ele>
        <time>2021-03-06T07:31:35Z</time>
      </trkpt>
      <trkpt lat="45.19847" lon="5.74224">
        <ele>205.998</ele>
        <time>2021-03-06T07:31:42Z</time>
      </trkpt>
      <trkpt lat="45.1983" lon="5.7423">
        <ele>206.118</ele>
        <time>2021-03-06T07:31:49Z</time>
      </trkpt>
      <trkpt lat="45.19814" lon="5.74234">
        <ele>206.072</ele>
        <time>2021-03-06T07:31:55Z</time>
      </trkpt>
      <trkpt lat="45.19794" lon="5.74239">
        <ele>206.154</ele>
        <time>2021-03-06T07:32:02Z</time>
      </trkpt>
      <trkpt lat="45.19776" lon="5.74245">
        <ele>206.031</ele>
        <time>2021-03-06T07:32:08Z</time>
      </trkpt>
      <trkpt lat="45.19753" lon="5.7425">
        <ele>206.523</ele>
        <time>2021-03-06T07:32:15Z</time>
      </trkpt>
      <trkpt lat="45.19739" lon="5.74256">
        <ele>206.022</ele>
        <time>2021-03-06T07:32:20Z</time>
      </trkpt>
      <trkpt lat="45.19728" lon="5.74248">
        <ele>206.002</ele>
        <time>2021-03-06T07:32:26Z</time>
      </trkpt>
      <trkpt lat="45.19727" lon="5.74246">
        <ele>204.684</ele>
        <time>2021-03-06T07:32:27Z</time>
      </trkpt>
      <trkpt lat="45.19724" lon="5.74224">
        <ele>204.863</ele>
        <time>2021-03-06T07:32:33Z</time>
      </trkpt>
      <trkpt lat="45.19721" lon="5.74207">
        <ele>206.07</ele>
        <time>2021-03-06T07:32:37Z</time>
      </trkpt>
      <trkpt lat="45.19716" lon="5.74182">
        <ele>204.984</ele>
        <time>2021-03-06T07:32:43Z</time>
      </trkpt>
      <trkpt lat="45.19711" lon="5.74158">
        <ele>204.49</ele>
        <time>2021-03-06T07:32:49Z</time>
      </trkpt>
      <trkpt lat="45.19707" lon="5.7414">
        <ele>204.83</ele>
        <time>2021-03-06T07:32:54Z</time>
      </trkpt>
      <trkpt lat="45.19704" lon="5.74125">
        <ele>205.099</ele>
        <time>2021-03-06T07:32:58Z</time>
      </trkpt>
      <trkpt lat="45.197" lon="5.74109">
        <ele>204.955</ele>
        <time>2021-03-06T07:33:03Z</time>
      </trkpt>
      <trkpt lat="45.19696" lon="5.74091">
        <ele>205.289</ele>
        <time>2021-03-06T07:33:08Z</time>
      </trkpt>
      <trkpt lat="45.19692" lon="5.74073">
        <ele>205.466</ele>
        <time>2021-03-06T07:33:13Z</time>
      </trkpt>
      <trkpt lat="45.19685" lon="5.74052">
        <ele>205.249</ele>
        <time>2021-03-06T07:33:19Z</time>
      </trkpt>
      <trkpt lat="45.1968" lon="5.74039">
        <ele>205.352</ele>
        <time>2021-03-06T07:33:23Z</time>
      </trkpt>
      <trkpt lat="45.19677" lon="5.74016">
        <ele>205.787</ele>
        <time>2021-03-06T07:33:29Z</time>
      </trkpt>
      <trkpt lat="45.19661" lon="5.74001">
        <ele>205.377</ele>
        <time>2021-03-06T07:33:35Z</time>
      </trkpt>
      <trkpt lat="45.19658" lon="5.74">
        <ele>205.654</ele>
        <time>2021-03-06T07:33:36Z</time>
      </trkpt>
      <trkpt lat="45.1964" lon="5.73994">
        <ele>205.657</ele>
        <time>2021-03-06T07:33:43Z</time>
      </trkpt>
      <trkpt lat="45.19625" lon="5.7399">
        <ele>205.161</ele>
        <time>2021-03-06T07:33:48Z</time>
      </trkpt>
      <trkpt lat="45.19616" lon="5.73984">
        <ele>205.016</ele>
        <time>2021-03-06T07:33:52Z</time>
      </trkpt>
      <trkpt lat="45.19618" lon="5.7397">
        <ele>204.957</ele>
        <time>2021-03-06T07:33:56Z</time>
      </trkpt>
      <trkpt lat="45.19619" lon="5.73965">
        <ele>205.325</ele>
        <time>2021-03-06T07:33:58Z</time>
      </trkpt>
      <trkpt lat="45.19628" lon="5.73961">
        <ele>203.502</ele>
        <time>2021-03-06T07:34:04Z</time>
      </trkpt>
      <trkpt lat="45.19635" lon="5.73961">
        <ele>205.071</ele>
        <time>2021-03-06T07:34:10Z</time>
      </trkpt>
      <trkpt lat="45.19634" lon="5.73951">
        <ele>205.788</ele>
        <time>2021-03-06T07:34:17Z</time>
      </trkpt>
      <trkpt lat="45.19635" lon="5.73959">
        <ele>206.684</ele>
        <time>2021-03-06T07:34:28Z</time>
      </trkpt>
      <trkpt lat="45.19642" lon="5.7397">
        <ele>211.73</ele>
        <time>2021-03-06T07:34:43Z</time>
      </trkpt>
      <trkpt lat="45.19643" lon="5.73977">
        <ele>211.154</ele>
        <time>2021-03-06T07:34:44Z</time>
      </trkpt>
      <trkpt lat="45.19639" lon="5.73987">
        <ele>215.871</ele>
        <time>2021-03-06T07:34:53Z</time>
      </trkpt>
      <trkpt lat="45.19638" lon="5.73987">
        <ele>214.287</ele>
        <time>2021-03-06T07:34:54Z</time>
      </trkpt>
    </trkseg>
  </trk>
</gpx>